GFSNGP_sfc_dewp_000.txt.gz
Dewpoint
29 24 22 21 21 21 20 25 27 28 24 25 30 31 35 37 37 37 38 38 38 38 37 34 34 33 32 33 36 39 39 37 38 35 33 32 33 31 31 30 26 26 25 26
36 25 24 25 23 22 21 21 22 24 25 29 35 36 36 37 37 38 37 36 35 35 32 31 30 27 26 28 30 37 34 36 35 35 34 33 32 32 29 27 25 25 26 26
34 33 34 35 35 25 23 24 26 30 29 34 35 35 35 37 38 37 35 35 34 32 29 27 24 24 23 24 26 32 32 33 35 38 35 35 31 28 25 25 26 27 27 26
36 36 31 28 27 27 27 26 26 26 32 35 36 36 36 38 37 35 34 34 31 27 26 25 24 22 23 21 23 25 26 30 35 36 34 32 30 29 26 25 26 26 27 26
35 30 29 28 29 30 31 30 30 35 36 37 36 35 35 36 35 34 33 30 25 24 24 23 20 21 21 22 22 23 23 30 31 36 30 31 29 29 26 25 25 26 26 27
35 30 26 36 30 33 33 31 38 39 38 38 36 36 33 35 34 31 25 23 21 21 19 18 20 20 20 20 21 24 32 32 30 28 30 30 30 28 25 25 24 27 27 27
34 32 33 31 31 34 31 35 42 41 39 38 36 38 38 34 29 24 22 21 21 18 18 19 19 20 21 20 20 28 30 32 33 32 28 28 28 24 24 24 25 29 29 28
35 33 29 34 32 36 41 44 42 40 39 39 38 39 32 28 24 22 20 18 16 17 18 19 19 21 21 21 25 30 32 31 31 29 27 22 24 25 24 24 27 27 25 26
36 36 39 38 39 41 45 43 42 41 39 38 37 33 28 25 24 22 18 16 17 17 19 20 21 21 21 24 27 28 30 28 28 26 24 24 23 23 23 24 26 25 22 21
40 35 34 38 40 43 43 42 40 39 38 38 32 30 26 24 23 20 17 17 18 19 19 21 22 22 25 27 28 28 27 27 26 25 26 25 23 22 23 26 25 24 21 20
36 36 36 40 42 42 42 41 40 38 37 30 28 25 25 22 21 20 19 20 20 20 20 23 23 25 27 27 29 26 27 27 27 29 28 26 23 24 27 24 23 22 21 20
38 39 41 41 41 40 40 39 38 36 29 27 26 24 21 22 22 19 19 19 19 21 23 23 25 27 29 28 29 30 29 28 29 29 29 26 24 24 25 24 21 19 18 18
37 42 43 43 41 39 37 32 31 29 27 24 22 21 21 20 20 23 20 22 24 25 25 28 29 30 30 29 30 30 29 29 28 27 28 28 27 27 25 27 25 23 21 20
41 42 40 40 38 38 32 30 30 26 21 21 21 21 20 21 23 23 24 26 26 26 28 30 30 30 31 32 29 29 28 27 29 30 30 29 27 26 27 26 25 25 26 24
39 40 39 37 37 31 28 25 21 18 19 21 22 22 24 24 24 26 28 28 29 30 29 28 30 30 30 31 28 28 28 28 29 29 30 29 29 29 28 27 26 25 24 24
38 36 34 30 28 25 22 19 18 20 21 21 24 29 27 27 27 28 30 30 30 29 32 32 31 30 31 31 27 27 29 27 26 28 29 29 29 28 27 27 26 25 24 22
38 35 32 29 24 20 19 21 23 26 26 27 30 31 30 30 30 30 30 30 30 32 33 33 33 30 31 31 28 27 30 29 28 29 28 30 28 28 28 27 26 25 25 20
34 33 29 21 20 22 29 32 33 32 31 32 30 29 29 28 29 29 30 31 31 32 33 34 33 31 31 30 29 29 28 28 30 30 30 29 29 27 26 27 27 26 25 24
25 21 21 20 23 34 35 35 33 33 32 31 31 31 31 30 30 31 31 30 30 30 31 33 32 30 30 29 28 28 29 30 29 28 29 29 28 28 28 28 27 26 25 25
20 21 25 24 29 32 32 33 32 33 33 32 30 31 30 30 30 30 30 30 30 32 34 34 32 30 29 29 26 27 31 31 29 28 29 29 27 28 29 27 27 27 27 27
30 34 33 33 32 32 32 32 30 30 32 30 31 31 30 31 30 31 30 28 30 33 34 34 33 31 31 30 28 29 29 30 29 29 29 29 29 28 28 28 28 28 28 27
32 32 32 32 31 32 33 33 33 33 32 32 30 31 32 30 30 30 31 31 32 33 34 34 34 31 31 24 29 31 30 30 28 29 29 29 29 29 28 27 27 28 28 27
33 34 33 33 32 33 34 33 33 33 32 32 32 32 32 31 31 30 29 32 32 34 33 34 34 32 30 30 31 30 30 28 28 28 29 30 29 28 28 27 27 27 26 26
34 32 33 34 35 33 32 32 33 34 34 34 33 33 33 33 33 32 33 32 32 33 33 33 33 31 30 30 30 30 29 29 29 29 29 29 29 29 27 27 27 27 27 27
34 34 34 34 33 34 34 33 33 33 34 34 34 33 34 35 33 32 33 34 33 32 33 33 32 32 31 30 29 29 30 30 29 28 29 29 28 29 29 29 28 27 27 27
31 31 31 31 31 32 33 33 34 34 35 34 33 34 34 34 35 34 34 33 33 33 33 33 33 32 32 31 30 30 30 30 28 28 28 27 27 27 27 27 28 28 28 27
31 31 32 32 32 33 33 32 35 35 34 33 32 33 33 33 33 34 33 33 33 33 33 33 33 32 32 32 31 31 31 30 28 28 28 27 27 27 27 26 26 26 26 27

GFSNGP_sfc_dewp_003.txt.gz
Dewpoint
31 28 27 25 24 24 23 26 25 26 28 34 35 36 37 38 38 38 37 36 36 35 33 31 27 24 23 26 28 27 33 36 39 38 36 37 36 33 32 29 25 22 22 24
28 32 31 28 28 27 25 25 24 26 31 36 36 36 37 38 37 36 35 35 34 34 30 25 22 22 24 24 24 25 24 25 30 39 39 38 36 35 32 26 21 21 23 25
28 34 32 25 28 31 28 29 28 26 33 36 36 36 38 36 36 35 35 35 34 32 25 24 23 24 23 23 25 25 25 27 37 37 37 38 38 35 25 23 21 22 24 25
24 27 17 32 31 31 31 31 33 36 36 36 36 37 37 36 34 34 34 34 33 26 23 22 21 21 22 21 23 25 27 31 33 35 36 38 37 29 25 22 20 22 24 25
26 24 26 29 31 31 30 31 39 38 38 37 36 36 35 35 35 34 33 30 24 22 21 19 19 20 21 22 23 24 31 31 31 33 34 33 32 29 27 22 21 23 26 25
24 21 15 28 34 36 35 28 41 39 39 37 36 28 33 37 35 32 25 23 21 19 17 18 19 20 22 22 23 28 32 32 33 34 33 34 34 29 25 21 22 26 26 26
28 17 26 34 35 36 27 28 42 41 39 38 35 35 37 39 31 25 24 21 21 19 18 18 19 21 23 24 24 30 32 33 33 33 33 32 31 23 21 21 26 25 26 25
28 24 21 36 35 29 36 41 42 41 39 39 38 38 39 30 26 25 22 19 18 19 20 21 21 23 23 23 25 29 30 31 31 31 30 25 22 22 22 23 23 23 18 19
31 29 34 38 37 44 44 42 41 40 40 38 38 36 30 27 26 24 19 18 19 19 21 22 23 23 23 26 28 29 29 28 28 27 25 24 24 22 22 23 21 21 22 15
32 36 35 40 44 44 43 42 42 41 40 39 38 30 27 26 23 22 19 19 19 20 20 23 24 23 27 28 28 28 28 28 27 26 27 26 24 23 23 20 19 23 20 18
33 36 39 42 43 43 42 42 42 40 40 39 29 27 23 23 21 20 18 19 20 22 24 24 25 26 27 27 27 27 28 28 27 27 27 26 23 23 25 21 21 19 17 18
32 39 40 41 43 42 41 40 41 41 32 28 24 22 22 21 22 22 22 24 24 25 25 25 28 29 30 30 27 28 28 27 26 26 25 26 25 25 27 25 23 22 21 16
37 43 43 43 42 41 39 35 30 28 26 22 23 23 22 23 24 26 25 25 26 26 27 29 29 30 31 31 28 28 28 28 26 26 25 24 23 23 19 24 28 26 23 22
44 43 41 40 39 39 33 30 30 23 23 24 23 24 26 25 25 26 25 27 27 28 29 28 29 28 32 32 31 27 27 26 23 22 22 23 26 25 26 26 23 26 26 25
41 41 39 41 39 32 28 23 21 22 24 24 24 27 27 27 27 27 28 28 29 29 28 28 30 31 31 31 30 29 27 24 21 18 19 24 27 27 26 26 25 25 22 24
39 39 39 34 27 25 22 22 23 25 25 24 26 27 29 29 28 28 29 30 27 28 29 28 30 32 32 31 30 28 25 23 21 20 20 26 27 26 26 26 25 25 23 16
37 34 32 29 25 23 24 26 27 27 27 26 26 28 29 27 27 28 27 27 24 29 30 28 31 33 32 30 30 29 23 22 21 20 23 27 27 26 26 25 25 25 22 14
36 33 28 25 25 27 28 29 28 27 27 27 23 21 21 22 24 26 25 29 29 29 29 29 31 33 32 30 29 28 25 23 23 22 27 26 27 26 25 25 25 25 24 16
25 25 26 28 30 28 28 28 27 28 27 24 21 25 24 23 24 26 29 28 27 27 27 30 32 33 31 27 25 21 18 17 23 27 24 19 23 26 26 26 26 26 25 22
27 28 27 26 27 25 26 25 27 30 30 25 21 22 24 21 25 29 29 28 29 29 29 31 33 32 29 27 25 23 15 16 20 25 16 17 19 26 26 25 25 25 25 25
26 27 26 27 25 23 24 24 22 24 27 25 27 27 24 25 23 24 28 28 27 25 29 33 33 33 32 28 24 20 18 16 21 26 17 19 17 21 26 26 26 23 22 22
28 27 26 25 24 27 27 28 31 31 30 31 31 31 30 27 25 28 30 29 29 32 30 33 32 32 32 29 29 29 21 22 25 27 15 17 21 17 21 26 25 25 25 23
29 29 28 26 25 28 30 32 31 31 31 31 27 31 31 30 29 30 28 27 29 31 31 32 33 33 32 32 30 29 27 25 21 19 21 22 25 27 26 25 25 25 25 25
30 30 28 27 27 31 30 30 28 28 29 28 32 33 31 30 29 29 30 31 31 31 32 33 33 32 32 31 30 28 24 26 26 23 22 19 25 28 28 27 26 25 26 26
28 29 28 26 28 30 30 31 30 28 28 32 31 28 27 26 27 31 33 33 32 32 32 33 32 32 32 32 30 28 27 28 27 27 26 26 26 28 26 26 28 28 26 26
29 29 30 30 30 30 29 28 29 28 25 23 22 21 21 23 30 32 32 32 33 33 32 33 33 33 32 32 30 29 29 29 29 29 28 26 26 26 26 26 27 27 27 27
29 27 28 29 29 28 26 27 27 28 31 32 30 25 26 32 29 29 31 32 32 33 33 33 33 32 32 32 32 31 30 30 30 30 28 27 26 25 26 27 26 26 25 25

GFSNGP_sfc_dewp_006.txt.gz
Dewpoint
28 30 28 26 26 26 25 28 25 26 28 35 35 36 37 38 37 36 35 35 34 34 30 23 23 23 23 25 26 27 27 27 32 38 36 35 36 37 37 38 36 27 24 24
27 34 34 27 27 28 27 25 25 32 33 36 36 38 37 36 35 35 35 34 34 32 26 23 22 21 22 23 25 27 26 31 36 37 37 37 36 36 37 37 26 23 23 25
25 32 30 22 27 30 28 32 28 25 34 36 36 37 36 35 34 34 34 33 32 31 23 22 21 21 20 21 24 26 27 32 33 37 36 37 37 37 37 30 27 23 23 24
20 21 11 29 32 31 35 36 36 35 35 35 37 37 35 34 34 34 33 32 31 22 20 20 19 19 21 21 23 25 31 31 32 33 34 34 35 34 34 28 25 22 24 25
18 21 19 25 30 30 27 35 38 37 37 36 37 35 34 35 34 33 32 27 24 21 20 19 18 19 21 22 23 24 30 31 32 33 33 32 33 33 34 28 21 25 25 25
26 12 8 23 34 35 33 28 39 39 37 36 34 28 32 37 36 32 25 24 21 19 18 18 18 19 21 22 24 25 31 31 32 33 33 33 33 32 30 21 25 25 25 25
23 15 23 28 34 36 26 25 40 39 38 37 34 33 35 38 36 26 24 21 21 19 18 19 20 22 23 23 24 26 30 31 32 32 31 31 31 25 21 25 25 25 23 24
23 18 20 33 34 28 32 39 41 40 39 38 37 37 38 34 26 24 19 19 19 20 20 22 22 23 22 23 25 28 29 29 28 28 27 24 24 23 24 24 23 21 15 17
30 29 32 35 35 39 42 41 41 39 39 38 37 37 29 27 23 20 18 18 19 19 21 23 24 24 22 25 28 28 28 28 27 27 27 26 23 21 22 22 20 20 21 14
32 35 36 37 43 44 43 42 42 40 40 39 37 30 25 23 21 19 18 18 19 22 23 25 25 25 26 28 28 28 27 27 27 27 27 26 23 23 22 19 18 22 20 17
32 35 40 42 42 43 42 42 41 41 40 39 27 23 22 21 21 21 20 22 23 25 26 26 27 29 29 30 30 27 28 28 27 26 26 26 22 23 24 21 21 19 18 17
31 35 36 38 43 42 41 41 42 40 25 24 23 21 21 22 23 23 24 25 25 26 27 27 28 27 29 31 31 30 28 28 27 25 23 25 25 24 27 26 25 25 23 16
37 40 42 42 43 42 41 40 35 27 23 22 23 23 23 23 24 27 25 25 26 27 27 29 27 28 30 31 32 32 32 31 28 25 24 23 21 22 17 22 28 28 25 23
42 43 41 42 41 41 31 28 27 23 24 24 24 25 25 24 26 26 25 26 28 27 29 28 28 28 30 32 30 28 29 28 26 24 20 20 16 22 25 20 16 17 23 25
44 41 41 41 36 30 24 23 23 23 24 24 26 25 25 25 27 27 28 28 28 29 28 28 28 29 30 32 31 30 31 26 24 17 18 18 18 19 22 23 20 20 17 24
41 39 40 38 25 23 23 25 24 25 24 23 23 24 25 29 29 28 28 28 27 27 28 27 27 29 32 33 31 29 29 25 18 19 22 23 18 19 23 22 19 19 17 14
37 35 32 29 27 26 26 27 26 26 25 24 23 25 27 26 25 27 27 26 26 28 28 28 28 30 31 33 32 29 28 25 25 26 26 25 19 20 23 22 18 20 18 12
32 32 30 30 28 29 30 28 27 25 25 25 20 17 16 17 21 23 24 24 27 28 28 28 29 30 32 33 31 28 27 25 24 25 19 15 18 20 20 18 18 18 18 18
31 31 30 27 28 26 25 26 26 26 24 22 19 21 20 22 22 24 24 22 26 26 26 28 29 30 32 33 29 21 17 14 15 19 24 18 11 23 25 21 17 19 17 16
27 28 27 25 26 24 24 23 22 26 28 24 17 15 22 23 21 22 23 24 27 26 25 27 30 30 31 31 31 27 17 12 15 17 13 11 8 18 25 21 20 15 12 14
27 27 26 26 26 24 23 22 19 23 26 27 29 28 28 29 28 21 21 25 27 24 27 31 28 31 33 32 31 26 20 18 14 17 21 23 11 13 23 24 19 15 11 11
28 27 25 24 22 25 24 23 28 30 30 30 30 30 29 30 30 21 21 26 29 26 30 30 30 31 32 32 31 30 29 27 23 22 22 17 14 16 18 22 21 23 20 17
28 28 27 25 24 26 27 27 26 26 26 27 30 27 26 30 30 28 28 27 27 30 31 31 31 32 32 32 32 30 29 27 26 26 23 21 19 17 21 25 25 25 25 25
30 30 28 26 23 25 27 29 27 27 25 27 26 29 31 30 30 27 28 26 28 31 32 32 32 32 32 32 32 32 30 29 28 27 25 24 24 23 21 23 24 25 23 22
27 28 26 24 27 28 29 30 28 27 27 27 27 31 31 31 30 27 26 29 31 31 31 32 32 32 32 32 31 30 29 29 29 28 27 27 27 27 26 25 26 27 26 25
29 29 29 29 29 29 29 27 25 24 27 27 30 30 30 29 27 30 30 30 31 31 30 30 31 32 32 32 32 32 31 30 29 29 29 29 29 28 28 27 25 25 27 27
28 25 27 28 28 28 24 29 30 29 24 24 25 23 26 29 31 30 28 29 31 30 30 29 28 29 29 30 31 31 32 32 31 30 30 30 30 29 28 27 26 25 27 27

GFSNGP_sfc_dewp_012.txt.gz
Dewpoint
30 30 28 25 23 29 25 25 22 23 23 25 33 35 36 37 36 35 34 34 33 32 27 23 24 24 23 23 24 25 24 25 29 32 33 34 35 35 35 35 36 37 33 26
28 31 30 26 24 25 27 26 28 28 27 32 36 37 37 36 36 35 34 33 33 32 28 24 23 22 21 22 23 25 25 25 30 32 32 33 34 34 34 35 34 34 28 27
13 27 23 16 22 24 25 26 26 26 27 36 36 37 37 36 35 35 34 32 32 32 30 25 23 22 20 21 23 24 25 26 30 32 32 32 32 33 33 33 32 31 27 23
18 18 6 19 27 28 28 30 32 32 33 36 36 37 37 36 36 35 33 31 31 32 30 23 22 20 21 21 22 23 25 26 30 31 31 31 32 32 31 32 31 29 24 24
16 17 16 16 30 32 29 26 35 34 35 36 36 35 35 36 36 35 34 33 32 29 24 20 20 19 19 21 22 23 24 25 28 31 30 31 31 30 29 29 27 25 25 25
18 9 5 18 27 33 30 26 36 36 35 36 35 30 34 36 36 34 33 30 24 21 18 18 18 20 21 22 23 24 25 26 29 30 29 28 27 27 28 22 23 25 25 24
19 11 19 23 32 33 25 25 37 36 36 36 34 36 35 36 35 34 26 19 20 19 19 21 22 23 22 23 24 25 26 28 28 28 28 26 26 25 23 23 25 23 24 23
21 14 14 28 32 28 32 33 37 37 37 36 36 34 36 37 30 20 19 18 19 20 21 23 23 24 25 25 26 27 28 28 28 28 27 26 26 23 24 24 22 21 16 18
24 24 27 31 33 34 36 34 38 38 39 38 37 37 38 29 22 19 18 18 20 21 22 23 25 26 26 27 28 28 29 29 28 28 27 27 25 22 22 21 18 19 21 16
29 29 31 33 34 37 39 38 39 40 40 39 38 38 31 22 20 19 19 20 21 22 22 24 26 27 28 28 28 29 29 28 28 27 27 27 24 22 21 19 18 21 20 19
30 33 34 35 38 38 40 41 41 41 40 39 38 31 25 21 21 20 21 22 22 23 24 25 26 28 28 28 28 29 30 30 29 28 29 27 22 23 23 22 22 20 20 18
29 31 31 31 34 40 41 42 42 40 39 35 32 25 23 23 23 23 23 23 22 24 26 26 27 28 28 28 28 28 30 30 29 29 31 27 24 24 26 27 27 28 27 19
31 33 35 35 39 41 41 42 42 37 30 25 25 25 25 24 27 25 24 24 24 26 27 28 28 28 27 28 28 30 31 31 30 30 30 25 24 23 20 22 25 27 28 29
39 39 38 39 40 41 41 38 29 25 25 25 26 27 27 26 25 25 25 26 27 28 28 28 27 26 27 27 28 30 31 30 28 28 27 27 25 24 20 16 19 16 21 26
39 41 39 40 31 26 26 25 25 26 28 29 31 30 27 22 23 25 27 28 28 28 28 27 26 26 26 28 29 30 32 31 30 28 27 26 24 20 18 17 20 17 14 19
40 40 35 27 24 26 28 31 32 32 32 32 31 26 24 25 27 28 28 28 27 26 27 23 23 26 27 28 30 31 33 31 29 27 25 23 19 18 19 19 21 19 12 14
34 28 27 31 34 34 34 33 32 32 34 31 26 25 26 26 25 26 27 25 21 21 23 22 24 27 28 29 31 31 32 32 29 26 25 26 25 22 19 17 20 19 14 9
34 34 35 34 34 34 33 33 32 31 27 25 25 23 22 22 24 24 22 20 17 21 23 25 25 26 28 30 30 29 30 30 29 27 27 27 25 23 19 16 17 17 19 9
36 36 36 36 36 34 31 29 28 28 26 25 24 24 23 23 22 24 20 16 16 20 25 24 25 25 28 29 28 28 30 30 29 26 27 25 17 17 17 15 15 16 18 17
36 35 31 29 29 28 28 27 27 27 28 25 22 25 25 22 17 17 19 25 25 25 25 25 24 24 28 29 28 30 31 30 29 26 23 20 15 14 14 13 16 18 18 17
27 28 28 28 27 27 26 25 24 25 26 25 26 25 27 27 28 28 27 27 27 23 25 23 25 26 28 28 29 31 31 31 30 26 24 22 22 21 21 19 20 21 21 21
27 27 26 26 25 26 26 25 27 26 24 20 22 23 25 29 28 27 30 29 30 25 23 22 25 24 27 25 30 31 31 31 30 28 26 26 26 26 25 25 24 25 25 23
29 28 27 22 22 25 25 23 23 24 23 23 22 22 21 27 28 28 28 27 29 23 21 23 27 29 25 30 30 31 30 29 30 30 28 27 27 28 27 27 27 26 26 25
29 28 27 24 23 25 27 28 27 26 20 23 23 21 21 22 23 28 29 27 20 26 28 28 29 24 27 28 29 29 29 30 29 28 28 26 28 27 27 27 27 27 27 27
27 27 26 25 26 27 27 28 26 25 26 28 29 29 26 25 30 29 29 28 28 29 27 24 25 21 20 13 12 15 16 18 18 17 18 18 22 26 27 27 26 26 27 27
28 27 26 27 27 26 26 26 25 26 27 27 28 29 29 27 24 26 29 28 28 26 24 20 14 11 9 7 7 5 7 9 9 9 7 8 10 12 14 17 22 28 27 27
26 24 24 23 23 23 22 22 23 24 25 27 28 29 29 29 30 30 30 29 21 22 18 15 10 10 8 7 7 7 6 4 3 6 6 8 8 8 9 10 11 15 25 28

GFSNGP_sfc_dewp_015.txt.gz
Dewpoint
30 30 28 25 26 28 24 26 27 25 24 25 30 35 36 38 37 36 35 35 34 33 29 25 26 28 30 27 26 26 26 25 28 31 34 34 34 34 35 36 36 38 37 32
30 30 29 27 26 26 28 28 26 27 27 29 33 36 37 37 36 35 35 35 34 33 30 26 25 29 27 25 25 26 26 27 28 30 32 34 34 34 34 34 34 35 32 32
21 26 23 24 25 25 26 28 29 28 28 35 35 36 37 37 37 36 36 35 34 34 33 28 28 28 25 24 24 25 26 26 28 30 31 33 32 31 31 32 33 34 34 28
27 23 20 22 29 27 27 27 27 29 31 34 35 37 37 38 37 37 36 35 34 34 34 33 27 25 25 21 22 24 25 26 27 28 30 32 31 30 30 31 33 34 30 26
28 21 20 18 23 30 31 25 32 30 33 36 37 37 38 38 38 38 37 35 33 33 32 25 23 22 21 22 23 24 24 25 26 28 30 30 29 29 29 29 28 26 26 26
24 23 19 22 21 35 31 29 32 35 36 37 37 38 35 39 39 38 36 34 31 25 21 21 21 23 24 22 23 25 27 27 28 30 30 29 29 28 28 28 24 25 26 25
21 28 24 24 30 33 27 28 35 37 37 37 37 40 37 38 38 36 33 22 22 21 21 22 24 24 22 24 25 27 27 28 28 29 29 29 29 28 27 25 26 28 26 25
23 23 23 28 33 33 36 36 36 38 38 39 39 37 36 37 32 26 21 20 21 22 23 24 24 24 23 24 27 27 28 29 30 29 29 27 28 28 25 26 26 27 28 26
27 29 31 31 37 36 36 36 37 39 39 39 39 36 37 32 25 20 19 19 21 21 22 23 24 25 25 27 28 28 29 30 30 30 29 28 28 27 25 24 25 25 23 26
32 31 30 32 34 35 36 38 38 39 40 40 39 38 35 24 21 19 19 19 21 20 20 22 25 26 28 29 28 29 29 30 31 29 29 29 28 24 23 25 25 24 26 25
32 33 34 33 36 38 38 40 41 41 41 41 40 38 30 23 21 21 23 26 21 21 23 23 26 27 29 28 29 29 29 27 27 29 27 28 30 25 24 24 25 26 25 26
34 34 34 34 33 37 40 40 42 42 41 39 37 31 24 23 25 26 29 23 21 23 24 25 27 28 28 28 29 30 29 30 31 31 29 30 30 27 27 28 28 28 28 28
34 35 35 37 36 39 40 42 42 41 36 29 25 25 27 28 33 34 24 23 23 24 26 28 28 27 28 28 29 29 30 30 31 31 30 30 30 30 28 28 26 27 28 29
39 40 39 40 40 40 35 28 28 27 27 29 30 32 33 34 30 25 25 25 28 28 28 29 28 27 28 28 28 29 30 31 32 32 32 31 31 31 30 29 28 28 28 25
40 42 40 31 28 27 28 30 32 34 35 35 36 36 36 30 25 26 30 30 29 28 28 27 26 26 27 29 28 28 30 31 32 33 33 32 30 29 30 29 27 27 28 25
33 28 29 29 30 31 33 35 34 34 35 35 35 33 31 27 28 30 30 29 28 29 28 28 27 27 29 28 28 30 30 31 30 31 32 32 30 28 28 28 28 27 27 28
32 31 33 34 34 35 35 35 34 34 35 35 33 30 27 29 29 29 28 29 29 29 28 27 28 27 28 29 29 28 30 30 30 32 32 30 30 30 28 29 27 27 27 31
35 35 36 36 34 35 35 35 34 34 32 28 28 28 28 28 29 29 28 27 25 26 28 29 29 28 28 29 30 30 30 30 30 30 31 31 30 30 31 29 27 27 27 29
35 35 36 35 36 35 33 32 30 29 29 29 29 29 28 28 27 27 28 25 25 26 29 30 28 29 29 29 30 31 31 32 31 29 30 30 30 29 30 29 28 27 26 27
32 31 30 28 29 30 30 30 29 29 29 28 27 27 28 28 26 26 26 26 28 29 30 29 28 29 30 29 29 30 32 31 30 30 31 30 29 28 29 26 26 27 28 27
27 28 28 28 28 27 27 27 26 29 28 26 27 28 27 28 30 30 30 29 30 30 30 29 29 29 29 29 30 31 30 30 31 31 32 31 30 28 28 29 29 28 28 29
28 29 27 26 25 28 27 27 28 28 27 26 25 24 24 27 29 30 30 30 32 31 31 31 29 28 28 29 30 30 30 31 32 32 32 31 30 30 30 30 30 31 31 30
30 29 28 27 27 28 28 28 27 27 26 26 26 27 27 28 29 28 29 31 31 32 31 31 30 28 28 30 32 31 31 30 29 31 31 30 30 29 29 30 31 31 31 31
29 29 28 27 26 27 26 26 27 28 26 28 29 29 28 27 29 30 31 31 30 30 31 32 31 30 27 28 24 23 23 22 21 21 20 18 20 20 21 25 27 28 29 29
28 28 27 26 25 24 23 22 23 24 24 25 26 27 27 30 29 29 30 30 31 31 31 30 23 20 22 20 18 17 16 16 15 14 15 15 14 15 16 17 17 19 20 21
25 24 23 23 21 20 18 18 19 21 22 23 23 26 27 28 28 28 30 30 31 30 28 22 19 18 17 15 14 13 13 12 12 11 11 11 12 12 12 12 12 13 15 17
22 19 18 19 17 15 15 14 15 16 18 19 18 20 21 25 25 24 26 28 31 26 20 17 15 13 12 12 10 10 10 10 8 7 8 8 8 8 8 9 10 12 12 14

GFSNGP_sfc_dewp_018.txt.gz
Dewpoint
27 28 27 25 26 27 23 24 25 17 18 14 21 25 29 36 38 39 39 38 37 36 34 30 28 28 37 33 34 28 26 24 26 29 30 30 32 30 32 32 31 31 32 32
30 30 28 26 25 25 25 24 25 22 23 23 26 30 33 36 37 37 38 37 37 37 35 31 28 32 32 33 30 27 26 26 27 28 29 30 30 31 31 30 30 30 30 32
23 27 27 32 28 24 24 27 27 26 25 27 30 32 32 36 37 37 37 37 37 37 35 32 29 32 31 30 27 26 25 25 26 28 28 29 28 28 28 29 30 30 31 33
32 29 30 17 25 24 24 24 23 25 24 27 28 34 36 36 37 38 37 37 38 37 35 33 29 30 30 25 24 24 24 25 25 25 25 26 28 28 30 29 29 29 29 29
36 24 21 11 19 22 26 19 24 24 24 27 35 37 37 38 39 39 39 39 39 37 35 33 30 27 25 23 22 23 22 21 22 26 26 26 26 29 30 29 29 28 27 28
31 35 32 23 25 34 32 25 27 31 33 35 36 38 26 39 39 40 39 39 36 33 31 27 24 24 23 23 23 19 22 23 24 24 25 26 27 28 30 30 27 25 26 29
32 36 28 24 25 34 24 24 33 35 36 38 37 35 38 38 40 40 39 37 33 28 25 25 24 24 22 20 17 22 24 24 24 25 26 27 29 30 29 28 26 30 29 29
31 35 30 26 33 32 35 37 36 36 38 40 40 40 38 38 39 39 36 30 26 25 24 24 24 23 15 15 22 24 25 25 26 28 28 26 30 30 30 28 27 29 33 31
30 31 29 31 34 36 37 38 38 38 37 40 40 40 38 37 36 34 28 24 22 23 24 25 20 19 17 20 25 26 27 27 28 29 28 28 29 29 28 27 27 27 26 28
33 28 30 31 33 33 34 36 36 36 37 38 40 39 39 36 31 28 23 19 20 27 32 21 21 22 24 26 27 27 27 28 28 27 27 28 29 28 28 27 27 25 26 25
33 33 32 31 33 35 35 37 39 39 40 42 42 41 39 33 28 23 23 30 33 29 19 19 23 24 25 26 27 26 27 27 27 28 27 27 27 28 30 27 27 27 27 26
35 33 35 34 35 38 39 39 41 42 42 41 41 40 36 27 24 31 36 33 26 23 22 22 25 27 28 28 27 30 29 29 29 30 29 28 27 28 29 28 28 28 28 30
36 38 39 40 40 41 42 38 36 37 36 32 30 28 29 34 37 36 35 29 24 23 27 29 30 30 28 28 30 30 29 29 29 29 29 29 29 29 29 30 29 29 29 29
41 42 41 37 36 34 33 34 35 33 33 34 35 37 36 34 33 31 29 26 29 30 31 31 31 28 28 28 29 29 29 30 30 30 31 31 31 31 30 30 30 31 30 28
35 39 36 33 33 33 35 35 36 36 36 35 35 35 34 32 30 31 31 31 32 32 31 29 27 25 26 30 29 29 29 29 32 33 31 31 32 32 32 30 30 29 28 27
34 34 34 33 34 36 36 36 35 35 34 33 33 33 33 32 28 27 30 32 32 30 29 33 32 29 30 30 29 28 29 30 30 30 30 30 33 31 30 31 31 30 28 27
35 34 34 34 35 34 34 33 31 28 32 35 36 34 32 29 31 29 30 31 34 33 34 34 32 29 30 30 29 28 29 29 30 31 30 29 31 31 30 32 32 31 32 34
37 37 36 34 33 32 32 34 36 34 32 31 33 33 32 32 33 34 34 34 32 32 32 33 33 31 30 31 31 31 31 32 32 32 31 31 29 31 32 32 32 32 32 32
34 34 33 32 33 33 30 30 32 31 33 33 32 32 32 32 33 32 32 31 30 30 31 34 30 30 31 31 31 31 32 33 32 31 31 30 31 31 32 33 33 33 32 32
30 28 26 28 31 34 33 33 34 32 30 32 32 33 33 33 32 32 32 30 32 32 34 32 32 33 32 30 30 28 34 33 29 30 32 33 33 32 32 31 32 32 32 33
29 31 34 32 33 33 32 32 32 32 32 32 31 31 30 32 32 32 32 31 31 36 33 32 32 32 30 29 28 35 33 32 32 32 32 33 32 33 33 32 32 32 32 32
32 32 33 33 33 32 33 32 31 31 30 30 30 29 29 29 29 30 33 32 33 32 33 34 33 32 32 30 32 33 31 31 32 32 32 32 32 32 32 32 32 32 32 32
31 31 32 32 31 30 30 28 27 28 28 28 27 27 26 26 26 27 26 29 31 31 32 33 33 32 32 32 33 33 32 30 29 28 28 28 27 27 27 28 29 31 31 31
31 30 30 30 28 26 24 21 23 25 26 27 28 28 27 28 29 29 30 28 29 31 32 33 32 31 31 32 32 30 28 26 25 24 23 22 24 23 23 23 23 24 24 24
28 26 26 25 22 20 18 17 19 19 20 21 21 21 23 23 25 28 29 28 26 28 31 31 27 24 28 27 25 23 24 23 21 19 20 20 19 19 19 20 19 19 19 20
24 22 22 20 18 17 17 16 18 18 18 19 19 21 22 22 23 24 25 24 25 22 22 21 19 21 21 19 19 18 19 18 17 16 15 16 16 15 15 15 16 16 17 18
19 18 18 17 16 15 16 15 17 17 18 19 17 20 19 20 20 18 17 18 18 18 18 18 17 14 15 14 15 14 15 14 11 10 12 11 11 12 12 12 13 14 14 16

GFSNGP_sfc_dewp_021.txt.gz
Dewpoint
26 27 25 23 21 23 22 23 26 21 13 11 14 17 21 24 30 32 37 40 41 42 40 40 39 36 34 36 39 34 28 25 27 28 30 31 30 30 30 31 29 28 29 29
32 28 27 24 22 19 19 20 18 17 17 18 21 20 24 25 30 32 35 39 40 40 39 38 36 34 32 38 36 33 28 28 28 28 29 30 29 30 30 29 28 29 28 28
23 26 27 31 30 24 19 20 22 24 22 20 24 25 26 26 30 33 35 38 39 39 39 38 35 33 32 36 33 30 28 26 26 27 28 27 26 24 26 28 30 29 28 29
30 31 28 15 21 18 21 19 18 18 19 19 22 29 31 31 31 34 36 37 39 39 39 39 37 32 36 31 30 28 26 26 26 26 22 22 23 24 26 29 29 29 28 28
37 23 20 17 15 19 21 19 20 22 20 20 27 34 32 33 34 33 35 37 39 39 39 39 35 33 31 30 26 27 26 24 21 21 22 23 23 25 27 28 29 28 27 27
31 34 31 27 24 30 28 22 24 24 25 25 30 34 26 33 33 34 36 37 38 39 39 37 34 31 27 29 30 24 22 20 21 21 21 22 24 26 28 29 27 26 25 26
33 36 30 23 24 31 23 30 32 32 30 32 31 32 39 38 34 36 36 37 39 39 36 34 27 28 28 26 26 20 22 21 21 22 23 25 27 27 29 28 29 30 30 30
36 36 30 24 29 28 37 34 32 34 34 37 39 38 38 39 37 37 37 38 37 34 30 27 26 32 33 28 20 22 24 24 24 24 25 26 28 29 29 29 30 30 34 31
30 32 31 29 29 30 34 35 35 35 34 36 37 36 36 37 38 37 37 33 30 27 26 32 35 32 22 21 26 26 27 26 26 27 27 27 28 28 29 28 29 29 29 31
32 25 26 28 30 31 32 34 35 35 37 38 38 39 39 39 37 35 29 24 25 32 35 33 29 21 23 27 29 27 26 26 27 28 26 27 26 26 28 30 30 28 28 28
32 30 28 29 32 35 37 39 39 39 40 42 42 41 40 39 33 28 27 33 34 31 27 24 25 27 28 28 28 26 27 28 28 31 30 28 26 27 29 30 30 29 30 30
36 36 38 35 38 42 41 41 41 41 41 38 39 40 36 28 27 34 34 29 27 29 27 26 28 28 28 29 30 30 30 30 32 31 30 28 26 27 30 31 31 28 28 30
37 41 41 41 38 37 37 36 35 35 34 33 32 31 34 37 36 35 33 31 29 27 28 29 30 31 32 31 30 30 30 31 30 30 30 28 29 30 29 30 31 30 30 30
39 41 41 37 36 37 37 37 38 37 36 36 35 35 34 34 33 32 31 30 28 28 30 30 31 31 31 29 29 30 30 30 30 30 31 32 30 32 32 31 33 33 33 30
36 37 37 36 37 36 37 36 35 34 34 33 33 33 31 30 30 30 30 30 30 30 29 29 28 27 25 29 29 30 30 30 31 34 33 32 32 31 32 32 32 32 31 30
36 36 36 37 35 34 34 34 32 32 32 32 31 31 31 30 27 25 26 28 31 29 29 32 34 31 31 29 29 29 30 31 31 31 32 32 31 31 30 33 32 31 32 31
36 35 35 34 33 33 33 32 30 33 33 32 31 31 30 30 30 28 29 31 36 33 35 35 35 31 32 30 30 30 32 33 32 33 32 32 33 31 31 31 31 31 32 34
37 36 34 33 32 31 32 33 31 30 30 31 32 32 32 32 32 34 34 35 33 33 34 34 33 33 33 32 32 33 33 33 33 33 33 33 33 33 31 31 31 31 32 33
34 32 32 31 31 30 30 31 33 33 33 33 32 32 32 32 34 34 34 33 32 32 31 34 31 32 32 31 31 33 34 34 33 31 32 31 33 32 32 33 33 33 33 33
30 28 28 30 33 35 32 33 34 33 32 32 32 32 32 33 32 32 32 31 32 33 34 34 33 32 31 31 31 32 34 36 32 31 33 32 33 33 33 32 33 33 33 33
30 31 33 33 33 33 33 33 33 32 30 31 30 29 28 29 28 29 29 27 27 32 32 32 32 34 34 33 34 35 36 35 33 33 33 32 32 33 33 33 33 32 32 32
33 32 34 34 34 31 31 30 30 29 29 28 29 29 28 27 29 30 30 29 29 28 28 30 30 29 31 32 32 33 33 33 33 33 33 31 31 30 29 30 30 31 31 32
32 32 32 32 32 30 28 27 30 28 27 27 28 26 25 25 24 24 24 24 26 26 26 29 29 29 29 31 33 32 32 32 32 30 28 27 26 26 26 26 26 26 26 26
32 31 30 29 29 25 22 20 21 23 26 26 27 26 22 22 24 22 24 24 24 25 27 24 22 22 25 28 29 27 28 28 27 26 25 24 24 23 23 23 23 23 22 22
29 28 27 26 22 21 18 17 18 18 18 18 19 18 20 20 22 22 23 21 19 19 21 20 18 17 22 21 21 21 22 22 21 21 20 20 20 20 19 20 19 18 18 20
27 25 23 19 19 18 18 16 19 19 18 20 19 22 22 21 21 19 20 19 18 18 18 19 19 17 17 16 17 17 17 17 15 15 15 16 16 14 14 14 14 14 15 17
20 22 20 20 17 16 18 17 19 19 20 20 18 21 19 19 19 18 18 18 17 17 17 17 17 15 13 13 14 14 14 13 13 12 12 12 11 11 11 10 11 13 14 14

GFSNGP_sfc_dewp_024.txt.gz
Dewpoint
24 23 25 27 23 21 20 24 27 27 20 18 18 22 23 26 30 30 30 37 39 42 43 43 44 43 40 39 40 40 38 33 34 34 33 34 36 35 35 35 33 33 32 32
36 29 27 26 24 23 19 18 19 18 19 19 21 25 26 26 24 30 30 31 37 41 44 43 42 43 40 38 39 42 38 34 33 34 32 35 35 34 35 34 32 32 32 32
33 27 27 28 31 24 21 20 21 23 25 23 21 21 28 30 29 31 32 33 36 42 43 44 42 42 39 37 41 40 35 33 33 33 32 34 30 29 29 31 33 33 33 32
37 33 27 19 20 18 19 18 16 14 18 19 28 29 29 28 31 32 36 36 38 40 42 43 42 40 38 35 38 36 32 30 32 32 29 28 29 28 30 32 32 33 32 32
37 30 25 21 19 20 20 20 22 22 22 21 26 29 31 33 35 35 36 36 37 39 41 42 41 39 35 36 32 30 32 32 31 27 26 27 27 29 31 31 32 32 31 30
35 35 31 31 25 27 25 27 27 27 29 29 28 38 35 38 37 38 34 35 36 39 40 41 40 36 32 32 33 33 30 27 26 25 27 27 29 30 31 31 31 31 30 31
36 37 36 26 26 29 28 34 33 33 33 34 34 39 41 41 39 37 35 37 40 40 36 29 30 32 31 33 32 32 32 27 27 29 29 29 30 30 31 31 31 31 29 30
40 35 32 25 28 32 39 40 36 35 36 39 40 40 40 37 37 37 37 37 33 29 31 34 35 35 33 32 30 31 29 29 29 30 28 26 31 31 31 31 31 31 31 31
36 38 36 31 32 32 36 36 37 38 36 38 40 37 37 38 39 37 33 27 27 32 35 34 34 33 31 29 28 29 31 31 31 29 29 29 29 29 29 30 31 31 31 32
38 27 27 29 30 31 34 38 37 38 39 41 41 43 41 40 37 31 25 27 34 34 32 31 29 29 29 30 31 31 31 30 29 30 29 29 29 28 29 30 30 31 31 30
34 32 31 31 37 40 41 41 41 42 41 39 40 40 37 30 30 30 34 32 31 30 31 33 32 30 30 31 31 29 28 29 31 32 32 31 29 29 30 29 30 30 30 32
41 38 39 39 40 40 39 37 37 36 34 33 32 29 31 34 33 29 29 32 32 32 31 31 31 29 29 30 31 31 31 32 33 32 32 30 29 29 30 31 31 31 30 29
38 40 41 40 38 37 37 37 37 37 37 36 36 36 35 34 34 34 33 32 31 31 30 29 30 31 31 32 33 31 31 31 32 31 31 31 31 30 30 31 32 32 31 31
39 41 39 38 37 38 37 36 36 35 34 34 34 34 34 34 33 33 32 31 29 28 29 30 31 31 32 32 31 31 31 31 30 31 32 31 31 30 28 27 27 29 32 31
37 38 38 38 37 37 36 34 33 32 32 31 32 32 31 29 29 29 29 29 29 29 27 27 28 29 28 33 30 31 31 31 32 33 32 32 31 30 29 30 29 29 30 30
36 37 37 36 34 34 33 31 31 32 33 33 32 30 28 27 25 25 26 32 32 32 32 31 31 32 33 32 30 29 31 31 31 32 32 32 31 31 30 30 29 30 31 30
37 35 35 34 33 32 32 33 32 28 28 29 31 32 32 32 31 32 32 33 33 32 32 32 32 32 33 33 32 31 32 33 32 33 34 33 32 30 30 31 31 28 29 30
37 36 35 34 33 33 30 30 31 31 31 32 31 31 30 30 29 31 31 31 31 32 32 34 34 33 33 33 33 32 32 32 33 33 33 31 31 30 29 29 29 29 29 29
34 33 33 31 30 32 32 32 32 32 31 30 31 30 30 29 28 28 28 29 29 29 31 31 30 31 32 32 31 31 31 31 31 32 32 29 30 28 28 29 29 32 31 30
30 30 31 32 33 32 32 32 33 32 31 29 29 28 27 26 27 27 27 27 28 30 27 26 26 26 27 29 30 29 31 32 32 32 32 30 29 29 29 28 31 31 31 31
31 32 32 31 31 31 30 31 29 28 27 25 25 24 24 27 28 25 25 24 28 25 25 23 24 25 25 25 26 28 28 29 29 30 32 31 31 28 27 26 29 29 30 30
32 32 31 31 30 28 29 29 29 27 27 24 23 22 23 23 23 24 23 24 24 22 22 25 23 18 19 21 26 27 27 29 29 29 30 31 30 27 25 26 26 26 26 27
33 32 31 31 30 27 27 27 27 26 23 23 23 23 22 21 22 21 21 22 22 20 20 22 18 15 17 22 22 22 22 23 22 22 23 24 24 24 24 23 23 23 23 22
32 30 29 29 29 27 23 20 22 25 23 24 23 22 21 22 23 22 22 20 18 18 19 21 18 15 16 18 18 17 17 18 16 17 16 18 19 19 19 19 19 18 18 16
30 29 28 28 24 22 20 18 20 20 19 19 20 19 21 22 21 21 21 20 18 18 18 18 17 14 15 15 15 14 14 15 13 13 13 14 14 14 14 14 13 12 12 13
29 27 22 21 20 19 18 18 19 19 18 21 20 22 23 22 21 19 19 18 18 17 17 17 16 16 14 13 13 12 12 11 10 10 10 10 10 10 11 10 9 9 9 10
23 25 22 21 18 18 19 18 20 19 21 20 18 21 21 21 20 18 16 17 17 16 15 15 14 13 13 11 11 11 10 9 7 9 7 7 7 7 6 7 7 8 9 10

GFSNGP_sfc_dewp_027.txt.gz
Dewpoint
32 33 30 28 30 28 24 28 26 27 27 26 24 23 24 28 30 28 31 37 41 41 42 43 44 44 42 42 39 36 36 35 35 36 37 34 35 34 34 33 31 32 33 32
31 31 28 26 27 26 25 25 23 24 24 23 25 25 25 26 25 28 30 31 35 43 44 43 44 44 43 40 39 38 38 38 36 35 34 35 34 32 32 31 32 33 31 31
27 28 24 19 21 25 27 27 25 21 24 28 28 29 28 29 30 30 31 34 37 41 44 44 45 44 40 39 41 41 40 38 36 35 33 32 29 28 28 28 31 32 32 31
27 26 10 22 25 20 23 23 23 22 25 27 26 29 33 31 33 33 34 35 35 37 41 44 45 42 39 39 40 38 34 34 31 31 30 29 28 28 30 32 30 30 31 31
24 25 24 23 27 28 24 24 28 28 28 28 28 30 37 37 36 34 33 33 34 37 40 39 39 37 35 34 34 34 32 28 28 29 29 30 31 32 33 31 30 31 31 31
27 23 17 29 28 29 27 26 33 32 33 33 31 30 37 37 38 37 37 36 30 30 31 31 32 32 31 31 32 32 31 30 31 33 32 32 34 32 30 29 30 31 28 29
25 23 29 34 29 32 19 26 35 34 34 34 34 38 38 39 38 34 32 31 34 34 34 33 33 34 33 33 33 33 33 34 34 33 33 33 31 30 30 30 30 30 30 28
31 29 25 32 30 24 36 35 34 33 34 35 37 38 39 39 33 29 30 34 34 34 34 34 33 33 32 33 33 35 35 34 33 33 32 29 30 30 29 29 28 29 29 29
32 32 37 32 30 34 34 33 36 38 39 41 41 42 42 33 28 30 34 34 32 31 30 30 29 32 31 32 34 34 33 33 32 32 31 29 28 28 28 28 27 28 28 29
31 32 32 31 38 41 41 41 41 38 38 40 40 36 28 29 33 33 33 32 31 30 30 31 32 31 32 32 32 32 31 31 31 30 30 30 30 29 28 25 25 28 27 27
32 33 41 41 41 41 39 39 35 33 33 32 31 32 33 33 31 29 29 30 32 33 33 33 32 31 31 31 31 30 30 30 30 28 29 30 31 30 28 28 28 26 26 27
31 40 39 38 38 38 37 36 37 36 36 36 35 34 32 30 29 30 32 33 32 31 31 31 31 30 30 30 30 30 30 30 28 27 28 29 29 28 30 31 32 32 32 29
40 40 39 38 38 38 37 37 37 36 36 35 35 34 33 33 33 34 33 32 32 31 31 30 29 29 30 31 31 30 29 29 28 29 29 28 26 26 26 28 30 30 30 31
40 39 38 38 37 36 35 35 35 34 34 34 34 34 34 33 33 32 31 31 30 29 29 29 29 29 31 31 31 30 29 29 29 29 28 27 26 28 29 27 25 26 28 30
38 39 38 37 36 35 35 33 32 31 32 32 32 32 31 29 28 29 31 31 30 30 31 31 30 29 31 33 32 30 29 29 29 29 30 31 30 29 29 26 26 27 28 27
37 36 36 35 34 32 31 31 32 32 31 30 30 30 30 31 31 32 32 32 29 28 30 29 31 31 32 33 32 32 31 28 28 30 31 32 31 30 31 29 27 27 27 27
35 34 34 33 32 33 32 30 29 29 29 30 29 29 30 29 29 29 29 28 29 29 31 31 29 27 30 31 32 31 31 30 30 31 31 32 33 32 31 27 27 27 27 28
36 35 35 34 32 30 30 30 30 30 29 29 29 29 28 27 27 26 25 24 21 23 28 28 26 25 26 27 28 30 31 30 30 30 31 32 32 32 30 26 23 23 26 26
34 32 32 31 31 31 31 30 29 29 28 29 28 26 23 21 23 24 23 19 21 23 25 23 24 24 22 21 21 22 23 23 24 26 27 27 28 29 31 26 23 22 28 28
32 33 32 32 32 32 31 30 29 27 28 25 21 19 20 18 17 16 18 22 24 22 21 23 21 18 16 17 18 23 23 24 25 26 28 28 28 28 29 27 23 20 22 28
31 31 30 30 29 28 28 25 25 25 27 21 19 15 14 18 17 13 19 20 21 18 19 21 17 13 14 16 19 19 18 19 20 19 20 21 21 23 25 25 23 22 22 18
31 30 29 28 27 27 26 27 26 24 22 18 12 11 11 19 15 18 15 18 20 13 17 19 17 10 13 14 16 15 14 16 13 14 14 15 17 18 18 19 19 20 19 18
31 30 29 27 25 25 26 24 21 19 16 14 11 13 15 20 20 16 15 19 19 15 17 17 10 8 8 12 12 12 10 12 9 9 9 11 13 12 14 14 13 13 12 13
30 30 29 28 25 24 22 24 23 21 15 20 14 10 19 12 9 19 18 14 8 7 9 13 10 8 3 3 7 10 8 9 7 7 6 7 8 9 10 9 8 9 10 10
29 29 28 26 23 21 20 21 21 20 20 21 19 21 20 20 11 11 8 9 12 10 6 5 7 6 1 -2 1 4 5 7 2 5 4 4 4 5 5 5 6 7 7 8
28 23 21 21 21 19 20 21 19 19 19 14 13 8 12 12 12 11 8 7 9 9 5 -0 -0 1 2 -0 -2 1 -2 4 0 4 3 -0 -0 1 0 2 3 5 6 6
24 22 19 19 19 20 19 18 15 12 10 5 5 6 16 11 5 8 2 0 0 1 -2 -2 -3 0 1 4 -5 -2 -6 -5 -4 3 -4 -8 -3 -3 -2 -0 2 3 4 5

GFSNGP_sfc_dewp_030.txt.gz
Dewpoint
27 31 32 28 29 29 26 27 25 25 26 25 25 24 24 26 28 38 43 42 41 41 42 44 45 45 41 40 42 39 37 35 35 37 37 36 35 34 34 34 32 32 32 33
29 30 27 25 25 26 26 26 28 25 25 27 26 28 29 28 29 29 31 34 38 41 43 44 45 45 44 40 40 39 36 36 37 38 37 37 35 34 30 29 29 31 31 33
26 26 22 22 23 23 25 27 25 22 26 27 29 30 28 31 32 32 34 36 42 43 43 44 45 44 43 42 39 37 38 39 37 35 32 32 31 29 30 31 32 31 31 32
25 22 14 25 26 25 26 25 25 26 26 31 33 35 34 33 32 31 32 34 36 39 44 44 45 43 40 41 42 39 34 33 33 33 31 32 33 34 35 34 32 31 31 32
22 22 24 23 25 23 23 26 29 28 29 29 34 36 36 37 38 37 36 33 32 33 34 34 37 37 35 34 31 29 29 31 32 33 34 36 37 36 34 33 30 30 31 32
27 21 15 25 29 29 29 27 32 33 33 34 32 31 36 38 35 31 33 33 33 33 32 32 32 32 31 31 32 33 33 34 36 37 37 36 36 34 32 30 30 31 30 30
22 20 25 30 31 29 16 21 33 34 33 33 34 36 38 33 33 34 34 33 33 33 33 33 34 34 33 34 34 36 38 39 38 38 37 35 34 31 30 29 28 27 28 29
30 24 21 35 29 24 29 36 34 33 34 37 40 39 33 31 33 33 33 34 33 33 33 33 34 35 35 36 36 37 38 38 36 34 32 31 31 28 28 27 27 27 25 27
30 29 34 32 33 36 36 36 38 41 42 42 41 34 30 32 34 33 32 30 29 29 30 31 32 33 33 35 36 35 33 32 32 32 32 31 28 27 27 27 25 26 27 25
32 34 36 41 42 42 42 38 35 37 39 37 31 31 32 33 33 32 31 30 29 30 32 33 32 31 32 32 31 31 30 30 30 30 29 29 29 29 29 25 25 27 27 26
33 39 40 40 39 38 35 36 34 34 34 34 34 33 32 31 30 30 31 33 33 33 32 31 31 31 30 30 31 29 29 29 29 28 29 29 29 30 29 28 27 26 26 26
30 37 37 38 38 38 36 36 36 35 35 34 32 30 30 31 32 32 32 32 31 32 31 31 30 30 30 30 30 29 29 29 28 27 27 29 28 28 30 31 31 32 32 29
40 40 38 38 37 37 37 36 36 35 34 33 33 32 33 32 32 33 32 31 31 30 30 29 29 29 30 31 31 30 29 29 28 28 28 28 28 28 27 29 31 31 31 31
38 38 37 37 35 35 35 35 35 34 33 33 33 33 32 32 32 31 30 30 29 30 31 30 30 31 31 32 32 31 29 29 28 29 29 29 28 28 28 28 28 25 27 29
38 39 37 35 34 33 33 32 32 31 30 30 30 30 29 30 31 31 31 30 30 30 31 30 29 28 29 31 30 30 30 28 28 31 31 30 31 31 30 30 31 30 28 26
36 36 35 34 33 31 31 31 30 29 29 29 30 30 30 31 30 29 28 28 28 29 31 28 25 24 26 27 27 27 28 27 27 29 29 29 29 30 30 30 30 30 28 28
34 33 33 31 31 31 31 30 29 28 29 28 28 29 28 28 26 26 26 27 27 28 27 24 23 25 25 23 18 19 21 22 22 23 23 24 25 28 28 27 29 30 29 29
35 34 33 32 31 30 30 29 29 29 29 29 28 24 21 21 23 24 24 23 23 23 21 23 22 19 18 18 20 20 21 22 22 23 24 24 25 26 25 26 25 26 29 27
35 34 32 31 30 29 29 28 29 29 29 26 23 22 21 20 23 23 23 20 18 17 19 19 18 15 15 17 19 20 18 17 18 18 19 19 19 20 22 22 24 27 26 25
32 32 32 31 30 29 29 29 28 27 26 23 21 21 21 18 15 17 20 18 16 18 21 16 14 12 13 15 15 15 13 14 12 12 13 12 14 15 16 16 19 20 21 21
30 30 30 30 29 29 27 26 26 25 23 20 19 16 15 18 17 15 17 18 17 17 19 15 14 12 11 11 13 8 9 10 7 8 7 8 10 9 10 12 13 13 13 14
29 28 28 27 26 26 26 26 25 24 20 17 14 12 15 19 15 17 13 16 17 10 16 16 15 5 9 6 11 2 7 9 5 5 4 6 6 5 7 7 7 8 10 11
29 28 27 26 25 25 25 23 22 20 16 15 13 14 18 20 18 13 13 18 18 11 16 9 4 2 1 -2 -3 -5 -2 -2 -4 -0 -0 3 2 2 4 2 3 4 5 6
29 28 26 25 25 24 21 20 21 20 17 18 14 12 18 13 9 17 16 9 3 1 1 0 0 1 -3 -8 -7 -9 -8 -5 -11 -6 -1 -4 -3 -0 -1 -2 0 2 3 5
30 28 25 24 22 21 23 22 20 21 20 18 18 20 19 17 9 9 3 4 8 4 -1 -4 -1 -2 -9 -12 -13 -11 -13 -11 -13 -7 -7 -13 -7 -4 -6 -5 -3 -2 0 2
27 24 22 20 20 20 20 19 18 19 16 12 11 2 11 13 12 8 2 1 3 1 -4 -9 -11 -10 -11 -5 -12 -12 -12 -10 -12 -6 -12 -13 -10 -8 -8 -6 -5 -3 -2 -1
22 21 20 20 20 20 18 17 15 13 9 4 4 5 8 4 -2 1 -7 -7 -7 -8 -11 -10 -12 -9 -10 -10 -7 -9 -12 -14 -14 -9 -18 -20 -16 -11 -10 -7 -5 -5 -3 -2

GFSNGP_sfc_dewp_033.txt.gz
Dewpoint
25 24 30 27 27 30 27 27 25 26 27 27 25 23 24 25 28 36 44 44 43 45 46 47 48 47 46 44 44 44 40 38 39 37 38 37 37 36 36 35 33 33 33 33
29 29 27 25 25 25 26 26 28 26 25 28 27 29 29 29 30 32 35 41 42 42 44 46 46 46 44 43 43 41 40 40 39 39 38 37 35 34 33 33 33 33 34 34
24 26 23 23 24 24 24 26 26 22 24 28 29 29 30 33 33 34 36 38 40 42 42 43 45 45 42 42 41 40 39 40 37 34 32 33 33 34 35 36 37 35 33 31
25 22 16 26 27 25 25 26 26 26 27 31 32 34 34 33 31 33 35 35 34 35 41 44 44 42 41 40 39 37 35 33 33 34 34 35 35 37 38 37 36 35 32 31
23 23 24 24 25 25 24 23 28 28 30 33 35 36 36 37 35 33 33 33 33 33 33 34 34 35 31 31 31 32 32 35 36 37 37 38 37 37 37 37 35 31 31 30
25 19 17 26 27 28 29 25 30 31 31 32 31 29 35 35 33 34 33 33 33 33 33 32 32 32 31 31 32 33 35 37 39 39 38 37 37 37 35 32 30 30 28 28
21 20 24 26 30 26 20 23 33 33 34 34 31 34 35 34 34 34 33 33 33 34 34 33 33 34 34 36 37 38 40 40 39 39 38 38 36 35 33 30 28 27 27 28
25 20 19 31 31 21 27 34 35 34 34 37 37 33 34 34 33 33 33 32 32 33 33 34 35 36 36 36 37 38 39 38 37 37 34 32 31 30 29 28 27 27 25 27
29 28 32 33 29 33 36 34 34 36 39 40 32 32 34 33 33 31 29 28 29 31 31 32 33 35 35 36 35 34 32 31 31 31 31 31 29 28 27 27 26 26 27 26
30 34 35 39 40 39 40 39 39 41 40 35 32 33 33 32 31 30 29 29 31 32 31 31 31 31 32 32 31 30 29 29 29 29 29 29 29 29 28 26 25 27 27 26
34 38 39 38 37 35 35 35 35 35 34 33 34 33 32 31 31 31 32 33 33 32 31 31 31 30 30 30 30 29 29 29 29 28 28 29 29 29 29 29 28 27 27 26
32 39 36 38 37 37 35 35 35 33 33 33 32 30 30 31 32 32 32 32 31 31 31 29 29 29 30 31 30 29 29 29 28 28 28 28 28 28 30 31 31 31 31 29
35 39 38 38 37 37 36 36 35 33 31 30 31 32 32 31 31 32 31 30 29 29 29 29 29 29 30 30 30 30 28 29 29 28 28 28 28 28 29 29 31 31 31 32
37 37 35 36 35 36 35 35 34 33 33 32 32 32 31 30 30 29 29 29 30 30 29 28 25 24 26 29 29 29 29 28 27 27 27 27 27 27 28 28 28 28 30 30
37 38 37 35 34 34 33 33 32 32 31 31 31 30 30 29 28 28 29 29 29 28 25 23 23 24 27 24 21 23 22 22 22 23 24 24 24 23 24 24 25 27 29 28
35 34 34 33 32 32 31 30 29 28 29 30 30 30 30 29 27 27 28 29 27 24 22 20 24 21 21 19 19 19 20 21 20 22 22 22 22 22 23 23 23 23 24 25
34 33 32 31 30 30 30 29 28 28 29 29 28 28 26 25 26 26 26 26 22 21 23 21 18 16 17 17 18 20 19 19 18 20 19 19 19 19 20 20 20 19 23 26
37 35 33 32 31 29 29 29 28 28 28 28 24 22 22 24 24 24 23 22 19 19 19 18 15 13 15 15 17 16 15 16 15 14 15 14 14 16 16 16 17 17 17 17
34 33 33 31 31 30 29 28 28 28 27 24 24 23 23 23 23 21 18 14 12 17 18 15 16 13 11 14 15 13 12 11 9 11 10 8 10 10 10 11 12 12 13 14
32 32 31 29 29 28 28 29 28 27 25 24 24 22 20 18 19 17 16 15 16 19 16 14 12 11 10 10 10 10 8 3 6 6 4 4 5 3 5 7 6 6 7 10
30 30 29 28 28 28 27 26 25 24 24 23 20 19 19 19 18 15 16 16 15 18 16 14 13 12 9 8 10 -1 -0 -4 -4 1 -4 -1 1 -1 0 3 0 1 3 4
29 29 28 27 25 25 26 26 23 22 20 17 16 16 16 17 15 15 12 16 16 11 15 15 13 3 6 3 7 -6 1 -1 -3 -4 -4 -4 -4 -5 -3 -2 -4 -1 0 1
30 29 28 27 25 25 25 23 21 19 17 16 16 17 18 18 17 13 14 17 16 10 14 6 1 -1 -4 -10 -10 -13 -11 -12 -14 -12 -12 -16 -16 -12 -5 -7 -6 -4 -3 -2
28 28 26 25 24 23 22 22 19 19 17 18 16 15 18 14 11 17 15 8 2 -2 -1 -5 -4 -3 -8 -14 -15 -16 -15 -17 -19 -18 -12 -15 -20 -16 -13 -12 -9 -7 -6 -5
27 25 24 23 22 21 21 22 20 20 20 20 20 19 18 16 10 10 4 3 6 2 -4 -9 -5 -8 -15 -17 -18 -18 -18 -19 -21 -18 -20 -23 -18 -17 -16 -15 -12 -9 -7 -7
25 23 21 21 21 21 20 20 19 17 15 13 13 9 9 11 10 8 2 -1 -0 -3 -7 -14 -16 -16 -17 -13 -14 -16 -16 -15 -20 -18 -21 -23 -21 -18 -18 -15 -13 -11 -10 -8
22 22 21 20 20 20 19 19 18 17 13 11 11 10 8 4 -1 -0 -9 -10 -11 -13 -14 -16 -17 -14 -14 -18 -17 -11 -14 -18 -21 -17 -25 -25 -23 -23 -21 -17 -16 -13 -12 -10

GFSNGP_sfc_dewp_039.txt.gz
Dewpoint
26 24 25 25 28 29 27 29 30 28 25 27 29 29 30 30 30 37 43 46 47 49 50 50 50 50 50 48 47 46 44 43 43 43 41 40 39 39 39 38 36 36 36 39
27 28 27 29 27 29 29 28 27 27 27 30 29 28 30 30 38 40 40 42 43 43 46 48 49 49 48 46 45 45 43 41 41 40 39 39 39 38 37 36 39 39 39 39
25 26 26 28 29 27 27 29 30 28 30 30 28 30 33 36 36 36 36 38 39 41 43 44 45 47 46 45 44 43 41 40 39 37 36 37 38 39 39 39 40 39 40 41
29 27 26 27 27 27 29 29 27 27 27 28 30 34 34 34 35 34 34 36 36 37 37 38 40 40 40 39 39 38 37 36 36 37 38 39 39 39 39 40 40 40 40 38
30 26 26 24 26 27 27 23 27 26 27 31 35 35 33 34 34 34 35 34 34 34 35 35 36 36 36 36 36 37 37 37 38 38 39 39 39 40 40 40 40 38 37 37
26 27 25 30 27 29 27 24 29 30 33 35 35 34 34 34 34 34 34 34 34 34 34 34 35 36 36 37 37 38 38 39 39 39 39 39 39 39 38 37 37 36 34 34
26 31 30 30 27 30 26 27 33 33 35 37 33 33 36 34 34 34 34 34 34 34 35 36 37 38 37 38 38 39 40 40 40 39 39 38 37 36 35 34 34 34 32 33
29 32 29 31 27 29 35 33 35 36 38 38 36 35 34 33 33 33 33 34 34 35 36 37 37 37 37 37 38 38 36 34 32 32 31 30 32 32 31 31 31 31 33 32
33 35 38 33 35 34 33 34 36 37 37 37 35 34 33 32 32 32 32 33 34 34 33 33 33 33 31 31 30 29 29 29 30 30 30 29 29 30 29 30 30 30 30 31
35 35 34 35 35 37 35 36 36 37 38 37 35 34 32 31 31 31 32 31 31 31 30 30 30 30 30 30 30 30 30 30 30 29 28 28 27 27 27 28 29 28 29 29
33 34 38 38 39 38 37 39 38 36 36 36 35 32 30 30 31 30 31 30 30 30 30 30 29 29 30 30 30 28 28 27 26 26 25 23 23 25 25 25 27 26 25 27
34 34 36 34 38 38 38 37 37 35 35 35 33 31 30 30 31 31 31 30 29 29 27 26 26 25 25 25 23 23 21 21 22 22 22 20 19 18 24 24 24 25 26 27
35 39 37 37 37 37 36 36 36 35 34 33 32 31 31 32 32 32 29 30 28 25 24 24 21 18 17 20 19 19 18 19 20 20 20 20 20 19 19 20 21 22 21 22
38 38 36 36 36 36 34 34 34 32 32 32 32 32 32 31 30 29 29 28 25 23 24 23 18 15 17 17 17 18 19 20 18 20 20 19 18 18 18 18 18 19 19 19
38 38 38 36 34 33 32 32 32 31 32 32 32 31 30 29 29 29 28 24 23 22 19 15 14 14 16 18 15 15 15 16 18 19 18 18 16 16 16 16 16 15 15 14
36 36 35 34 33 32 32 32 31 31 31 30 30 29 29 29 29 27 23 23 22 19 15 18 15 15 16 16 12 12 15 15 14 15 14 13 13 13 12 12 12 13 12 11
34 34 34 33 32 32 31 32 31 30 30 30 29 29 29 29 27 25 23 21 20 19 17 16 14 13 14 14 10 12 13 12 12 12 11 9 10 11 9 9 10 9 9 10
36 34 34 34 32 31 31 32 31 31 30 29 29 28 28 27 24 23 22 20 19 17 15 13 11 11 11 9 9 11 9 8 9 9 8 8 7 6 6 6 7 6 6 6
34 33 32 32 31 31 30 30 29 28 28 28 27 26 26 25 22 21 21 20 18 16 13 12 14 10 9 11 9 10 7 7 7 6 5 4 5 3 3 5 5 5 4 4
33 32 31 30 30 30 29 29 29 28 28 27 25 24 23 21 21 20 20 19 18 16 13 12 10 9 8 9 8 7 7 6 4 5 4 3 3 2 2 -0 1 2 2 3
30 30 29 29 28 29 29 29 27 26 26 26 25 23 21 20 19 18 17 16 15 16 13 13 11 9 7 8 6 9 7 5 4 3 3 2 1 0 -0 -0 -0 0 0 1
29 28 28 28 27 26 27 28 26 25 24 23 22 21 20 18 18 17 18 16 16 16 14 13 11 7 7 8 7 8 7 3 3 2 2 1 -0 -2 -2 -2 -3 -2 -2 -1
29 28 27 26 25 24 24 24 24 22 21 21 21 20 19 18 17 16 15 15 16 14 13 12 9 6 4 9 8 7 6 3 2 1 1 -0 -2 -3 -5 -5 -6 -4 -4 -4
27 27 25 25 24 23 21 19 20 20 21 20 20 20 18 17 17 17 17 14 13 13 12 10 9 5 3 7 6 5 5 4 2 1 -0 -7 -2 -5 -6 -7 -8 -6 -7 -6
27 27 26 25 22 21 20 20 20 19 19 18 18 18 17 16 18 16 15 14 12 11 11 3 2 -0 5 5 5 3 3 3 2 -0 -1 -2 -4 -6 -6 -8 -9 -9 -9 -8
23 22 22 23 23 23 22 21 19 20 19 18 18 17 17 16 15 14 12 11 10 7 9 7 5 4 4 4 3 1 1 2 1 -0 -3 -4 -6 -7 -9 -10 -11 -11 -10 -9
19 20 18 17 18 18 19 19 18 17 18 18 16 15 14 13 12 11 8 8 7 6 6 6 5 2 3 2 1 1 1 1 -2 -2 -3 -5 -7 -8 -11 -12 -12 -12 -12 -12

GFSNGP_sfc_dewp_042.txt.gz
Dewpoint
21 18 17 18 18 25 25 27 26 25 21 23 21 25 24 31 30 34 37 41 46 48 50 52 53 54 54 53 53 52 51 50 50 50 48 47 46 45 44 44 40 39 38 40
26 23 23 20 20 20 24 23 25 25 23 23 26 29 30 30 34 38 41 43 45 48 50 50 51 51 51 50 50 49 47 46 45 44 42 41 41 40 39 38 39 40 40 41
23 26 25 29 29 24 25 28 28 25 25 25 26 29 31 34 37 39 41 42 43 44 45 46 48 49 48 47 47 46 44 43 42 41 39 39 38 37 39 39 41 41 40 39
29 32 30 22 27 26 26 26 26 26 25 25 27 28 34 36 38 38 39 39 40 41 42 44 45 45 45 43 43 42 41 39 39 40 39 39 39 39 40 40 40 39 40 40
36 27 23 24 26 27 28 25 25 25 25 24 30 34 34 36 37 38 39 39 39 39 40 41 41 41 40 40 40 39 39 39 39 39 39 39 39 40 41 40 41 40 39 38
31 28 30 25 25 28 27 27 25 27 28 28 33 34 31 36 36 37 37 37 38 38 39 39 39 40 40 39 39 38 39 38 39 39 39 39 40 40 39 38 38 37 36 36
33 34 30 30 29 29 27 30 30 29 30 34 34 33 37 36 36 36 36 36 37 38 38 39 39 39 38 38 38 39 39 40 39 38 37 37 35 34 33 32 32 34 34 34
34 37 33 31 28 29 33 37 34 35 35 38 38 38 37 36 35 35 35 36 37 38 38 38 38 38 37 37 38 38 36 33 31 29 26 26 28 29 28 29 30 31 35 32
33 34 36 35 33 34 37 34 36 36 36 38 38 36 36 35 35 35 35 35 36 36 37 37 37 36 35 34 32 30 28 28 29 29 29 29 29 29 28 29 29 29 27 29
36 32 35 36 34 35 34 35 34 35 38 39 37 37 36 35 35 34 34 34 34 34 33 33 32 31 30 29 28 28 29 28 28 27 26 25 22 20 20 23 24 23 23 23
36 35 36 37 36 35 35 36 36 36 38 38 37 36 35 34 34 34 33 33 33 32 31 30 30 29 29 28 28 26 26 24 22 22 18 16 15 18 21 22 24 23 23 23
38 37 39 34 36 38 37 37 37 37 38 38 37 35 34 34 34 33 33 32 31 30 29 27 27 26 25 24 23 22 18 18 21 21 21 16 14 15 24 22 21 22 22 23
35 38 38 38 38 38 38 37 38 38 38 37 36 34 34 33 34 33 32 31 29 28 26 22 20 19 18 19 18 18 16 17 19 20 18 17 18 17 17 20 19 18 18 19
39 38 37 37 36 38 38 38 39 37 37 36 34 34 34 34 33 32 31 29 27 25 21 18 15 15 16 16 17 18 17 19 18 19 18 19 17 18 18 18 19 19 17 15
39 38 38 38 37 36 36 36 35 35 35 34 34 34 34 32 31 31 29 26 25 23 18 14 13 13 15 16 12 14 14 15 19 21 20 18 19 18 17 16 16 16 16 14
38 37 37 36 35 34 34 35 34 34 34 34 34 33 32 32 30 28 26 24 21 18 15 21 16 14 16 11 9 13 16 15 16 17 17 16 16 16 14 14 14 15 14 14
37 36 36 34 34 34 34 35 34 34 34 34 33 32 31 29 26 25 24 22 22 21 20 18 14 12 14 9 8 11 14 14 13 16 14 13 14 14 12 13 13 13 13 14
38 37 37 36 35 34 34 35 34 33 33 32 31 30 28 27 24 23 23 21 21 20 17 13 12 11 9 8 9 11 12 12 13 14 13 14 11 11 12 11 11 11 12 12
36 36 36 35 35 34 34 33 31 30 30 30 29 27 27 26 24 23 22 21 19 17 14 13 14 11 10 11 10 12 12 14 12 11 11 8 13 10 11 11 10 11 10 10
33 33 33 33 33 32 30 30 30 29 29 28 27 27 25 24 24 23 23 21 19 16 13 12 9 9 9 8 8 9 12 14 10 12 12 10 12 11 11 7 7 9 10 10
30 30 29 29 29 29 30 30 29 29 29 29 27 25 23 23 23 23 20 16 15 14 13 13 11 9 8 8 6 15 14 14 12 11 11 11 10 9 9 9 8 8 9 9
29 28 28 28 28 28 29 29 28 27 26 25 24 23 22 21 21 20 21 18 16 16 15 14 11 10 9 5 10 14 11 10 10 10 10 9 8 7 7 6 6 6 7 7
29 28 27 27 26 25 26 26 26 26 25 24 24 25 23 20 19 18 16 16 17 16 14 15 12 10 6 14 13 12 11 9 9 8 8 8 7 6 5 4 4 3 4 4
27 27 27 27 27 25 22 23 24 24 23 23 23 22 20 20 20 18 18 17 16 16 17 15 13 5 7 13 12 10 9 9 8 9 7 3 6 5 4 3 2 2 2 1
27 27 26 25 23 23 23 23 22 21 20 19 19 19 19 20 23 20 20 18 15 15 16 9 4 2 11 11 10 8 8 8 8 7 6 6 4 3 3 3 0 0 -1 -1
22 21 21 23 23 23 23 22 21 22 22 21 21 22 21 20 19 18 17 15 14 10 13 13 12 11 10 9 8 7 7 7 6 6 4 3 3 2 1 -0 -2 -2 -1 -2
18 19 18 17 18 19 20 20 20 20 21 21 20 20 19 18 17 15 14 14 13 12 12 11 11 9 8 7 7 7 6 6 4 3 3 3 2 1 -0 -2 -2 -3 -4 -5

GFSNGP_sfc_dewp_048.txt.gz
Dewpoint
24 23 23 24 23 22 21 23 26 27 23 23 24 28 31 31 31 28 28 30 33 39 47 51 54 55 56 58 58 58 58 57 56 55 55 54 52 51 50 48 46 44 42 42
29 24 23 25 27 21 20 20 19 21 22 22 22 24 27 23 24 28 28 29 35 38 46 52 53 55 56 55 56 56 54 53 53 53 53 53 52 50 48 45 42 42 41 41
28 26 24 24 27 22 21 19 20 21 25 24 23 24 24 25 26 28 31 38 42 44 50 53 54 55 54 54 53 52 50 49 48 46 45 44 42 42 42 42 42 41 41 41
32 34 25 25 26 23 23 21 20 19 19 21 23 24 23 30 33 35 39 41 45 50 52 53 53 52 52 50 49 47 46 45 44 43 41 41 40 41 41 42 41 41 41 41
32 28 28 23 25 24 25 23 23 21 20 20 21 31 34 34 38 41 43 45 46 48 50 50 48 48 46 45 44 43 43 42 42 42 41 41 41 42 42 42 41 41 41 41
38 28 26 31 28 27 26 26 26 24 27 27 25 34 32 37 39 42 43 43 44 45 45 45 45 44 43 42 42 42 42 41 42 42 41 41 42 42 42 41 41 40 40 40
35 34 34 28 27 28 26 29 33 30 28 33 33 34 39 39 41 41 40 41 42 42 42 42 42 42 41 41 40 41 41 41 41 41 41 41 41 41 39 37 36 35 33 33
37 34 31 35 30 28 34 40 38 35 37 43 40 41 40 39 40 39 38 39 40 41 41 42 41 41 39 39 40 41 41 40 40 39 35 33 33 32 30 33 34 33 32 32
34 35 40 38 36 38 40 40 41 40 38 39 43 40 39 39 39 37 37 38 39 40 41 41 40 40 39 39 40 40 39 33 29 28 28 29 31 31 30 31 30 29 28 30
35 36 38 38 39 39 38 40 38 38 38 41 42 40 39 39 38 37 37 37 38 40 40 40 40 39 39 39 38 34 30 29 29 28 27 26 21 22 28 28 28 28 27 27
34 34 32 31 38 40 41 41 40 38 39 39 41 41 39 38 38 37 37 38 39 40 39 39 39 38 37 35 32 29 29 27 27 27 23 21 21 23 25 21 24 26 25 25
38 36 39 40 41 41 39 37 37 39 40 38 39 41 39 38 38 37 37 39 39 39 38 36 35 33 32 31 30 29 26 26 29 28 25 21 20 20 26 23 24 22 21 21
34 40 42 44 40 39 41 41 39 41 40 38 40 40 39 38 38 38 38 38 37 37 34 33 31 30 29 30 28 26 25 26 26 28 26 24 24 26 23 23 23 22 21 19
28 35 35 32 40 41 41 40 40 39 40 39 39 39 39 39 39 38 37 37 36 33 31 28 23 22 22 21 22 22 22 27 24 24 24 26 24 24 24 24 24 24 21 18
41 41 41 41 40 39 39 39 40 39 39 39 41 40 39 38 37 37 37 34 31 28 24 20 18 17 19 23 19 22 22 24 26 25 24 23 24 24 23 22 23 22 23 20
40 40 39 39 39 38 37 38 38 39 40 41 40 39 38 37 36 33 31 28 24 21 19 22 18 19 21 18 20 22 23 24 24 23 21 21 22 21 20 20 20 21 20 20
39 39 39 40 40 39 37 38 38 38 38 39 36 34 31 26 24 23 22 22 23 23 24 23 20 17 20 22 26 25 23 21 20 20 18 17 19 20 18 19 19 18 19 17
38 39 38 38 38 39 38 37 36 34 33 30 28 26 25 24 23 22 22 22 21 21 22 23 23 22 23 23 22 22 21 19 18 18 17 19 16 16 18 17 17 16 17 16
33 33 34 34 34 33 32 31 30 30 28 27 24 23 23 22 22 22 22 20 19 18 20 22 22 20 19 20 19 19 19 19 16 15 15 14 17 17 17 17 16 15 14 14
29 29 29 29 29 29 28 28 27 26 26 25 24 22 21 22 23 23 22 20 20 20 21 21 20 17 15 15 15 17 17 17 15 16 18 14 16 17 15 14 14 14 14 14
28 28 27 26 26 27 27 27 26 25 26 25 23 22 22 23 22 21 19 17 20 21 21 21 18 15 12 11 12 19 18 17 16 16 16 16 15 15 15 14 14 13 12 12
27 26 26 26 26 26 26 26 25 24 24 23 23 23 23 22 21 21 21 18 20 22 21 19 14 13 12 15 16 18 16 15 15 15 14 15 14 12 12 12 11 11 10 8
27 27 26 25 24 24 25 25 25 25 24 24 24 24 23 24 23 20 17 22 23 23 19 16 15 13 12 18 17 17 16 14 14 14 14 13 13 12 10 10 9 8 6 8
26 26 26 26 25 23 22 24 24 24 24 24 23 24 24 21 21 21 21 21 20 18 17 16 13 11 10 17 16 15 14 13 13 13 13 10 12 11 10 8 7 6 6 5
23 24 25 25 24 24 25 25 24 24 23 22 22 22 21 22 21 20 20 19 17 19 14 12 11 9 15 15 14 13 12 12 12 9 9 8 9 8 7 7 6 6 3 -0
22 21 21 21 21 22 22 20 19 21 21 20 21 21 21 21 20 19 17 16 15 14 15 16 14 13 13 11 10 10 11 11 10 10 9 7 6 5 5 5 5 4 3 2
16 17 15 16 17 17 16 17 18 16 18 20 18 19 19 20 18 17 17 15 15 15 14 13 14 12 12 9 9 9 8 8 8 8 6 5 5 4 4 3 3 1 -1 -2

GFSNGP_sfc_dewp_051.txt.gz
Dewpoint
27 25 27 28 28 26 26 30 30 30 28 29 27 27 29 30 29 29 29 29 33 44 47 50 53 56 56 57 59 60 59 57 55 54 54 53 51 51 49 48 47 46 45 43
27 27 28 24 23 27 27 27 29 29 28 31 27 29 29 29 29 27 26 26 27 36 50 53 54 56 55 55 56 56 56 55 54 54 53 52 51 49 48 45 44 43 42 42
26 27 27 25 28 26 29 29 25 24 24 26 25 26 27 29 27 28 28 31 36 42 51 53 55 55 54 54 54 53 53 53 53 51 50 50 49 46 43 41 40 40 39 39
28 29 22 26 27 28 29 28 24 21 21 22 23 24 25 26 27 30 37 40 44 52 54 54 54 53 52 50 49 48 46 47 46 44 42 42 41 41 41 40 39 39 39 39
28 26 27 27 28 29 27 25 27 23 23 21 21 26 31 33 35 39 41 45 49 52 52 52 51 51 49 47 45 44 44 44 42 41 40 40 40 40 40 40 40 39 40 39
30 25 23 29 31 32 30 26 28 28 28 27 27 27 29 35 42 44 45 45 47 48 48 49 47 47 46 44 44 43 42 42 41 41 41 41 40 41 40 41 40 40 39 39
29 27 32 33 31 32 27 27 31 32 30 31 28 33 35 39 42 43 43 44 45 45 45 44 44 44 42 42 42 42 42 42 42 42 41 41 41 40 40 39 37 34 33 33
34 31 28 38 35 27 32 33 33 33 33 38 36 38 38 41 41 41 41 42 42 42 42 42 42 42 41 40 41 41 41 41 41 40 40 40 40 37 35 34 31 30 30 30
33 33 38 39 40 42 38 38 41 39 38 40 40 40 40 40 40 39 39 40 41 41 41 42 41 40 39 40 40 40 40 40 40 36 35 32 29 31 32 31 28 27 27 28
35 35 31 30 38 41 44 39 39 38 38 41 42 41 39 40 39 38 38 39 40 41 40 40 40 40 40 40 40 39 33 29 30 29 29 26 27 28 26 25 25 25 25 25
34 34 34 36 36 40 42 42 40 39 38 37 43 41 40 39 38 37 38 39 40 40 40 39 39 39 39 39 34 29 29 29 28 27 23 23 25 22 21 24 26 24 24 25
33 36 37 36 37 44 41 38 38 41 39 37 41 40 40 39 38 38 38 40 40 40 39 37 37 36 36 34 31 30 26 26 26 26 23 20 22 21 25 23 24 23 24 24
32 35 40 41 41 45 41 41 41 41 40 39 39 41 39 38 38 38 39 39 39 37 34 30 24 23 27 30 28 27 26 26 26 24 24 25 23 22 22 24 24 22 21 21
41 41 35 40 38 40 40 40 41 41 41 40 42 40 40 39 39 38 38 36 32 27 23 21 20 21 23 24 24 25 26 27 26 25 25 24 24 25 24 23 23 23 21 20
40 41 40 40 39 38 38 38 38 39 40 41 41 41 39 38 37 36 33 27 22 20 19 19 20 21 23 25 24 25 26 25 24 23 24 24 24 24 24 23 22 22 23 20
39 40 39 40 40 37 37 38 38 38 36 34 32 30 31 30 28 26 25 22 20 18 18 21 21 24 24 23 24 24 25 26 25 25 25 24 24 23 22 21 21 20 20 19
36 35 36 36 38 36 35 35 33 30 29 27 26 25 23 22 22 21 21 22 21 21 21 22 23 25 26 26 24 22 23 24 24 23 22 22 22 21 19 19 19 18 18 15
34 34 34 34 34 33 31 31 29 27 26 25 24 23 22 21 20 20 21 21 20 20 20 21 22 23 23 24 24 23 23 23 22 21 22 20 17 18 18 18 17 17 16 15
32 31 31 30 29 28 27 26 25 24 23 23 22 21 21 21 21 21 20 19 18 16 18 20 22 20 21 23 22 22 21 20 20 19 18 16 17 18 16 16 14 13 14 14
26 27 27 26 26 26 25 25 24 24 24 23 22 20 19 19 19 19 18 17 18 19 20 20 19 19 19 21 21 20 19 18 17 17 16 14 14 13 13 14 14 12 10 10
25 25 24 24 23 24 24 24 23 22 23 23 21 20 19 20 20 19 17 15 20 21 21 20 19 18 17 18 20 19 18 17 16 16 15 13 12 13 12 9 9 8 4 5
24 23 23 24 23 23 24 24 24 23 23 22 22 20 19 18 18 18 19 17 20 20 18 16 16 15 15 18 18 17 17 15 15 14 12 10 7 4 3 2 1 0 -2 -4
24 24 23 22 22 22 23 23 23 22 22 21 21 21 21 21 20 17 17 21 19 17 16 15 14 12 14 17 16 14 12 10 10 9 9 8 8 4 -1 -1 1 -3 -6 -2
24 25 24 24 23 21 20 22 22 22 21 21 21 22 20 18 18 19 19 17 16 15 13 12 11 11 11 11 10 8 6 3 3 3 2 -1 -4 -3 1 -3 -5 -2 -3 -6
20 20 20 21 20 19 21 23 21 20 20 19 19 19 18 19 17 17 16 17 15 12 10 9 9 9 9 5 4 3 2 5 4 1 4 0 -4 -9 -10 -4 -1 -2 -4 -6
18 17 17 17 16 17 18 16 16 18 17 16 17 17 17 18 18 16 15 13 13 12 12 8 9 7 3 0 -4 -5 -5 -2 3 2 -6 -8 -11 -10 -6 -3 -4 -5 -9 -15
13 14 13 14 14 13 12 13 13 12 14 14 12 13 14 12 11 11 9 10 9 6 3 4 6 5 2 -1 -0 -4 -7 -8 -7 -2 -7 -13 -15 -16 -9 -9 -13 -17 -19 -19

GFSNGP_sfc_dewp_054.txt.gz
Dewpoint
25 26 25 23 26 28 25 28 27 28 30 30 31 30 30 28 29 28 28 29 40 42 45 49 52 50 49 53 56 56 56 55 57 58 58 58 57 55 53 53 51 49 47 46
28 26 27 25 23 27 27 29 29 29 31 31 31 30 29 30 29 27 28 29 36 43 46 52 55 54 54 55 56 57 56 58 57 56 55 54 53 51 50 48 48 45 44 44
26 26 25 25 27 27 25 29 29 28 31 31 30 30 29 29 29 29 28 29 30 41 49 54 55 56 56 56 57 57 57 56 55 54 52 51 50 48 46 45 45 43 43 43
28 28 23 26 26 27 27 27 29 26 24 26 26 27 29 30 28 30 29 28 30 44 52 55 55 54 54 54 54 54 54 53 53 52 51 49 46 44 42 43 41 41 40 40
27 26 26 27 27 27 28 26 28 24 25 24 23 27 29 30 30 30 32 38 47 52 53 54 54 52 51 50 49 49 48 49 48 46 45 45 44 43 40 39 39 38 38 38
32 28 22 27 29 32 30 26 28 28 31 29 28 25 28 32 38 40 43 48 51 51 51 51 49 49 47 46 46 45 45 44 44 44 43 42 41 40 39 39 38 39 39 38
32 29 30 34 35 32 26 26 31 33 33 30 28 31 30 35 42 43 46 48 49 51 51 49 48 46 45 44 44 43 42 41 41 41 40 40 40 40 40 40 39 35 33 31
33 31 27 38 36 29 35 38 34 36 35 34 35 32 36 40 42 43 45 46 47 47 46 45 45 44 43 42 42 42 42 42 41 41 40 40 40 39 39 36 33 30 28 27
35 34 37 39 38 44 41 39 39 40 39 38 39 37 39 41 42 42 44 43 44 44 42 42 42 43 41 41 41 41 41 41 40 40 40 39 38 35 33 32 30 29 27 25
35 36 36 37 40 43 41 40 41 42 40 40 39 40 40 40 40 40 41 41 41 42 41 40 40 40 40 40 41 40 40 38 37 35 30 29 29 30 29 28 28 28 27 25
34 34 34 34 33 35 38 42 42 42 40 39 37 41 39 40 39 39 40 40 41 41 40 39 40 40 40 40 38 35 32 29 27 27 27 24 21 23 25 26 27 26 26 26
32 35 35 33 33 36 37 38 38 42 39 40 40 40 41 40 39 39 40 41 41 40 39 39 39 39 37 34 32 30 27 26 25 25 24 18 18 21 26 26 27 27 26 24
38 40 38 41 42 43 41 40 40 40 40 40 41 40 40 40 39 39 40 40 39 36 30 29 29 29 31 30 29 27 25 25 25 24 23 22 22 22 22 24 24 24 25 24
40 41 40 40 38 39 39 40 40 40 41 41 41 42 42 41 40 39 37 31 26 24 24 24 24 25 27 27 26 26 25 26 25 25 25 26 25 24 25 24 23 23 24 21
38 38 39 40 38 38 39 39 36 32 31 30 30 37 38 33 28 25 24 21 22 21 21 22 23 24 26 27 25 24 24 25 26 26 25 25 25 25 25 25 25 24 23 22
37 36 36 37 35 34 34 33 31 29 27 26 25 24 23 22 21 20 21 22 23 23 23 24 24 26 27 27 26 26 25 26 25 25 24 24 24 24 23 23 22 22 22 19
34 33 34 35 34 31 30 29 27 26 25 24 24 23 22 21 20 20 21 22 22 22 24 23 23 25 25 25 24 24 24 24 23 23 23 22 22 21 21 20 20 19 18 16
32 32 32 31 30 29 27 26 25 24 23 22 22 21 21 21 20 20 20 20 19 19 20 22 22 23 23 23 23 23 23 22 22 22 20 19 19 20 19 18 18 17 17 16
27 27 27 26 26 25 24 23 23 23 23 21 21 20 20 19 19 19 19 18 16 15 17 20 22 22 21 22 21 21 20 20 20 19 18 18 17 18 16 16 15 15 15 14
24 24 23 23 24 24 22 23 23 22 22 21 20 19 17 18 18 17 17 16 17 18 19 19 19 19 19 20 20 19 18 18 18 17 16 15 15 14 14 14 13 12 11 10
23 23 23 22 22 23 23 23 22 20 21 20 19 18 18 18 19 18 15 13 17 17 17 17 17 17 18 19 18 17 17 15 15 14 13 13 12 11 10 9 9 7 5 2
22 22 21 22 20 21 22 22 22 22 21 20 19 18 17 17 17 18 17 14 16 16 15 14 15 16 17 17 16 14 14 13 12 11 9 9 8 6 4 1 -1 -2 -5 -8
22 23 22 21 20 20 21 21 20 21 19 18 18 18 17 17 18 14 12 16 15 14 13 13 14 14 13 12 11 10 9 8 7 5 4 2 0 -1 -1 1 1 -1 -9 -6
20 21 21 22 22 19 18 19 20 19 18 18 18 18 16 14 15 15 14 13 11 11 11 11 10 9 8 7 6 4 3 3 1 -3 -5 -5 -10 -9 -10 -15 -12 -11 -7 -8
18 18 17 18 17 17 19 18 16 16 16 16 16 16 15 15 13 15 14 13 13 10 9 7 5 2 1 -0 -1 -2 -2 -3 -4 -8 -10 -14 -17 -19 -20 -16 -13 -11 -14 -16
16 15 14 14 13 14 14 14 14 14 13 11 12 12 12 13 13 12 10 9 8 7 7 6 3 2 -1 -0 -3 -8 -12 -8 -7 -10 -18 -19 -21 -19 -19 -17 -19 -20 -22 -23
11 11 11 10 9 9 10 10 9 9 9 6 6 8 7 7 6 6 2 1 1 -1 -3 -5 -6 -6 -7 -13 -13 -14 -13 -14 -12 -13 -19 -23 -21 -20 -20 -22 -25 -26 -26 -23

GFSNGP_sfc_dewp_057.txt.gz
Dewpoint
29 25 25 26 26 25 25 26 25 25 29 28 30 31 31 31 30 27 27 32 38 40 42 44 47 49 51 52 54 54 54 54 54 56 57 57 58 58 58 56 55 53 52 50
30 29 26 25 25 25 25 27 28 28 28 32 32 32 31 30 30 28 28 29 33 40 43 46 45 46 47 49 53 54 54 55 56 57 57 57 58 56 55 53 52 50 49 47
30 33 28 26 27 25 26 29 30 29 31 31 31 31 31 31 30 30 29 29 30 39 43 46 48 50 49 49 53 56 55 56 56 57 57 56 53 51 51 50 49 46 46 45
32 31 26 30 29 27 27 27 28 29 29 28 28 30 31 30 31 31 30 30 30 33 44 47 53 54 53 54 55 55 55 56 56 55 53 52 51 49 46 46 45 45 45 45
31 30 31 30 28 28 27 25 27 28 28 25 24 26 25 27 30 32 32 31 31 34 49 53 53 53 53 52 55 55 54 54 53 52 51 49 47 46 45 44 44 43 43 42
31 27 25 30 30 30 30 26 29 28 29 29 27 29 29 29 31 33 32 36 46 51 52 52 51 52 51 49 51 51 51 50 50 49 48 46 45 43 42 42 40 39 38 38
31 30 30 35 36 39 30 28 34 31 31 29 30 32 32 32 33 40 42 48 51 51 52 51 50 50 48 47 47 48 47 46 46 46 45 44 42 40 40 40 37 33 31 31
32 30 26 38 38 38 37 37 38 40 40 38 36 34 33 33 35 42 44 49 50 50 48 48 48 48 46 45 43 42 42 42 42 42 41 40 40 39 39 35 32 30 28 27
31 31 39 38 40 41 44 42 38 39 40 39 39 38 37 36 40 42 45 47 49 48 45 45 46 46 45 42 42 42 41 41 41 40 40 39 38 36 34 33 30 29 27 25
33 31 33 31 35 36 37 41 42 43 42 40 38 38 39 39 41 42 43 44 44 45 44 43 43 43 42 42 42 41 40 40 38 34 32 32 32 33 32 32 30 28 26 23
32 32 33 33 34 35 38 40 41 43 42 40 40 41 41 41 41 41 43 43 44 44 42 40 41 41 41 41 41 39 36 32 30 28 26 26 26 27 27 28 30 27 26 24
31 39 40 38 40 41 36 37 40 40 41 40 42 41 42 42 41 40 41 42 41 40 40 40 40 38 38 38 36 33 29 29 28 26 24 23 22 23 28 29 29 28 27 26
38 39 39 42 40 40 40 41 41 39 37 39 38 41 41 40 40 40 40 37 33 32 31 30 29 29 30 31 31 29 27 26 25 24 22 22 22 22 22 25 26 25 24 24
37 38 41 40 38 38 39 37 35 33 31 29 30 36 37 38 33 29 27 26 26 26 26 26 26 25 26 26 26 26 26 27 26 25 24 24 24 24 25 24 22 23 25 24
35 37 37 37 35 33 34 32 29 28 27 27 24 24 24 23 23 23 24 24 24 25 25 25 25 26 26 27 26 26 26 26 27 27 27 27 27 26 26 25 24 23 23 23
33 36 35 35 32 31 29 28 27 25 24 23 22 22 22 22 22 23 23 24 24 24 25 25 26 27 28 27 27 26 26 26 26 25 25 24 24 24 24 23 23 23 22 19
33 33 33 33 31 28 27 26 25 24 23 22 22 22 21 20 20 20 20 20 21 21 22 22 22 24 25 25 25 24 23 23 23 22 21 21 21 21 20 20 19 19 17 17
31 30 29 28 28 26 24 24 23 22 22 21 21 19 18 17 17 18 18 19 18 18 20 21 22 22 22 23 23 22 22 21 20 19 19 18 19 19 18 18 18 16 16 16
25 25 25 24 23 22 21 21 21 21 21 21 19 18 18 18 17 17 18 16 15 14 17 20 22 20 20 21 20 20 19 18 17 17 17 16 16 16 15 15 15 14 14 13
23 24 23 22 22 22 21 22 21 20 20 19 18 17 16 16 16 15 14 13 15 16 18 19 19 18 18 18 18 17 16 16 15 14 14 13 13 12 12 12 11 10 9 9
21 21 21 20 20 21 21 20 19 18 18 18 17 16 16 17 17 16 13 11 14 16 17 17 17 17 17 15 14 14 14 13 12 11 10 10 9 7 6 5 5 2 -1 -3
21 20 19 19 18 19 20 20 19 19 18 18 18 18 15 14 13 13 13 12 14 15 15 14 14 13 12 12 11 11 10 9 8 7 5 4 1 -2 -5 -5 -7 -7 -10 -11
21 21 20 19 18 18 18 18 18 17 16 16 15 14 14 15 14 10 8 12 13 12 11 9 8 8 8 7 7 5 3 2 1 -1 -3 -6 -10 -13 -13 -14 -14 -13 -12 -6
19 19 20 20 20 17 16 17 17 17 16 16 15 15 13 11 11 11 11 10 8 7 6 5 4 3 2 1 0 -0 -2 -3 -7 -10 -9 -14 -20 -20 -19 -18 -15 -17 -16 -17
16 16 16 15 15 16 16 15 13 12 12 12 13 13 13 12 10 11 10 9 9 6 3 0 -0 -2 -5 -7 -8 -10 -11 -13 -17 -18 -18 -19 -21 -22 -22 -20 -22 -23 -24 -25
13 11 11 12 12 12 12 11 9 9 9 7 7 6 7 8 7 6 4 1 2 -1 -4 -10 -11 -10 -10 -11 -16 -17 -13 -10 -15 -17 -21 -23 -24 -23 -25 -24 -27 -27 -29 -30
9 9 9 8 8 8 8 8 6 4 1 1 2 4 4 2 -0 -0 -5 -7 -8 -10 -13 -16 -16 -13 -14 -18 -18 -19 -19 -19 -20 -21 -27 -27 -26 -27 -28 -29 -30 -32 -32 -32

GFSNGP_sfc_dewp_060.txt.gz
Dewpoint
35 33 30 26 25 25 24 26 24 24 27 27 28 29 30 31 31 31 29 27 35 41 44 47 50 50 50 50 51 52 52 51 51 52 52 53 54 55 56 56 56 56 57 54
30 34 32 30 25 25 25 26 27 27 27 29 30 30 31 31 32 31 30 29 29 37 41 45 48 49 50 51 51 52 52 52 52 53 53 54 55 56 56 56 57 57 55 53
29 33 31 26 28 27 26 27 27 25 28 30 31 32 32 32 32 32 31 30 29 32 39 41 44 48 49 51 52 53 53 53 53 53 54 55 56 56 56 56 54 53 51 50
30 29 25 30 29 31 29 28 29 29 30 30 31 32 31 32 32 32 32 31 31 30 35 42 45 47 47 48 50 53 53 54 54 54 55 56 55 55 53 51 51 49 49 47
27 26 27 26 29 30 32 30 29 28 28 28 29 25 26 27 28 29 31 33 33 32 32 38 48 52 51 51 52 53 53 53 54 56 55 52 51 48 47 47 47 45 44 44
32 25 21 25 35 38 38 26 34 34 32 31 29 27 29 30 30 30 32 33 32 36 41 47 50 52 52 54 52 53 52 54 54 53 51 49 47 46 46 45 42 41 40 41
30 27 28 33 37 39 30 25 40 40 39 37 32 31 33 35 33 33 38 42 47 49 49 50 51 52 50 51 53 51 50 49 49 49 48 46 44 43 42 40 36 34 33 33
30 28 23 35 36 34 36 40 39 39 41 40 39 39 39 38 37 36 38 45 49 49 48 48 49 50 47 47 46 46 46 45 45 44 42 41 41 39 37 35 32 31 30 29
29 29 34 37 36 39 42 41 41 39 39 41 41 37 38 38 39 41 43 46 48 48 47 47 48 48 46 42 43 43 43 42 41 41 41 40 39 36 35 34 32 30 28 26
29 28 33 33 34 36 38 40 38 38 39 40 41 40 39 40 40 41 43 45 46 46 45 43 44 44 43 43 43 42 41 39 37 36 35 35 35 35 33 32 31 29 27 24
30 35 37 37 39 41 39 41 37 35 39 41 41 40 42 43 42 42 42 43 44 43 41 41 42 43 44 43 41 39 36 34 32 31 30 29 29 29 30 31 32 30 27 25
29 38 38 38 39 38 39 39 37 37 39 36 35 38 41 41 41 41 41 41 39 38 37 36 35 35 38 39 37 34 32 30 29 29 28 28 27 27 30 30 29 28 27 25
36 36 37 38 39 35 34 36 34 32 30 29 29 29 36 31 30 31 30 30 29 28 28 28 27 27 30 32 32 31 29 27 26 26 25 25 25 24 22 27 29 29 28 27
36 36 37 38 36 33 33 33 31 27 26 25 25 27 27 25 25 25 26 27 27 27 26 26 26 26 27 28 27 27 26 27 26 26 26 26 25 25 25 24 22 23 27 26
32 34 35 36 33 30 30 29 26 25 24 23 23 23 23 23 23 24 25 26 25 25 26 27 26 26 27 27 27 27 27 27 27 27 27 27 27 26 25 24 23 22 23 23
31 32 34 34 30 28 27 26 25 24 23 23 22 21 21 21 20 20 21 21 20 20 21 22 23 25 27 26 26 25 25 25 25 25 24 24 24 23 23 23 22 22 20 18
29 29 28 29 29 25 24 24 24 23 22 21 21 20 19 18 18 18 18 19 19 20 21 20 21 23 24 24 23 23 22 21 21 21 21 21 20 20 20 19 18 17 16 17
27 27 25 26 25 25 23 22 21 21 20 19 19 18 17 16 16 16 17 18 17 17 19 20 20 21 21 21 21 21 20 19 19 18 18 18 17 17 16 16 16 15 15 14
24 23 24 23 23 23 21 20 19 19 19 18 16 15 15 15 15 15 16 14 14 14 16 18 20 18 19 20 19 18 17 17 16 16 15 14 14 14 13 12 11 11 11 10
22 22 21 21 21 20 19 19 20 19 19 18 16 14 13 14 14 13 13 12 14 15 17 17 16 16 16 16 16 15 15 14 13 12 11 10 9 9 9 9 8 6 4 3
20 20 19 18 18 19 19 19 18 16 17 16 13 12 12 13 13 12 10 9 13 15 14 14 14 13 13 12 12 12 11 9 8 7 5 4 2 2 1 -1 -3 -6 -7 -9
19 18 18 17 17 17 18 18 17 16 16 15 15 14 12 12 11 11 12 11 12 11 10 9 9 9 9 9 8 7 6 5 4 3 1 -1 -4 -7 -9 -11 -14 -16 -18 -15
19 19 18 17 16 16 17 16 15 15 14 13 12 11 11 12 11 7 6 9 8 7 6 5 5 4 4 3 2 1 0 -2 -4 -7 -10 -13 -18 -20 -20 -20 -21 -19 -19 -16
17 18 18 18 18 15 13 14 15 15 14 14 13 12 10 8 8 9 7 4 2 2 2 0 -1 -1 -4 -5 -6 -8 -11 -13 -16 -20 -19 -21 -27 -26 -25 -25 -22 -25 -25 -24
15 15 16 15 14 13 13 12 11 10 9 8 9 9 9 9 5 6 4 2 3 -1 -5 -7 -6 -8 -11 -13 -16 -16 -18 -21 -25 -24 -26 -27 -27 -27 -28 -28 -29 -28 -30 -31
12 11 11 11 11 11 10 8 7 7 7 5 4 3 3 4 3 2 -0 -2 -3 -6 -10 -18 -21 -21 -21 -18 -21 -22 -21 -18 -22 -24 -27 -27 -28 -27 -29 -28 -30 -31 -33 -32
7 7 7 6 5 5 5 4 2 -2 -6 -7 -2 -1 -4 -7 -8 -6 -13 -15 -18 -20 -25 -26 -24 -20 -21 -24 -23 -24 -23 -24 -25 -25 -31 -30 -29 -31 -32 -33 -34 -35 -34 -36

GFSNGP_sfc_dewp_063.txt.gz
Dewpoint
34 32 32 31 29 27 23 25 25 25 25 26 30 30 31 33 34 33 33 33 33 38 44 48 50 51 51 51 52 52 51 50 51 52 51 52 52 53 53 53 53 53 54 55
30 32 30 29 29 27 25 26 26 26 26 29 30 31 31 32 32 31 33 33 34 35 39 45 49 50 51 51 53 52 52 51 51 52 51 52 52 53 53 54 54 55 55 56
25 32 29 28 28 27 28 28 28 27 29 30 29 32 33 34 34 34 35 35 35 35 37 42 46 50 51 52 52 53 53 52 52 52 52 53 53 53 54 56 56 56 56 57
29 29 19 29 32 29 30 29 30 29 31 31 31 32 31 34 34 35 34 35 36 36 37 39 42 46 50 50 52 52 52 52 53 54 53 53 54 55 56 57 56 56 56 53
28 25 24 21 29 33 33 29 38 37 38 38 37 33 31 31 33 34 35 35 35 36 36 36 39 44 46 49 51 52 53 53 53 54 54 54 55 56 54 52 50 48 48 47
31 27 22 27 33 37 38 27 38 38 37 38 38 36 35 38 40 39 35 34 37 38 36 36 38 47 47 47 49 51 53 53 54 55 55 55 51 49 47 47 44 43 42 43
31 29 28 31 35 38 24 26 38 40 39 39 37 38 41 41 40 40 39 39 46 48 47 48 49 51 51 52 51 52 53 54 54 54 52 50 47 45 44 40 37 35 34 36
31 30 24 33 36 31 35 38 39 40 39 39 40 41 41 40 40 41 42 45 48 50 49 50 52 52 52 51 50 51 50 49 48 47 46 45 44 42 38 36 34 33 31 30
32 32 34 37 37 38 40 40 40 40 39 37 39 38 41 40 41 41 43 45 47 48 47 47 49 49 48 46 47 46 45 43 42 43 43 41 38 36 35 34 33 31 30 28
31 28 33 35 38 41 39 41 40 37 38 40 37 39 41 42 42 42 43 44 45 45 43 43 44 45 45 44 44 44 42 41 40 38 37 36 36 35 34 33 31 30 29 27
31 32 36 38 40 38 38 38 36 35 34 33 33 36 39 42 41 42 41 40 40 40 38 37 38 41 43 44 42 39 37 36 34 33 31 30 30 32 32 32 33 31 29 27
31 36 35 37 39 36 36 35 33 32 31 29 29 30 35 32 32 31 32 34 33 33 33 32 31 31 34 37 38 35 34 33 33 32 30 29 28 28 30 30 29 29 28 27
34 35 36 38 38 34 34 34 31 28 26 26 27 27 28 28 29 29 29 29 28 29 29 29 29 29 30 31 32 32 30 29 29 29 29 28 26 25 24 28 29 29 29 28
33 34 36 36 35 32 31 31 30 27 25 25 25 25 26 26 26 26 26 26 26 26 27 27 28 28 30 31 30 29 29 29 28 27 26 26 25 25 25 24 23 25 27 27
29 31 32 34 31 29 28 28 27 27 27 26 25 24 22 22 21 22 22 22 22 22 23 23 24 25 27 28 27 27 27 27 27 27 27 27 27 26 25 25 24 23 23 24
28 29 30 31 27 26 25 27 25 24 23 24 23 21 20 19 19 19 19 19 18 19 20 21 22 24 25 25 24 24 24 24 24 24 24 24 25 25 25 24 23 22 20 20
25 25 24 25 25 24 23 24 24 22 22 21 21 21 20 18 17 16 17 18 18 19 20 20 20 22 23 23 22 22 22 22 22 22 22 22 22 22 21 20 19 17 18 18
25 25 25 24 24 23 21 22 21 20 19 18 18 18 16 16 15 16 17 18 16 16 18 19 20 20 21 22 22 21 21 20 19 19 18 18 18 18 17 17 16 15 15 14
22 21 22 21 21 20 19 18 19 18 18 17 15 14 14 14 14 15 16 15 14 13 16 18 19 18 19 19 19 18 18 17 16 15 15 14 15 14 14 14 13 13 12 11
20 20 19 19 20 19 17 19 18 16 17 16 15 14 13 14 14 14 13 11 13 14 15 16 16 16 15 14 14 13 15 14 12 12 12 11 11 11 10 8 8 9 9 9
19 18 18 17 17 18 18 18 16 14 15 15 12 11 11 12 13 13 11 8 11 13 11 10 10 9 8 8 9 12 11 10 9 8 8 7 7 6 6 6 5 6 6 6
18 17 17 16 16 15 16 17 16 15 15 14 14 14 12 11 10 9 9 7 6 7 6 7 6 6 6 7 7 7 6 5 5 5 4 4 3 3 2 2 2 2 2 2
18 18 17 16 15 15 16 15 15 14 13 12 11 10 9 9 8 6 4 6 5 5 4 4 4 3 4 6 5 4 3 2 2 1 1 1 1 1 0 -0 -1 -1 -1 -2
18 18 17 17 16 14 12 14 14 13 13 11 11 11 8 7 7 7 6 3 2 2 3 2 1 -1 1 3 2 1 1 0 -0 0 -2 -4 -2 -2 -2 -3 -4 -3 -4 -6
15 16 16 15 13 12 12 11 9 8 8 7 8 7 7 7 6 4 4 2 2 -0 0 -4 -4 -3 1 1 -0 -1 -2 -2 -2 -1 -2 -2 -3 -4 -4 -5 -7 -7 -8 -8
13 11 10 11 10 9 8 7 7 7 6 5 5 5 5 4 3 2 1 -1 -2 -4 -3 -3 -3 -2 -1 -2 -2 -2 -2 -2 -2 -3 -4 -5 -5 -6 -7 -8 -9 -10 -11 -11
7 7 7 5 4 5 5 5 5 3 3 4 2 2 1 2 0 -0 -4 -2 -2 -3 -3 -4 -3 -3 -2 -2 -2 -3 -3 -3 -8 -5 -6 -6 -7 -8 -11 -11 -12 -12 -13 -14

GFSNGP_sfc_dewp_066.txt.gz
Dewpoint
32 32 31 30 29 26 22 23 24 23 23 23 24 26 27 29 30 30 30 32 33 35 41 45 49 50 51 52 52 52 51 50 52 54 53 54 54 54 55 55 54 54 54 55
26 28 29 28 28 28 27 26 25 25 25 27 28 29 29 30 30 28 31 32 32 33 34 38 44 48 50 51 52 53 52 52 51 52 52 53 54 54 54 54 53 53 54 54
23 26 23 25 29 28 27 27 27 27 28 30 30 31 32 32 32 32 32 32 33 35 36 37 39 45 49 50 52 52 52 52 52 52 52 53 52 52 52 54 54 55 54 53
27 28 20 29 30 28 28 30 29 30 34 35 36 36 34 37 37 36 35 36 33 34 36 36 38 40 46 47 50 52 52 51 52 52 52 52 53 52 53 54 55 55 55 55
24 22 22 19 28 28 26 32 32 31 34 35 35 36 36 39 40 41 41 40 38 36 37 40 38 37 40 43 47 49 51 51 52 52 52 53 53 54 55 56 56 57 57 57
31 22 16 22 33 35 36 22 28 33 33 33 34 36 35 39 40 40 41 41 43 43 46 46 46 44 40 41 44 47 49 50 51 53 53 53 55 55 57 57 54 48 44 45
28 27 23 26 33 37 22 27 33 32 32 33 32 34 39 40 39 40 41 43 47 47 48 50 51 51 47 44 44 46 49 52 53 54 54 55 56 54 49 44 41 38 36 37
27 26 26 34 30 26 35 35 38 38 39 41 41 40 37 36 38 40 41 44 47 48 48 49 50 52 50 51 52 53 53 54 54 54 50 50 47 44 42 40 36 34 34 32
27 28 36 37 35 41 41 40 41 40 39 39 40 40 39 38 40 42 42 43 46 46 46 46 45 48 49 48 48 46 46 45 44 42 42 42 41 39 37 36 35 33 32 30
27 28 31 35 39 39 39 39 38 37 37 36 36 37 37 40 42 42 41 40 42 43 43 42 40 40 42 45 45 43 42 40 40 38 37 37 37 36 35 34 33 31 30 28
25 26 33 38 38 39 38 38 37 35 34 33 33 33 35 37 35 35 35 35 36 38 39 38 37 35 36 38 40 38 37 36 34 34 32 31 30 32 32 33 33 31 29 27
28 36 36 36 37 37 37 37 36 33 32 31 30 31 32 32 32 32 32 32 31 31 31 32 32 32 32 34 35 35 34 34 33 32 31 29 28 28 30 30 30 29 28 27
34 35 36 37 37 34 33 33 33 32 30 29 29 29 30 29 28 28 28 28 28 28 28 28 29 29 31 32 32 31 30 30 30 30 29 28 27 25 23 27 30 30 30 30
32 33 35 34 35 31 31 30 31 29 28 27 27 26 27 25 25 24 23 24 25 25 25 26 26 27 30 32 31 30 29 29 28 28 27 26 26 26 26 24 23 24 28 28
29 29 30 33 30 28 28 28 28 27 26 25 25 24 23 22 22 22 24 24 21 21 21 22 23 24 26 27 27 28 27 27 28 28 27 27 26 26 25 24 23 24 24 24
26 28 27 28 26 24 24 24 23 22 22 22 21 22 21 21 20 20 21 20 18 18 19 21 21 24 26 26 25 25 26 26 28 28 28 27 27 26 26 24 24 23 22 23
25 26 26 26 25 23 23 22 22 21 20 19 20 21 20 20 19 18 18 18 19 20 21 21 22 23 26 27 27 27 26 26 26 26 25 24 24 24 23 21 21 19 18 20
23 23 24 24 24 23 22 21 21 20 19 18 18 18 17 17 17 18 19 20 18 18 20 20 22 23 24 25 25 24 23 22 22 21 21 21 21 21 20 19 17 16 16 16
21 21 22 21 22 21 20 19 19 18 18 18 17 16 16 16 16 17 17 16 16 15 17 19 19 19 19 20 21 21 21 20 19 18 18 17 18 17 17 17 16 16 14 13
20 20 19 20 21 20 18 19 19 17 18 17 17 16 15 16 16 16 14 13 14 14 14 14 14 14 14 14 15 16 17 17 14 15 16 15 15 15 13 10 12 13 13 12
19 19 18 18 18 19 18 18 17 16 16 16 14 13 12 12 14 16 13 9 10 10 10 9 9 8 7 8 9 15 14 14 12 12 12 12 12 11 10 10 10 10 10 10
19 18 17 17 17 17 18 18 17 16 15 15 15 15 13 12 10 9 9 8 7 7 7 7 7 7 7 8 9 11 10 9 9 9 9 9 9 8 8 8 7 7 7 7
19 18 18 17 16 16 17 16 15 15 14 13 11 11 11 9 9 8 6 6 6 6 5 6 5 5 6 10 10 9 8 7 7 7 7 7 7 7 6 5 5 5 4 3
19 19 18 19 18 17 15 16 14 14 12 12 11 12 10 10 10 7 6 4 3 5 5 5 5 4 5 8 7 7 7 6 6 6 5 2 5 4 3 2 2 3 2 0
18 18 18 17 15 14 13 12 10 9 9 8 8 7 7 7 9 8 7 5 2 3 5 2 2 3 6 6 5 5 5 4 4 5 4 3 3 2 3 2 0 -0 -1 -1
16 13 12 13 12 10 10 9 10 10 8 9 9 10 10 8 6 6 5 2 2 1 4 5 4 5 5 4 4 3 3 3 3 2 1 1 1 0 -1 -2 -2 -2 -2 -3
11 10 9 8 8 8 10 9 10 10 10 10 8 9 7 8 6 4 3 5 4 3 4 4 4 2 3 3 2 2 2 3 -2 -0 1 1 -1 -1 -2 -3 -3 -4 -4 -5

GFSNGP_sfc_dewp_069.txt.gz
Dewpoint
26 31 27 25 24 23 23 25 24 24 22 22 24 25 26 28 29 29 28 28 30 33 39 43 47 49 51 51 52 52 51 50 52 56 56 56 57 57 57 57 56 56 56 56
32 27 28 26 25 24 24 25 25 25 25 26 26 28 29 30 30 29 29 30 32 33 33 34 41 46 48 51 53 53 53 53 52 54 54 55 57 57 57 57 56 56 56 56
32 31 28 26 28 28 29 28 29 27 30 32 29 31 33 34 34 37 36 35 35 35 33 36 37 39 46 48 51 53 53 53 53 53 53 55 55 55 55 57 57 57 56 56
31 32 24 32 30 29 31 30 29 30 29 30 30 31 35 37 38 39 39 40 40 39 37 37 40 38 39 42 48 50 51 52 53 53 53 53 54 54 55 56 56 56 57 57
26 28 31 24 30 32 34 31 29 31 31 30 29 32 37 38 39 39 40 40 43 44 45 45 45 46 41 38 40 46 50 52 51 53 53 53 53 55 55 56 56 56 56 56
29 27 23 27 31 34 29 30 28 30 30 30 29 27 28 34 38 38 38 41 44 46 48 49 50 51 49 45 40 40 45 50 51 52 53 53 55 55 56 56 56 55 51 47
28 25 21 27 31 34 26 32 33 34 35 36 35 35 37 37 37 37 39 41 45 46 47 48 48 49 50 49 50 51 49 48 50 51 53 53 54 56 56 54 46 41 39 38
26 24 22 32 29 30 36 37 38 36 37 38 38 38 39 39 38 39 40 41 43 45 46 46 46 48 48 47 48 51 52 51 50 50 51 53 52 49 48 44 39 37 35 34
24 26 35 37 38 39 40 38 38 38 37 37 37 37 37 38 40 41 40 40 41 43 43 43 40 40 41 42 44 45 44 44 43 42 41 41 42 41 39 39 38 35 32 30
30 31 34 37 37 38 38 38 37 36 36 36 36 36 36 38 37 37 36 36 37 39 38 36 35 35 36 39 39 38 36 36 36 35 35 35 35 36 35 35 34 32 30 28
24 30 34 36 37 37 37 38 37 36 35 35 34 34 34 34 34 34 34 34 34 34 34 32 32 32 33 35 37 35 33 33 33 32 31 29 29 31 31 32 33 30 29 28
32 36 36 36 37 36 36 35 35 35 34 33 32 32 32 32 31 30 30 31 30 30 31 30 30 30 31 32 34 34 32 31 31 30 30 28 27 27 30 30 30 29 28 27
34 34 36 36 35 34 34 33 33 32 31 30 30 29 30 29 27 28 26 26 26 27 27 27 28 28 29 32 31 31 30 30 29 28 27 26 25 24 24 28 30 30 30 30
32 33 35 34 34 32 31 31 31 30 28 27 25 25 24 23 22 22 23 23 24 25 24 24 25 26 28 29 29 29 29 29 28 28 28 27 26 25 25 24 23 25 28 28
28 29 32 32 29 27 27 28 28 27 27 25 24 24 22 21 20 20 21 23 23 23 23 24 23 26 28 28 27 28 28 29 28 28 28 27 27 26 26 25 24 24 24 25
26 28 28 28 26 25 25 25 25 25 24 23 22 21 21 20 19 19 21 21 21 21 22 22 23 27 29 30 29 29 28 28 28 28 28 28 28 26 25 23 22 23 23 24
25 25 25 26 27 25 24 24 23 22 21 21 21 22 21 20 20 20 21 21 21 21 22 23 23 26 28 28 29 27 27 27 25 26 26 26 25 24 23 22 20 19 20 22
23 24 24 24 24 24 23 23 22 21 20 21 21 20 19 18 18 19 20 20 20 19 20 22 23 24 24 26 25 24 24 23 22 22 22 22 21 21 21 20 20 18 19 19
21 21 22 22 23 21 21 20 20 20 21 20 19 17 17 16 16 16 16 16 15 14 16 18 17 18 19 21 21 21 21 20 19 19 19 18 19 19 19 18 17 16 15 14
20 20 19 20 20 20 19 21 21 20 21 20 19 17 16 17 18 17 14 12 13 12 12 13 13 13 13 14 15 15 17 18 15 15 16 16 16 16 14 12 13 13 14 12
19 19 19 18 19 19 19 20 18 17 17 17 15 14 13 13 12 15 12 8 10 10 10 8 9 8 8 9 10 16 15 15 15 14 14 14 14 12 12 12 12 12 12 11
19 18 18 18 17 17 19 19 18 17 17 17 17 17 16 14 11 9 9 9 8 7 7 7 7 8 9 10 10 13 11 11 11 12 12 12 12 11 10 10 10 10 9 9
20 19 19 18 17 17 17 17 17 16 15 14 13 12 11 9 9 9 5 6 6 6 6 7 6 7 8 12 12 12 10 9 9 9 9 9 9 9 8 7 8 7 7 6
20 20 20 20 20 19 17 18 16 14 13 12 11 12 12 12 11 8 7 5 5 6 6 7 7 6 7 11 10 9 9 10 9 9 8 5 8 7 6 5 4 6 4 3
20 20 20 20 17 15 14 13 11 10 9 8 8 7 7 7 10 8 9 7 4 6 8 4 4 5 9 9 8 8 8 7 6 8 7 6 6 5 5 4 3 2 2 2
19 16 14 14 13 12 11 10 11 11 10 11 11 12 12 10 9 9 8 5 5 5 7 8 7 8 8 7 7 5 6 5 6 5 4 4 4 3 3 1 1 1 1 1
13 12 11 10 9 10 11 11 13 12 12 12 10 11 10 10 9 7 6 8 8 7 8 8 8 5 4 5 5 5 5 5 2 1 3 3 2 3 1 0 0 0 -1 -1

GFSNGP_sfc_dewp_072.txt.gz
Dewpoint
35 33 34 36 32 32 31 32 30 30 30 33 34 33 30 31 30 29 30 33 34 36 41 45 49 52 52 52 53 53 52 51 53 55 56 57 56 57 56 56 55 54 55 55
29 30 32 37 32 32 34 32 29 26 28 31 31 31 34 37 38 37 38 38 38 37 36 37 44 48 51 52 53 53 52 51 52 53 55 55 56 57 57 56 56 55 55 54
29 35 34 29 32 32 30 29 30 31 35 34 32 31 37 38 39 39 39 40 41 43 43 43 41 44 44 51 53 53 53 53 52 52 52 55 55 55 55 56 56 56 55 55
30 31 25 30 37 34 34 36 37 36 35 33 30 35 37 38 39 39 39 41 44 45 47 48 50 50 50 48 45 52 53 53 53 53 53 53 54 54 55 55 55 55 55 55
29 27 31 29 36 39 32 37 40 37 34 30 27 36 34 34 38 39 40 42 45 47 49 49 48 49 50 50 48 43 51 52 53 54 53 53 53 54 54 55 55 55 55 55
31 26 25 29 37 40 39 34 37 36 34 34 32 35 35 37 37 38 40 43 44 47 47 46 46 49 50 49 49 49 52 53 53 53 53 53 54 54 54 55 55 55 54 46
29 29 25 28 38 41 31 34 39 37 35 36 35 36 38 39 39 40 40 42 43 46 44 42 42 45 45 44 44 46 48 48 46 47 50 53 55 54 55 54 46 40 36 36
27 25 23 35 35 32 39 41 36 36 37 37 37 36 36 38 39 38 38 38 39 42 40 38 37 39 40 40 41 41 40 39 38 38 39 42 48 46 45 43 39 35 34 32
25 27 38 39 38 39 39 37 36 36 35 36 36 35 35 36 37 36 35 35 35 36 36 35 34 34 35 36 38 37 35 34 33 32 31 33 36 38 38 38 36 34 32 30
32 37 37 36 37 37 37 37 36 35 35 35 35 34 35 34 34 33 33 32 33 34 32 32 32 32 33 34 37 35 34 32 31 30 29 28 29 31 32 33 32 31 30 28
36 39 39 36 35 36 35 36 35 35 34 33 33 33 33 32 30 30 29 29 30 29 29 29 29 30 31 32 34 34 32 31 30 29 28 27 28 29 29 30 31 29 28 28
36 35 38 35 34 35 34 34 34 33 32 32 31 31 31 28 28 26 25 26 25 26 25 26 26 27 28 31 31 32 30 30 30 28 27 26 25 26 30 31 31 30 30 29
31 33 36 35 33 33 32 32 32 31 29 28 27 27 26 24 24 24 23 22 23 23 25 25 25 26 27 30 30 29 29 29 27 27 26 26 26 25 23 26 29 29 30 30
29 33 33 31 30 30 30 31 30 28 26 25 25 24 23 21 21 21 21 22 21 21 23 25 26 28 29 30 30 29 28 27 27 27 26 26 25 25 25 23 21 23 27 27
28 30 30 30 28 26 27 28 28 27 25 24 23 22 21 20 20 21 23 23 21 21 22 22 24 26 30 31 29 28 28 28 28 27 27 26 26 25 24 24 23 23 23 23
27 27 27 28 27 25 25 25 25 24 23 23 21 21 21 21 20 20 20 20 19 19 20 21 21 25 28 29 28 28 26 26 27 26 26 25 24 22 21 21 20 19 21 21
24 24 24 25 27 24 24 23 23 22 21 22 23 24 23 21 19 20 20 19 18 19 19 20 21 23 26 27 27 26 26 25 24 24 24 23 22 21 20 19 18 17 18 20
23 24 25 25 25 23 22 21 21 20 20 19 20 19 17 16 15 16 17 17 16 14 17 19 20 21 21 25 24 24 23 22 22 21 21 22 21 21 21 19 18 17 16 16
22 22 22 22 21 20 19 18 19 20 20 19 17 16 17 16 15 15 15 14 13 11 13 16 17 17 17 19 20 21 19 19 19 19 18 17 17 17 18 17 16 15 14 13
20 20 18 19 20 19 19 20 19 18 19 17 16 14 13 14 18 15 13 11 12 12 12 12 14 13 13 14 16 15 16 17 15 15 15 14 15 14 13 11 13 13 12 12
19 19 19 19 19 19 19 18 17 16 16 16 14 13 12 13 12 13 11 8 10 11 10 10 10 10 10 10 11 15 15 15 14 14 14 13 12 12 12 12 11 11 10 10
19 19 19 18 17 17 18 18 17 16 16 15 16 17 16 13 11 9 8 8 7 9 7 8 9 10 11 12 12 13 12 11 12 12 11 11 11 10 9 9 8 9 8 8
20 19 18 18 17 16 17 17 16 16 15 14 14 13 11 9 8 7 4 5 5 7 6 8 7 8 10 12 12 12 11 10 9 9 9 9 8 8 7 4 7 6 5 4
20 20 19 20 20 18 16 17 15 14 13 12 12 11 12 13 12 8 6 7 8 7 6 8 7 8 9 11 11 9 8 7 10 9 9 6 8 7 7 4 4 4 1 2
20 20 20 20 17 14 14 12 11 10 10 9 9 8 8 8 10 8 10 8 6 8 9 5 7 9 9 9 7 8 9 7 5 6 7 6 5 5 4 3 2 -1 1 1
18 15 14 14 13 12 11 10 11 12 11 12 12 14 14 12 10 11 9 6 8 6 9 10 7 7 8 8 7 6 7 7 4 4 4 5 3 4 3 1 -0 1 -0 -2
14 14 11 10 10 10 11 12 15 14 14 14 12 12 11 12 10 8 7 10 10 9 10 10 10 6 5 6 7 6 6 6 2 2 3 3 2 2 1 -1 -2 -2 -3 -4

GFSNGP_sfc_dewp_075.txt.gz
Dewpoint
32 30 33 33 34 38 35 36 36 36 34 39 40 39 38 38 39 39 39 41 42 42 43 46 51 51 50 52 53 53 53 54 55 55 55 55 55 56 56 55 55 55 55 55
29 29 32 33 36 37 39 36 37 37 37 42 42 43 38 38 38 39 40 42 44 46 48 48 49 52 53 52 52 53 52 52 53 55 56 56 56 56 56 55 55 55 55 54
27 31 32 32 35 38 38 39 39 37 39 42 43 39 38 38 39 39 42 43 46 48 47 47 48 49 50 52 54 55 53 52 52 53 54 55 56 56 55 55 55 55 55 55
28 31 26 32 36 38 39 40 40 40 40 40 41 36 37 38 38 39 43 45 47 46 45 45 45 49 50 49 49 50 53 54 54 54 53 54 55 55 55 56 56 55 55 55
26 27 29 32 39 38 38 37 40 41 42 41 42 38 37 39 40 42 44 46 45 43 42 41 41 45 46 45 46 46 48 49 48 50 50 54 54 54 55 55 55 55 55 55
29 26 25 32 39 38 38 34 40 41 40 39 37 36 36 39 38 38 39 44 42 39 38 37 37 41 42 42 42 42 43 43 42 42 44 46 50 52 55 55 55 55 54 48
27 27 29 37 39 38 32 35 43 40 37 35 35 36 39 38 36 36 36 36 38 36 34 34 34 37 37 37 38 39 39 39 38 37 38 38 43 44 44 49 49 45 41 37
27 25 23 40 40 37 41 43 38 38 38 37 36 36 36 35 33 33 33 33 35 34 32 32 32 33 34 34 36 37 36 34 33 33 33 34 35 37 38 39 39 37 34 32
27 28 39 40 42 39 37 36 36 36 36 36 35 35 34 32 32 30 30 30 32 31 31 30 30 31 31 32 35 35 33 32 31 30 30 30 31 30 32 34 34 32 31 30
32 37 37 36 36 36 37 36 35 34 34 34 33 33 31 30 29 28 27 28 28 28 27 27 27 28 30 31 33 33 32 30 29 28 28 28 28 29 29 30 30 30 29 27
34 35 37 37 35 35 35 35 34 33 31 31 31 30 29 27 26 25 25 25 25 26 25 25 26 27 28 30 31 30 30 29 28 27 26 27 28 28 28 29 29 27 28 28
32 36 35 35 34 34 33 32 30 30 28 27 27 27 25 24 23 23 23 23 23 24 25 25 25 27 28 29 29 29 28 28 27 27 26 25 24 25 30 30 30 30 30 29
35 35 33 32 30 32 32 29 27 26 25 24 24 24 22 22 22 23 21 21 22 23 24 25 27 27 28 29 28 28 27 27 27 26 26 25 23 22 21 24 27 28 30 30
31 32 29 29 27 29 30 28 28 25 24 23 23 21 20 20 20 20 21 22 21 21 21 23 25 27 29 27 28 28 27 27 26 26 25 24 23 23 22 21 20 20 25 26
28 29 29 27 26 26 27 27 25 24 23 22 22 22 21 20 18 18 20 19 18 18 19 19 20 24 27 27 25 25 26 26 25 24 23 23 22 21 20 20 20 20 19 19
25 24 26 28 25 24 24 24 23 23 22 21 21 21 20 19 18 16 17 17 15 15 17 17 18 21 25 25 24 23 24 24 24 23 22 21 20 19 18 18 17 17 16 17
22 22 23 25 23 22 22 23 21 20 19 18 18 21 19 17 16 15 15 15 14 14 17 17 18 20 23 23 23 22 22 21 21 22 22 21 20 18 18 16 15 15 15 17
23 23 24 24 21 20 20 19 18 17 17 17 16 14 13 12 12 13 13 13 11 10 12 16 18 18 20 22 22 21 21 21 20 19 18 19 18 18 16 15 14 13 11 10
20 20 21 19 20 19 18 17 18 18 17 16 14 13 12 12 11 11 11 10 9 7 9 12 16 15 16 18 17 18 17 16 16 17 16 14 14 14 14 13 11 10 9 9
18 18 18 18 18 16 15 14 14 14 15 13 11 10 9 10 11 9 8 8 9 10 11 11 12 13 13 13 14 14 15 14 14 14 13 13 12 11 11 10 10 10 8 9
13 14 14 13 14 13 14 10 11 11 12 9 8 8 6 6 7 8 7 6 8 9 9 10 10 11 11 10 10 11 11 10 10 10 10 9 8 7 7 6 5 4 5 5
11 12 11 10 11 13 10 11 11 9 8 7 7 8 8 7 5 5 6 7 8 7 7 8 9 8 10 10 10 9 9 7 7 7 6 6 3 0 0 3 -1 -2 -3 2
11 12 12 9 9 10 10 8 5 6 4 3 5 6 7 8 7 5 3 7 7 5 6 6 6 8 9 9 6 5 5 7 5 2 2 0 -1 -4 -4 -3 2 -1 -8 -6
16 14 11 11 12 13 12 10 11 10 7 9 5 5 12 9 9 8 7 5 4 -1 -1 3 6 4 1 1 5 2 -4 -3 -1 -1 -0 -3 -8 -6 -2 -10 -10 -14 -14 -5
14 14 16 14 15 12 14 13 13 13 12 11 11 10 8 9 1 3 3 1 5 7 -3 -6 -0 3 -5 -9 -11 -8 -4 -12 -11 -13 -6 -8 -14 -6 -15 -16 -17 -12 -8 -11
18 15 15 15 13 13 14 15 14 13 13 10 5 -1 -2 3 7 8 4 2 1 1 -2 -7 -11 -11 -12 -6 -10 -11 -5 -5 -13 -13 -13 -10 -14 -8 -11 -16 -16 -14 -16 -17
15 13 15 13 12 11 10 12 12 9 1 0 2 1 7 3 -1 4 0 -5 -2 -7 -7 -8 -3 -6 -10 -11 -10 -10 -9 -10 -10 -11 -11 -8 -13 -14 -12 -17 -19 -18 -17 -17

GFSNGP_sfc_dewp_078.txt.gz
Dewpoint
31 31 30 29 34 33 34 36 33 31 35 41 45 45 42 40 42 44 46 48 48 48 49 52 53 53 52 53 54 54 55 55 54 55 55 55 55 55 56 55 54 54 55 55
28 28 30 31 33 31 32 36 35 35 37 42 47 47 41 39 41 44 46 46 45 46 46 47 50 52 53 54 55 55 54 55 56 55 55 55 54 54 54 55 55 55 54 54
23 29 28 28 32 32 32 37 37 35 36 44 46 44 43 39 42 45 45 44 43 43 42 43 45 47 47 48 50 52 55 54 54 55 55 55 55 55 54 55 55 55 55 55
25 28 23 33 34 39 40 40 40 40 42 43 41 42 40 44 45 45 42 40 40 40 39 39 42 43 44 44 45 46 46 47 47 47 49 52 56 55 55 55 55 55 55 55
21 24 23 30 37 39 35 35 42 41 43 43 40 37 36 38 42 40 39 37 37 37 37 36 38 39 39 39 40 41 42 42 43 44 45 47 49 49 54 56 55 56 56 55
26 22 19 32 36 40 41 33 41 43 43 42 40 35 34 35 36 35 36 35 34 34 34 33 35 37 36 37 37 37 37 37 37 38 40 42 44 44 45 47 52 55 46 38
24 24 27 32 40 42 32 35 40 40 40 40 39 37 34 33 32 32 33 33 33 31 31 31 32 35 34 35 35 34 33 32 31 32 34 35 38 39 40 43 40 37 34 33
27 26 22 39 39 36 40 42 41 40 39 39 37 34 33 30 29 30 30 30 30 30 29 29 29 31 32 32 34 32 31 30 29 29 29 30 31 33 36 37 35 34 32 30
27 28 39 41 41 42 41 39 36 37 36 36 33 31 30 28 28 27 27 27 28 27 27 27 28 29 29 31 33 31 29 28 28 28 28 28 29 30 30 32 31 30 29 29
31 36 37 37 37 37 36 33 32 32 33 33 30 29 28 26 26 25 25 25 25 26 25 26 27 28 29 30 31 30 29 27 27 27 27 28 28 28 29 28 28 28 28 27
33 34 36 36 36 33 33 32 30 28 28 29 28 26 25 24 23 23 23 24 25 25 26 26 27 28 28 28 30 28 27 27 27 26 26 25 26 28 28 30 30 28 28 28
31 34 34 34 33 31 29 27 27 26 25 25 25 24 23 22 22 22 22 22 23 23 24 25 26 27 28 28 28 27 26 26 27 26 25 24 23 24 28 29 30 30 30 29
33 35 33 30 30 29 27 25 24 24 24 22 22 22 22 21 21 22 20 20 21 21 21 24 24 25 26 27 26 26 26 25 25 24 24 23 23 22 21 22 24 26 27 27
33 35 28 27 26 29 26 25 24 22 22 21 20 20 20 19 18 17 17 19 19 19 19 20 22 24 26 24 26 24 23 22 22 22 22 21 21 22 21 19 17 17 21 23
28 28 26 26 26 27 26 24 22 21 20 21 21 19 17 15 15 16 17 17 17 17 17 18 19 21 24 24 23 23 23 22 21 20 19 18 18 18 17 17 16 16 16 16
26 27 26 24 23 23 23 22 21 21 20 19 17 16 16 15 15 14 14 14 13 13 15 15 17 19 22 21 20 19 19 20 19 18 17 16 16 16 16 15 14 14 14 14
22 21 25 21 20 19 20 20 19 18 18 17 17 16 14 14 13 12 12 13 12 12 13 15 15 18 19 19 19 19 18 18 17 18 19 18 17 16 15 14 12 11 11 13
21 21 21 21 19 17 17 17 17 17 15 15 13 10 9 9 9 10 10 9 8 8 9 11 14 14 16 17 18 17 18 17 16 15 15 16 15 14 13 12 11 10 9 9
19 18 18 18 18 16 16 15 15 14 13 12 10 9 9 8 8 7 6 6 6 6 8 10 16 13 13 16 15 15 14 13 13 14 13 11 12 12 10 9 8 8 8 7
16 16 16 15 15 14 13 12 12 11 10 8 6 6 6 5 4 4 4 5 5 7 10 10 12 12 12 11 12 12 12 11 11 9 9 8 8 7 7 6 6 6 6 5
10 11 10 10 10 9 7 3 5 6 4 3 3 -2 -3 -2 -0 -1 1 4 5 8 9 9 10 10 10 9 9 8 8 7 6 5 3 -1 -1 1 2 -1 -1 -3 1 -0
6 7 4 5 7 8 2 3 5 4 3 2 -1 -4 -1 1 -2 1 -1 5 7 4 6 8 10 7 7 8 8 6 6 5 5 4 1 -2 -6 -7 -10 -11 -15 -15 -14 -15
6 6 6 4 5 4 4 3 -1 2 -0 -3 -3 -2 3 6 6 2 2 6 6 4 7 4 3 2 3 2 -1 -2 -1 0 -0 -4 -8 -10 -12 -14 -14 -14 -17 -18 -17 -12
7 7 6 4 5 9 7 5 9 6 0 5 1 6 9 3 -1 8 7 1 -3 -6 -3 -2 -0 -3 -7 -7 -10 -12 -14 -15 -15 -15 -13 -15 -18 -18 -20 -22 -20 -22 -18 -18
11 13 15 13 15 12 13 13 12 12 11 10 9 8 7 8 -2 -1 -5 -4 3 -1 -8 -10 -7 -9 -14 -17 -18 -12 -16 -18 -20 -18 -16 -18 -16 -19 -22 -22 -21 -18 -19 -21
17 14 14 14 13 13 15 15 13 13 11 4 1 -7 -8 -1 2 3 -1 -1 -1 -1 -5 -14 -15 -17 -17 -14 -17 -16 -13 -12 -16 -18 -16 -18 -18 -17 -19 -21 -22 -22 -23 -22
13 13 13 11 11 10 9 11 7 4 3 3 4 -1 -4 -8 -7 -2 -8 -9 -10 -12 -14 -6 -4 -7 -8 -10 -12 -14 -15 -16 -17 -16 -20 -19 -20 -18 -22 -23 -24 -24 -24 -24

GFSNGP_sfc_dewp_081.txt.gz
Dewpoint
30 30 30 30 29 29 29 31 30 28 35 37 42 43 44 45 45 44 45 46 47 49 51 52 53 54 54 55 55 55 55 55 55 55 55 55 55 55 55 56 55 54 53 52
27 27 28 28 25 28 30 32 32 32 34 41 46 46 46 44 43 42 43 43 44 45 46 47 47 48 49 49 51 55 55 55 55 55 55 55 55 55 55 55 55 55 55 55
20 25 25 24 30 32 33 34 31 30 34 44 44 46 45 46 43 40 40 40 40 40 42 42 43 43 44 45 46 48 48 48 49 53 55 54 54 54 54 54 55 55 54 54
22 24 12 25 35 37 36 37 38 37 36 41 42 42 44 43 40 38 37 37 37 37 37 38 39 39 39 40 41 41 42 42 42 45 46 49 51 55 55 55 54 55 55 55
19 21 19 21 34 36 35 35 38 41 41 40 39 37 37 40 38 36 35 35 34 34 35 36 37 37 37 36 36 36 36 36 37 39 40 43 44 45 46 49 53 55 55 55
24 19 14 26 34 38 37 32 40 41 41 40 41 33 34 36 37 34 33 32 32 32 32 33 35 35 35 34 33 32 32 32 32 34 34 35 37 38 42 45 42 40 34 33
23 21 23 30 40 39 31 33 40 42 42 38 35 36 35 34 32 31 31 31 30 30 29 30 32 34 34 33 31 30 30 30 30 30 31 32 33 35 36 37 35 33 31 30
24 23 19 40 38 34 38 40 40 40 39 37 35 33 32 30 29 28 28 28 28 28 28 28 29 31 31 32 31 29 29 28 28 29 29 30 31 31 32 33 32 31 30 29
26 27 38 39 41 41 39 38 37 39 38 35 32 30 28 27 26 25 26 26 26 26 27 28 28 29 29 31 31 29 28 27 27 28 28 28 29 29 29 30 29 28 28 27
33 34 35 37 37 35 34 32 31 32 31 30 28 27 25 24 24 24 24 25 26 26 26 27 28 28 28 30 29 28 27 26 26 26 26 27 28 28 29 28 27 27 27 26
33 34 35 34 34 35 32 30 27 26 27 27 26 24 23 22 23 23 23 23 24 25 25 25 25 26 27 27 28 27 27 26 25 25 25 24 26 27 26 28 29 27 28 28
29 33 32 32 33 32 28 25 25 24 23 24 24 23 22 21 21 21 21 21 21 22 23 23 24 24 25 26 26 26 25 25 26 25 24 23 21 22 26 26 26 27 27 26
32 34 33 32 30 27 24 23 23 22 21 21 22 21 20 19 19 20 18 18 19 19 20 21 22 23 24 25 25 24 24 23 23 23 23 22 21 19 17 20 23 23 24 25
34 35 29 31 28 25 23 21 22 21 20 19 18 18 17 16 16 16 17 18 17 17 18 19 20 21 24 24 23 21 20 20 19 18 17 17 17 16 15 14 13 14 19 21
30 26 26 27 26 25 23 21 20 19 18 17 17 16 15 14 14 14 16 16 15 15 16 17 17 19 21 22 21 21 20 18 16 15 15 14 15 14 13 12 12 12 12 13
26 25 23 22 21 22 21 20 19 18 17 16 15 14 14 14 13 13 13 13 12 11 13 14 15 17 20 18 17 17 17 18 15 15 14 14 13 12 12 11 10 9 9 9
21 21 21 19 18 18 18 18 18 17 16 15 15 15 13 13 12 11 11 11 10 10 11 12 12 14 15 14 14 15 13 14 14 16 15 14 14 12 11 9 8 7 7 7
20 20 20 19 17 16 16 16 16 15 14 13 11 9 8 8 8 8 6 7 5 6 7 8 11 11 13 12 14 14 14 14 14 13 13 11 11 10 8 7 7 5 4 4
19 18 18 17 17 16 15 14 13 12 9 8 7 4 3 2 -1 -3 -4 -1 -0 1 6 6 15 10 10 14 13 12 11 9 10 10 10 7 7 8 6 5 3 1 3 2
16 16 15 14 13 13 11 8 9 7 6 6 2 0 -1 -6 -8 -7 -6 -3 -1 4 7 8 10 10 10 9 9 9 7 5 8 5 3 3 1 -1 1 2 2 0 -3 -1
8 9 8 7 4 2 -0 -3 2 1 -3 -3 -1 -7 -8 -7 -5 -7 -2 1 2 5 7 8 7 8 8 7 6 3 3 1 1 -2 -4 -7 -6 -6 -8 -8 -6 -7 -8 -8
2 4 1 3 4 3 -2 0 3 0 -1 -4 -12 -11 -6 -5 -6 -3 -7 1 5 1 5 6 6 -1 1 3 3 -0 1 0 -1 -3 -7 -9 -11 -13 -18 -17 -17 -17 -19 -19
2 3 3 1 3 1 1 -1 -5 -2 -6 -9 -8 -6 -1 3 3 -2 -3 5 6 3 6 -1 -4 -4 -5 -6 -6 -8 -8 -9 -10 -14 -17 -19 -20 -21 -20 -21 -22 -22 -23 -20
4 4 3 1 2 7 6 3 7 4 -2 3 -3 -4 6 -3 -6 6 4 -3 -9 -10 -9 -9 -8 -8 -12 -17 -17 -19 -20 -21 -21 -22 -18 -20 -25 -25 -25 -26 -22 -24 -22 -20
8 8 7 7 11 10 11 11 10 10 10 8 8 8 7 6 -4 -2 -6 -5 -1 -4 -10 -14 -11 -13 -19 -21 -20 -19 -21 -22 -23 -22 -22 -22 -22 -24 -26 -26 -26 -24 -26 -27
15 13 14 14 13 13 14 14 12 12 11 6 2 -8 -9 -6 -1 -2 -5 -6 -3 -4 -9 -16 -17 -19 -20 -18 -19 -20 -19 -16 -20 -20 -21 -21 -22 -22 -24 -24 -26 -25 -26 -27
14 11 11 10 10 9 7 8 6 5 4 3 2 -4 -6 -11 -11 -5 -9 -9 -11 -15 -14 -16 -16 -8 -13 -16 -17 -16 -16 -16 -18 -17 -23 -24 -24 -23 -24 -24 -25 -28 -30 -30

GFSNGP_sfc_dewp_084.txt.gz
Dewpoint
28 28 29 28 28 28 29 28 27 25 27 30 35 41 44 45 43 44 44 46 47 49 51 52 53 54 54 54 54 54 54 54 54 54 54 54 54 54 55 54 52 51 51 52
27 26 25 27 24 22 23 25 28 28 30 33 37 46 45 41 40 41 41 42 43 44 45 46 47 47 48 49 51 55 54 54 55 54 54 54 53 54 54 54 54 54 53 52
19 23 25 19 25 29 29 31 30 30 31 39 42 45 45 41 38 38 38 39 39 40 41 41 41 41 42 43 46 47 47 46 47 50 54 54 54 54 55 55 55 54 54 54
23 22 10 17 36 36 34 33 31 36 38 38 41 39 39 39 38 36 36 35 35 37 37 37 37 37 37 37 38 38 39 39 41 42 43 45 47 47 51 53 55 55 55 55
18 20 19 20 34 32 31 30 36 37 39 40 37 35 34 37 36 36 34 33 32 33 34 36 35 34 33 32 33 33 33 34 36 37 38 39 39 40 43 46 44 39 38 39
23 18 11 17 36 38 38 29 37 40 41 38 39 33 31 35 34 34 34 32 30 30 31 32 34 34 31 30 30 30 30 31 32 33 34 35 36 37 39 38 35 34 32 32
23 21 23 31 38 39 29 30 35 37 34 34 31 33 34 35 34 34 33 32 30 29 29 29 32 33 31 29 28 29 29 30 30 30 31 32 32 33 34 34 32 31 29 29
25 23 18 37 38 32 37 36 34 34 33 32 32 32 31 31 29 28 27 28 29 29 29 29 29 31 31 30 29 28 28 28 28 29 29 30 30 31 31 31 30 29 28 28
27 27 35 35 35 36 36 34 36 34 34 33 31 29 29 27 25 26 27 28 27 27 27 27 27 28 28 29 28 28 27 27 27 27 28 28 29 29 28 29 28 28 27 27
33 32 31 33 34 33 33 32 33 34 33 32 28 27 26 25 24 24 24 25 25 24 24 25 25 26 27 28 28 27 26 25 25 25 26 26 26 27 28 28 27 26 26 26
32 34 32 30 31 31 30 30 28 29 29 28 25 24 24 22 22 21 21 22 23 23 23 24 24 25 26 26 27 26 25 25 24 24 23 23 25 25 25 28 27 25 26 26
26 32 30 28 29 30 27 25 24 23 23 23 22 21 20 19 19 19 19 19 19 20 21 22 22 23 23 24 24 24 23 24 24 23 23 21 20 21 25 26 26 27 26 25
30 32 30 29 28 28 24 23 21 21 21 20 20 19 18 18 18 19 17 17 18 18 19 20 20 21 24 23 22 22 22 22 21 20 20 19 17 16 14 18 22 23 24 24
31 34 28 28 25 23 21 20 20 18 18 17 16 16 15 14 15 15 16 17 16 16 17 18 18 19 22 22 21 19 17 16 16 15 14 14 12 12 12 11 10 11 16 19
27 27 26 25 23 22 21 19 18 17 16 16 16 15 15 14 13 13 15 15 14 14 14 15 15 16 19 20 19 18 17 15 13 13 12 12 12 11 10 9 8 8 9 10
24 22 20 19 19 19 18 18 17 16 15 15 14 13 14 13 12 12 12 11 10 9 11 11 13 14 17 16 15 14 13 15 14 13 11 10 10 9 8 7 6 5 5 5
21 19 19 18 17 17 17 17 16 16 15 14 14 14 12 11 9 9 8 9 8 8 10 10 10 12 13 13 12 13 12 12 12 12 12 11 10 8 7 6 5 4 3 2
19 19 18 17 16 15 15 15 15 13 12 10 8 5 3 3 3 2 1 3 2 3 5 5 7 7 9 9 11 11 11 12 12 10 9 7 7 6 4 4 3 2 1 -0
17 17 16 16 15 14 13 12 11 9 7 5 3 -0 -2 -5 -7 -9 -8 -3 -2 1 4 3 14 9 8 12 10 9 8 6 8 7 7 3 2 4 1 -1 -3 -4 -3 -3
14 14 13 12 11 11 9 6 7 5 3 1 -2 -2 -3 -9 -12 -9 -9 -3 -2 2 5 6 8 8 8 7 7 6 4 1 5 1 -1 -2 -7 -9 -7 -4 -4 -9 -14 -13
6 7 6 5 1 1 -2 -5 0 -2 -6 -7 -3 -11 -10 -11 -10 -11 -4 0 3 4 6 5 5 6 6 4 3 -2 -2 -4 -6 -7 -10 -13 -14 -13 -17 -19 -17 -19 -17 -15
1 2 -2 1 3 0 -4 -3 -1 -5 -6 -9 -16 -16 -11 -7 -8 -6 -9 -1 5 -1 3 4 2 -6 -1 0 -0 -5 -2 -4 -6 -8 -13 -17 -19 -22 -23 -24 -22 -23 -24 -24
-1 1 1 -1 1 -1 -3 -4 -7 -6 -8 -11 -10 -8 -2 1 2 -4 -5 3 5 1 3 -4 -8 -9 -11 -11 -12 -15 -14 -16 -18 -19 -21 -24 -25 -26 -24 -23 -24 -25 -24 -21
2 2 1 -0 0 5 5 1 5 4 -4 0 -4 -8 4 -5 -8 5 2 -5 -10 -13 -11 -11 -12 -11 -15 -20 -21 -22 -22 -24 -23 -24 -20 -23 -28 -29 -27 -28 -24 -27 -27 -25
6 5 5 6 10 10 9 9 9 9 9 9 9 9 7 5 -6 -4 -8 -6 -3 -6 -11 -16 -13 -15 -22 -23 -23 -23 -23 -25 -25 -26 -24 -24 -24 -26 -28 -29 -28 -26 -28 -29
15 13 13 14 13 11 12 12 9 9 10 3 1 -8 -10 -8 -4 -4 -7 -8 -6 -6 -10 -17 -20 -22 -21 -19 -21 -22 -21 -18 -21 -22 -24 -23 -26 -24 -27 -26 -28 -27 -29 -30
12 10 10 9 8 7 5 5 1 -1 2 1 1 -6 -7 -13 -14 -8 -11 -13 -14 -15 -17 -20 -20 -13 -15 -19 -19 -19 -15 -16 -17 -18 -23 -26 -27 -26 -26 -24 -25 -27 -31 -32

GFSNGP_sfc_dewp_087.txt.gz
Dewpoint
26 27 27 26 25 26 25 24 22 19 20 24 30 32 40 41 40 39 39 40 42 45 48 51 53 53 52 54 55 55 55 55 55 56 57 57 57 56 56 55 54 54 55 55
23 25 24 22 22 21 21 23 23 24 27 32 35 38 41 39 37 36 36 37 39 40 42 43 45 47 47 50 55 55 55 55 55 56 56 56 57 57 57 56 55 54 53 54
21 23 22 16 22 22 23 28 31 27 30 32 38 40 40 37 35 34 34 34 35 37 38 39 40 40 42 42 43 44 44 44 46 50 50 51 54 55 56 56 57 56 55 54
22 22 6 18 23 31 33 32 32 33 35 35 39 37 36 37 35 33 33 33 33 34 36 35 36 36 37 37 37 38 38 38 39 42 42 43 44 46 48 47 45 46 44 47
22 19 17 20 33 30 32 29 35 34 35 36 36 33 33 35 35 34 33 32 32 32 33 35 33 33 33 32 33 33 33 34 35 37 37 38 39 40 42 40 37 36 35 36
23 15 12 15 33 36 37 29 34 33 32 39 36 32 29 34 34 33 33 33 32 31 31 32 33 32 31 30 30 30 31 31 32 33 34 34 36 36 35 34 33 32 31 32
21 19 20 33 35 38 28 29 34 33 31 29 27 30 32 33 31 32 32 32 32 30 29 29 32 32 31 29 29 29 30 31 31 31 32 32 33 33 33 32 31 30 29 30
22 22 18 34 34 31 35 35 34 32 31 29 28 28 28 29 29 29 29 30 30 28 28 28 28 30 29 28 28 28 29 28 29 29 30 30 31 31 31 31 30 29 29 29
30 28 32 33 31 33 34 33 33 32 32 29 27 27 27 26 26 26 27 27 27 26 26 27 27 27 28 27 27 27 26 26 26 27 27 28 29 30 30 29 29 28 28 28
28 29 28 30 31 31 30 30 30 31 30 29 26 26 25 24 23 22 22 23 23 23 24 24 26 26 28 29 27 26 25 24 25 25 25 26 26 27 27 28 28 27 27 27
30 31 30 27 29 29 29 29 28 28 28 26 24 23 22 22 22 22 21 21 21 21 21 22 23 23 24 25 26 25 24 24 23 23 24 24 25 25 26 27 26 25 25 25
23 29 26 25 27 28 25 25 25 23 21 20 20 20 19 19 18 18 18 19 19 19 20 21 21 22 22 23 24 23 23 23 23 23 22 21 20 21 25 25 26 26 26 26
30 29 27 26 26 27 23 22 22 19 18 17 17 17 17 17 17 18 16 16 17 17 18 19 19 19 21 21 21 21 22 22 21 21 21 19 19 18 17 19 21 22 23 23
31 30 25 26 23 25 22 20 19 16 16 16 15 15 14 14 14 14 15 15 15 15 16 17 17 19 22 22 21 20 19 18 20 20 19 19 19 18 18 18 17 16 16 19
26 26 25 24 21 19 18 17 16 16 15 15 15 14 14 13 13 13 14 14 14 14 14 15 15 17 20 20 19 20 19 18 19 19 18 17 17 17 15 15 14 13 14 12
22 20 19 17 17 18 18 15 15 15 14 14 13 13 13 12 11 11 11 11 11 11 12 12 13 15 17 18 19 18 18 16 17 18 17 17 15 14 13 12 11 10 9 9
21 19 18 16 16 16 16 15 14 13 13 12 13 13 11 10 8 8 8 9 9 9 11 12 11 12 14 14 17 18 18 17 15 16 15 14 14 12 11 10 8 7 7 6
18 18 17 17 15 15 15 14 13 12 11 10 8 6 5 4 5 5 4 6 7 8 8 9 13 12 13 14 15 16 16 15 14 13 12 12 11 9 9 8 6 6 6 4
17 16 15 15 15 14 13 12 11 9 8 7 5 2 1 0 2 2 3 4 5 6 7 9 12 11 11 13 12 13 13 13 12 10 10 8 9 8 8 8 6 6 5 4
14 13 12 12 12 11 9 8 9 6 5 4 2 3 3 -0 -2 1 4 5 6 7 8 8 9 9 9 7 8 8 11 12 9 9 9 8 9 8 7 4 5 5 6 4
10 10 9 7 5 4 4 5 6 4 2 2 4 0 -0 0 1 1 5 5 7 7 7 6 6 6 5 4 5 9 9 9 8 7 7 7 7 6 6 5 5 5 5 5
8 7 6 6 7 5 3 5 4 2 2 -1 -5 -3 1 4 3 4 2 6 7 4 5 5 3 -1 2 5 6 8 6 6 6 6 5 5 5 5 4 4 3 3 3 3
8 8 8 7 8 7 5 5 2 3 2 1 2 4 6 6 6 4 3 5 7 5 5 5 -1 -3 -3 5 5 5 5 4 4 3 3 3 3 3 3 2 2 2 2 2
10 10 9 7 8 10 10 10 10 8 5 6 4 1 7 7 8 8 5 -0 -3 1 4 4 2 -3 -2 4 3 3 3 3 3 3 3 -6 2 0 2 1 1 2 -0 -2
11 10 10 10 11 12 10 9 8 8 9 8 8 9 8 7 8 8 8 8 2 3 7 -5 -6 -6 5 5 4 3 3 3 3 3 3 3 3 2 2 1 -1 0 -1 -2
14 14 14 14 14 14 14 13 12 11 11 10 10 9 7 6 7 7 7 3 6 3 8 8 5 4 4 4 4 3 3 3 2 2 0 1 1 1 0 -1 -1 -1 -1 -2
15 13 12 11 10 10 10 9 11 11 10 11 11 11 8 8 7 5 3 8 7 6 7 6 5 3 5 5 5 4 3 4 1 3 2 1 0 1 0 0 0 -1 -2 -4

GFSNGP_sfc_dewp_093.txt.gz
Dewpoint
27 24 23 25 24 24 24 24 18 16 14 19 28 32 35 38 38 38 37 35 35 37 38 39 41 45 54 55 55 55 55 53 55 55 56 57 57 57 57 58 58 58 58 58
18 16 15 16 16 16 16 16 15 17 19 30 31 34 37 38 36 35 34 34 33 34 35 36 38 40 44 50 54 55 54 54 54 55 55 56 56 57 56 56 56 57 57 57
17 13 11 13 13 14 15 21 28 25 29 30 31 34 34 34 34 33 33 33 32 32 34 35 35 37 38 42 45 45 45 46 48 50 51 51 54 53 53 55 56 52 51 45
19 18 16 22 23 22 27 31 30 29 29 29 31 32 31 31 30 30 31 31 31 31 33 34 34 35 36 36 38 39 39 40 42 43 44 44 44 43 42 41 41 41 40 39
20 17 15 23 24 25 26 31 31 30 29 28 32 28 27 29 30 29 30 30 32 33 32 32 33 34 33 33 33 34 35 36 37 38 38 38 37 37 37 36 35 34 34 34
21 13 13 27 28 31 32 28 31 30 28 28 33 30 24 29 29 29 30 30 30 32 31 32 32 32 32 31 32 32 33 33 34 35 34 34 34 33 33 32 32 31 30 31
22 20 27 28 29 31 30 27 31 30 28 28 24 27 29 30 30 30 30 30 29 29 28 30 32 31 30 30 30 32 34 34 34 34 33 33 33 33 32 32 31 30 30 30
24 22 23 29 28 28 30 34 34 30 31 28 30 30 30 30 30 30 30 29 29 28 28 29 31 31 30 29 32 32 33 32 32 33 33 33 33 33 33 32 32 31 30 30
26 25 31 29 29 31 32 31 33 31 31 30 29 28 28 28 27 28 29 30 29 28 27 28 29 31 29 31 32 32 30 30 30 32 31 30 30 32 32 32 31 30 30 30
29 29 26 27 29 30 30 30 31 31 30 29 27 27 26 26 25 25 26 25 27 26 26 26 28 28 31 32 33 31 31 29 28 27 27 28 26 26 26 29 29 29 29 29
28 30 29 28 29 30 29 30 28 29 29 28 26 25 25 25 25 25 26 26 26 25 25 25 26 27 29 31 33 30 29 30 29 26 24 22 23 25 25 26 27 27 26 27
26 31 28 26 28 28 26 26 27 26 25 26 25 24 23 22 21 20 20 21 21 22 22 22 23 25 26 28 30 29 28 28 28 27 27 25 21 20 24 24 24 24 26 26
30 30 29 28 27 27 25 25 25 24 24 23 20 19 18 17 17 18 17 17 18 19 19 20 21 22 24 25 24 24 25 25 25 26 26 26 27 24 19 21 22 23 22 23
32 29 28 28 25 27 26 25 25 21 19 18 18 17 17 17 17 17 17 17 17 17 18 18 19 21 25 25 25 26 25 24 25 26 26 26 26 25 25 24 22 21 19 19
29 28 26 24 22 19 19 19 19 19 18 18 18 18 18 17 16 16 16 17 16 15 15 16 16 19 21 24 23 23 23 24 24 25 25 25 25 24 23 22 21 21 21 20
24 21 20 20 19 18 18 18 17 17 17 17 16 16 16 16 15 14 13 13 13 14 15 16 15 17 19 22 23 23 23 23 24 24 24 23 23 22 21 19 18 15 14 15
20 19 19 18 18 18 17 17 17 17 16 15 15 16 14 12 11 12 12 13 13 14 14 15 15 17 19 21 22 22 22 21 20 21 20 20 19 18 17 17 15 12 12 13
21 21 20 19 18 18 17 17 17 16 14 11 11 10 10 10 10 11 12 13 14 13 13 14 15 17 16 17 19 19 19 18 17 17 17 17 16 15 16 15 13 13 13 12
19 19 19 18 18 17 17 16 15 12 12 11 10 8 8 9 10 11 12 12 12 12 12 13 13 13 13 14 15 17 17 17 15 15 15 15 17 15 16 16 14 14 13 12
18 18 18 18 17 17 15 14 13 12 12 11 10 9 9 7 8 10 12 11 10 11 12 11 11 11 9 9 12 12 16 17 13 14 15 15 16 16 15 10 12 13 14 13
20 18 17 15 15 15 14 13 12 11 11 10 9 8 8 9 9 10 14 12 11 10 9 8 6 5 5 8 8 16 15 15 15 14 15 14 14 13 13 13 12 12 12 12
17 16 15 14 14 14 14 14 13 11 10 9 8 9 12 13 11 11 10 11 10 8 9 9 6 5 6 10 10 14 12 11 12 13 13 13 13 12 12 11 11 11 11 11
18 17 16 15 14 15 14 14 13 12 11 10 11 12 12 12 10 11 12 8 8 8 9 10 6 5 7 13 13 12 11 10 10 10 11 11 11 10 10 9 8 9 9 9
18 17 16 17 15 15 15 15 15 14 13 13 11 11 13 14 17 11 11 9 5 9 11 10 8 6 6 13 12 11 11 11 11 11 9 7 10 9 9 8 7 7 7 6
17 17 17 17 18 17 15 14 12 12 12 11 11 11 11 11 14 13 14 13 8 10 12 10 7 6 13 12 11 10 10 11 11 8 9 9 8 8 8 8 7 7 6 6
18 18 18 16 15 13 13 12 13 14 13 14 15 19 18 17 14 12 13 11 10 9 12 14 14 12 11 12 12 10 10 9 9 9 8 7 8 8 7 6 6 6 6 6
18 17 15 14 14 14 14 11 14 15 15 17 15 17 15 16 16 13 11 13 14 14 13 14 14 12 11 10 10 10 10 10 8 8 8 8 8 8 8 7 7 6 6 5

GFSNGP_sfc_dewp_096.txt.gz
Dewpoint
32 32 31 32 31 34 31 28 22 19 25 28 30 34 35 35 35 35 34 33 33 33 35 35 36 37 40 43 56 57 56 55 56 57 57 57 58 58 58 57 56 56 56 55
30 31 28 31 32 31 21 22 19 20 23 29 31 33 32 32 31 31 31 30 31 31 33 33 34 35 37 39 44 56 53 54 56 56 57 57 57 58 58 58 58 57 57 57
16 11 14 18 16 16 28 29 27 26 27 28 31 30 29 29 28 28 28 29 29 30 31 32 33 34 35 36 40 44 46 47 49 50 50 49 49 48 47 49 47 45 43 41
19 20 20 23 25 30 31 29 28 28 27 28 30 27 27 28 27 26 27 28 28 29 30 31 32 33 34 34 35 37 38 40 42 43 42 42 41 40 40 40 39 39 38 38
20 24 27 28 27 28 30 29 29 28 27 28 32 27 26 29 29 28 28 29 29 29 31 32 31 32 32 32 32 33 34 35 36 38 37 36 35 35 35 34 33 33 33 33
22 15 19 25 27 29 30 25 30 28 27 28 29 26 24 29 30 29 29 29 28 28 28 30 31 32 31 30 31 31 32 34 34 34 34 33 33 33 33 32 31 30 30 31
23 24 25 26 27 29 27 25 31 29 27 25 23 26 29 30 29 31 30 29 29 28 27 28 31 31 30 29 29 31 32 31 32 34 33 33 33 32 32 31 30 29 28 29
27 26 20 27 26 24 30 33 32 29 29 27 28 28 28 28 28 28 28 28 28 27 27 28 29 31 29 29 30 30 29 30 30 30 30 32 34 33 33 32 31 31 30 29
24 25 29 28 29 31 31 29 30 29 29 27 26 26 27 26 26 27 27 27 28 26 26 27 28 29 29 30 31 30 28 26 26 28 29 29 28 29 31 32 31 30 28 27
28 27 25 27 29 30 29 28 29 30 29 27 25 26 25 25 25 25 26 26 27 26 25 25 27 27 29 31 31 31 28 27 25 25 25 26 26 26 26 28 26 28 27 25
27 28 26 25 28 29 29 29 28 29 28 27 25 25 25 25 25 26 26 26 26 25 25 25 26 28 28 30 31 29 29 29 27 25 24 23 24 24 24 26 27 25 24 25
24 30 26 25 29 28 26 27 27 26 25 26 26 24 23 21 20 20 21 21 20 20 20 21 23 24 26 27 27 29 28 27 27 28 25 23 22 21 25 26 26 26 25 24
28 29 28 28 27 25 25 26 25 25 25 24 22 20 18 19 18 18 17 17 17 18 18 19 20 22 23 24 26 24 25 25 25 26 26 26 25 21 18 22 24 24 25 26
34 29 27 28 24 24 24 24 24 22 21 22 20 18 17 16 15 16 16 15 14 14 14 16 17 20 23 25 24 25 25 24 24 25 25 25 25 24 24 22 19 19 21 21
29 28 26 23 20 20 20 19 19 18 19 18 18 18 16 15 14 14 15 15 14 14 14 15 15 17 20 23 24 23 24 25 26 25 25 25 24 23 22 20 18 17 18 20
24 21 21 19 19 19 19 18 18 18 18 17 16 16 16 14 13 12 12 13 13 13 14 15 16 16 18 20 23 24 23 22 23 24 23 23 22 21 19 17 14 13 13 14
21 20 20 19 19 18 18 18 17 16 15 13 11 12 12 11 11 12 14 14 13 14 14 14 15 16 16 17 20 22 23 22 20 20 20 20 20 18 18 17 14 12 12 14
22 22 21 20 18 18 18 18 16 13 11 10 11 11 10 10 11 12 13 15 14 11 13 13 14 15 15 16 18 20 20 19 18 18 18 18 18 18 18 16 15 14 14 13
21 20 20 19 19 18 17 15 13 12 12 12 10 8 8 8 11 12 12 9 10 10 12 12 15 14 14 14 15 18 19 18 16 16 18 17 17 14 16 17 16 15 14 13
19 19 19 18 18 17 14 14 14 13 13 12 9 9 9 7 7 9 14 11 10 11 14 12 10 11 10 11 13 14 17 17 15 16 16 16 16 18 15 11 14 15 15 13
20 19 17 16 14 14 14 13 12 11 10 9 9 7 7 10 9 8 13 15 12 11 12 9 7 4 6 8 10 16 15 15 16 15 15 15 15 14 14 13 13 13 12 13
18 16 15 15 14 14 14 14 13 11 11 8 5 7 9 14 11 11 9 11 11 7 11 10 5 4 6 8 13 14 13 12 13 13 13 13 12 12 13 11 11 9 10 9
18 17 16 14 15 16 16 15 13 13 10 9 11 13 14 14 12 11 13 8 8 7 11 10 3 3 5 14 14 13 13 12 12 11 12 10 11 10 9 10 6 9 7 8
19 18 18 18 17 16 15 15 15 16 14 14 13 11 12 14 18 15 12 9 7 7 12 12 8 4 2 13 14 13 12 12 13 11 10 6 12 10 10 7 5 7 7 4
19 18 18 17 17 19 15 15 13 14 14 13 13 13 14 12 16 15 16 14 11 9 14 10 7 5 11 15 14 13 13 12 12 9 9 10 10 9 10 10 6 8 4 1
18 17 18 19 17 13 12 11 14 15 14 16 18 22 20 19 17 15 17 16 14 11 15 17 16 15 14 13 13 12 12 12 11 12 9 9 10 9 9 8 7 6 5 7
20 21 16 14 13 13 15 12 14 17 18 19 17 19 18 19 19 15 13 16 17 17 17 17 17 15 15 13 12 12 12 12 10 11 9 7 6 8 7 8 8 8 7 3

GFSNGP_sfc_dewp_099.txt.gz
Dewpoint
27 25 27 28 29 34 34 34 31 30 27 31 29 28 28 29 29 28 28 28 29 29 31 31 33 34 36 37 40 43 56 56 57 57 57 57 58 57 57 56 56 56 55 55
31 33 33 34 34 33 32 31 31 29 26 31 28 27 26 26 25 25 26 26 27 28 29 30 31 33 34 35 37 40 44 52 55 56 57 57 58 57 57 56 56 55 55 55
27 31 30 29 30 27 27 27 27 25 26 29 25 25 25 25 25 25 25 25 26 27 29 30 31 32 33 34 34 36 36 40 45 47 47 47 47 46 46 44 43 42 41 41
24 25 20 29 30 29 27 26 25 25 26 28 25 26 26 27 25 24 25 25 25 27 28 30 31 31 32 32 32 32 34 34 37 40 39 40 40 39 38 37 37 36 36 37
24 26 27 24 25 26 30 26 27 25 25 29 28 27 24 28 27 27 27 27 27 28 28 29 30 31 30 31 31 31 31 33 34 35 34 34 34 34 34 33 33 32 33 34
24 22 19 24 25 27 28 20 27 25 24 22 25 18 21 27 28 27 27 27 27 27 27 28 30 30 28 28 28 29 31 31 32 34 33 32 32 32 32 31 31 30 31 32
25 23 23 25 26 27 14 22 28 26 25 24 21 24 27 27 26 27 27 26 27 26 25 27 30 29 28 27 26 28 29 30 30 31 32 33 33 32 32 31 30 29 29 30
24 20 16 27 23 21 29 30 29 27 27 23 23 24 25 25 25 26 25 26 26 24 25 26 28 29 28 28 29 27 27 26 27 28 29 31 31 31 32 30 29 29 29 28
25 22 28 27 27 28 28 27 28 27 27 24 22 22 24 24 25 25 25 25 26 24 23 25 27 28 27 29 29 27 25 24 25 25 26 27 27 28 28 29 27 26 26 26
25 25 25 28 27 27 27 27 28 28 26 25 23 24 23 24 24 25 24 23 24 23 22 23 24 26 28 29 30 29 26 25 24 24 24 25 25 25 26 25 25 25 25 25
25 26 25 25 27 28 28 28 27 28 27 26 25 23 23 22 22 22 23 23 22 22 21 22 25 25 27 28 29 28 27 28 25 24 22 22 24 24 25 26 26 24 25 26
20 27 24 25 27 28 26 26 27 26 25 26 25 23 21 20 19 18 18 18 18 18 19 19 20 23 23 26 25 25 25 26 27 26 24 22 21 22 26 27 28 28 28 27
27 26 25 26 27 27 26 27 27 25 23 22 21 20 17 18 17 17 15 14 14 14 14 16 18 19 21 23 25 25 24 24 24 25 25 25 23 22 18 22 26 26 27 28
30 27 25 28 24 26 26 25 24 22 21 20 17 16 15 13 13 14 14 14 13 14 15 14 15 16 19 22 23 23 25 25 24 24 24 23 22 21 20 19 18 18 23 22
29 27 26 27 27 24 20 19 19 19 18 18 18 17 15 13 13 13 14 14 13 13 13 14 13 14 17 19 23 22 22 22 23 23 23 22 21 18 16 14 14 14 15 18
27 22 21 20 20 20 19 19 20 18 17 15 15 14 14 13 14 13 13 13 12 11 13 11 13 14 15 16 17 21 20 20 19 20 19 19 19 17 14 12 12 12 12 14
22 21 20 20 19 18 18 17 15 13 11 10 10 11 12 12 12 12 13 12 10 9 10 9 7 9 10 11 13 18 17 17 16 17 17 18 18 17 16 13 11 11 12 15
22 22 21 20 19 18 16 14 12 10 9 9 8 4 2 2 3 4 4 4 1 2 2 4 7 7 9 11 15 18 17 17 16 17 18 14 15 16 14 13 13 11 12 12
21 21 21 20 19 17 14 12 11 10 6 3 1 -2 -4 -6 -4 -4 -4 -3 -5 -4 3 1 12 8 9 12 12 15 14 13 13 14 15 13 9 10 9 13 9 7 7 8
19 18 17 16 15 13 11 6 6 5 2 1 -4 -5 -4 -6 -6 -5 3 -2 -2 2 5 6 7 6 9 10 9 13 12 11 13 10 9 7 6 5 7 6 7 10 8 3
15 14 11 9 7 4 3 -0 0 -2 -3 -5 -3 -5 -4 -3 -2 -5 4 9 3 4 11 7 6 5 7 5 10 6 5 5 7 11 5 5 9 10 0 -3 3 -4 -5 -2
10 8 6 6 7 4 1 2 2 -1 -2 -4 -6 -7 -6 2 -1 1 -2 5 9 2 9 7 6 -1 2 2 9 2 6 4 2 2 0 -1 -3 -5 1 -0 -5 -6 3 4
10 10 10 7 7 7 4 3 1 1 -2 -3 -2 1 4 9 12 8 7 9 10 3 11 4 -0 -3 -4 -4 3 -4 -4 -3 -4 -4 2 -7 -9 -6 -10 -6 -9 -5 -4 -9
13 11 7 7 9 10 10 8 10 12 5 8 6 2 8 5 6 15 10 4 0 -1 -2 -0 -2 -0 -5 -7 5 -5 -5 -7 3 -7 -7 -4 1 -4 -7 -9 -2 -6 -9 -1
13 11 11 9 14 15 17 17 15 16 16 14 15 14 10 15 6 7 4 5 7 3 1 1 1 2 -5 -5 -5 4 -3 -6 -5 -9 -9 -9 -8 -9 -8 -5 -9 -9 -12 -14
17 17 17 18 19 20 18 17 14 16 15 9 11 14 14 14 10 7 6 6 8 6 3 10 3 5 6 5 1 -5 -4 -0 5 1 0 -6 -7 -4 -1 -1 -5 -7 -9 -7
19 20 21 17 16 16 13 12 9 8 7 3 2 2 7 7 6 8 7 6 9 13 10 7 7 8 9 3 2 -2 -3 -2 1 5 1 -5 -8 -7 -2 -5 -4 -0 -2 -8

GFSNGP_sfc_dewp_102.txt.gz
Dewpoint
27 25 24 23 32 33 32 32 27 27 26 26 25 25 24 24 24 25 24 25 26 27 28 29 31 32 33 34 37 40 40 44 51 58 58 58 57 56 56 56 56 56 55 55
27 29 28 29 33 28 27 30 30 27 25 26 24 22 22 23 23 23 23 24 25 25 27 28 30 31 32 33 34 36 37 37 40 47 56 56 57 57 55 52 53 53 53 51
27 31 32 24 28 25 25 25 24 22 27 23 21 22 23 22 22 22 23 23 24 25 27 29 29 29 30 32 33 33 34 34 36 38 42 43 45 43 43 42 41 40 40 40
28 29 16 28 32 26 24 24 24 24 28 23 23 24 25 26 22 22 23 23 24 25 26 29 29 28 28 28 30 31 32 32 34 35 35 36 37 36 36 36 35 35 35 36
27 24 26 25 24 24 26 22 26 23 25 27 27 21 22 25 26 24 24 25 25 26 27 28 29 29 27 26 26 27 29 31 32 34 33 32 32 32 33 32 32 32 33 33
28 20 17 22 22 25 27 17 27 24 22 20 26 16 19 24 25 25 25 25 25 26 25 26 29 28 26 25 25 25 26 28 30 31 32 32 32 31 31 31 30 30 30 31
24 21 22 23 24 26 16 18 27 24 22 21 18 21 24 25 24 25 25 24 24 23 24 26 28 28 25 24 23 26 27 27 27 28 30 31 31 31 31 30 29 29 29 30
21 18 15 25 21 20 26 28 27 24 23 21 21 22 22 22 23 23 23 23 23 22 22 24 26 26 26 26 27 26 25 25 25 26 27 28 29 29 30 29 28 28 28 28
22 20 26 26 25 27 28 26 27 24 23 22 20 20 21 22 23 22 22 22 22 21 21 23 24 25 24 28 29 26 24 23 24 25 25 26 26 26 26 27 27 27 27 27
22 24 25 27 27 27 27 27 26 25 25 23 20 20 20 21 21 21 21 21 21 20 19 20 23 24 26 26 28 28 25 24 23 23 23 25 25 26 25 24 25 25 26 27
23 24 24 25 27 27 26 26 26 25 24 23 22 22 21 20 19 19 18 18 18 18 18 19 20 21 23 25 25 25 25 26 24 23 22 22 24 25 25 27 27 25 26 27
19 25 23 24 27 27 26 25 25 23 23 25 24 22 20 17 16 15 14 14 14 14 16 17 18 19 21 23 25 23 24 24 25 25 23 22 21 21 26 27 28 29 29 29
23 26 24 25 27 26 25 25 24 23 22 21 20 16 15 15 15 15 12 12 13 13 14 14 15 17 18 21 22 24 23 23 23 23 23 22 21 20 18 21 23 26 27 27
25 25 23 23 24 26 24 23 24 22 21 16 14 12 11 11 12 13 12 12 11 12 13 13 13 14 17 19 22 21 21 21 22 22 21 19 18 17 16 15 15 16 20 22
28 27 25 25 25 22 20 19 18 17 17 16 15 13 12 12 11 12 13 12 12 12 11 11 11 11 14 17 20 19 19 19 18 18 18 18 16 14 14 13 13 14 16 16
24 25 26 24 20 19 19 19 17 16 14 13 12 12 13 14 14 13 11 11 9 8 9 6 9 9 13 13 16 16 14 15 14 15 16 15 14 12 11 11 12 13 13 14
22 22 22 20 19 19 17 16 14 12 11 11 11 13 11 12 11 11 11 10 7 4 6 5 3 4 7 9 11 13 11 13 13 14 15 15 14 12 10 10 10 11 11 12
23 22 21 19 18 16 14 13 10 8 9 9 6 3 1 1 1 -0 -1 0 -1 0 0 -2 -0 4 7 10 11 14 13 13 14 16 12 9 13 14 11 10 9 9 7 6
21 21 20 19 17 15 13 11 10 8 4 -0 -2 -4 -7 -10 -8 -7 -10 -9 -10 -6 -1 -2 11 6 8 11 12 12 11 9 11 11 11 8 5 7 7 7 6 -0 -0 3
19 18 17 16 14 12 9 4 5 3 -2 -3 -10 -9 -7 -9 -11 -10 -6 -4 -4 0 2 4 6 7 9 9 8 9 8 6 11 6 4 9 4 -3 -2 4 7 5 2 0
14 12 10 8 4 1 2 -0 0 -3 -6 -9 -4 -7 -6 -6 -8 -11 -2 4 1 3 7 4 4 4 5 5 9 -2 -2 -4 -3 -2 -5 -7 -2 3 -3 -10 -9 -8 -9 -5
10 8 5 4 4 0 -5 -3 -2 -6 -6 -7 -11 -12 -11 -1 -5 -2 -4 4 7 2 7 6 5 -4 0 0 5 -5 1 -1 -3 -4 -8 -10 -12 -11 -10 -12 -11 -11 -7 -5
7 6 6 4 5 4 -1 -2 -4 -4 -5 -6 -5 -3 1 7 8 5 3 9 9 2 9 3 -2 -4 -6 -11 -6 -10 -10 -9 -7 -8 -9 -14 -11 -10 -13 -12 -14 -14 -14 -14
7 7 4 2 4 8 8 5 7 9 1 4 4 -0 6 4 4 12 10 5 1 -2 -5 -5 -4 -1 -5 -12 -11 -9 -11 -12 -10 -13 -12 -11 -14 -12 -10 -7 -4 -11 -15 -12
10 8 8 9 12 11 13 14 13 13 14 13 14 14 10 12 8 9 4 4 4 3 1 -4 -2 -2 -8 -11 -13 -11 -9 -12 -13 -13 -10 -14 -13 -15 -16 -11 -6 -5 -7 -14
15 15 15 15 15 16 18 19 15 15 16 12 9 4 7 11 13 9 5 2 4 5 2 5 4 -4 -1 2 0 -2 -7 -7 -8 -7 -3 -2 -11 -13 -13 -11 -12 -11 -5 -9
17 16 17 17 18 15 13 13 9 6 3 -0 2 0 3 -1 2 5 5 5 7 7 8 7 6 7 9 8 7 7 4 -1 -6 -4 -8 -11 -14 -13 -15 -12 -14 -14 -12 -9

GFSNGP_sfc_dewp_105.txt.gz
Dewpoint
26 23 25 29 30 31 30 32 24 25 22 23 22 22 23 23 22 21 21 22 24 25 26 28 28 29 30 32 34 36 38 38 40 46 57 57 57 56 56 56 56 56 56 55
25 27 30 25 26 23 28 29 28 24 20 23 21 20 19 20 20 21 22 22 23 24 25 27 28 28 28 29 31 34 34 35 37 38 40 43 51 55 52 49 48 48 46 47
25 29 24 15 24 24 24 24 23 21 23 21 19 19 21 20 20 21 22 22 23 24 25 28 28 27 26 27 28 30 31 33 34 35 35 35 37 39 40 41 40 39 39 39
27 28 14 25 30 27 23 23 23 25 23 21 21 22 23 24 22 21 21 22 23 24 25 28 27 26 26 25 26 26 27 29 32 33 32 32 32 33 34 35 35 35 35 35
26 21 24 27 23 23 25 20 24 22 24 24 23 25 19 23 24 23 23 24 24 25 26 27 28 26 25 24 24 25 26 26 28 31 31 31 31 31 31 32 32 32 33 33
26 20 16 21 21 24 25 14 24 21 20 20 25 17 16 23 24 24 23 24 23 24 24 25 27 27 24 23 23 23 25 26 27 28 29 30 30 30 31 31 30 30 30 31
23 20 21 22 23 28 16 17 24 22 20 19 16 19 22 23 22 23 23 23 22 23 23 24 26 26 25 24 23 23 24 25 26 27 28 28 29 30 30 30 30 30 29 30
21 18 16 23 21 19 25 26 24 22 21 18 18 19 22 22 21 21 20 20 20 19 20 23 25 24 23 25 26 23 22 22 23 25 26 27 27 27 28 28 28 29 28 28
21 18 24 25 25 28 28 25 24 22 22 21 19 19 20 20 20 19 19 18 19 18 18 20 22 24 22 24 26 23 22 21 22 23 25 26 26 26 26 27 27 27 28 27
20 23 24 24 25 25 25 24 25 25 23 22 19 19 18 18 17 17 16 16 17 17 17 17 19 21 23 24 23 24 23 22 21 21 22 24 25 25 25 26 26 26 26 26
21 23 23 24 25 25 25 26 25 24 23 22 21 19 17 13 14 14 13 14 15 16 17 17 18 19 20 23 23 23 23 24 23 22 21 21 22 24 25 26 28 26 26 26
18 22 22 22 26 26 24 23 23 23 23 23 21 17 16 15 14 12 12 13 13 14 14 15 16 17 18 21 23 22 22 22 22 22 21 21 20 20 24 25 27 28 28 27
24 26 24 25 26 26 24 23 23 22 20 17 15 15 14 14 13 13 11 10 11 12 12 12 13 14 16 19 21 20 20 21 21 19 18 17 17 16 15 18 19 22 24 26
25 24 23 24 23 25 25 25 23 18 16 13 11 10 9 9 10 11 11 10 9 10 10 10 11 12 14 17 18 17 17 16 18 18 16 14 12 13 13 13 13 14 17 19
26 27 23 24 24 23 21 18 17 16 15 14 13 12 10 10 10 9 11 10 9 9 8 8 8 10 13 17 17 15 16 15 13 12 13 11 10 10 11 11 11 12 12 13
24 23 23 22 20 19 18 17 16 14 13 11 11 12 13 13 11 10 9 8 6 4 6 3 7 7 11 12 13 12 10 13 11 10 9 8 7 8 9 9 9 9 9 9
24 23 23 20 19 19 18 16 14 13 12 12 13 12 12 11 10 10 8 8 4 1 4 1 -2 1 5 6 9 9 7 10 9 10 9 9 8 8 8 6 6 7 6 3
23 23 22 21 19 16 14 13 10 9 9 9 5 2 -1 0 -0 -1 -2 -3 -2 -1 -3 -5 -2 3 5 7 10 12 10 11 12 11 9 6 9 10 5 4 5 3 0 1
22 21 20 18 17 15 12 10 9 7 3 0 -1 -5 -9 -11 -10 -10 -14 -11 -10 -7 -3 -3 11 6 7 10 10 10 8 7 9 10 10 6 3 7 1 -3 -4 -7 -4 -1
20 19 17 16 14 12 8 2 3 2 -5 -3 -10 -10 -7 -10 -14 -13 -11 -6 -5 -1 0 3 5 6 8 9 6 7 5 2 7 4 5 4 -6 -8 1 4 4 -2 -10 -10
15 14 11 8 2 -1 0 -3 -0 -4 -8 -11 -7 -9 -8 -9 -10 -14 -4 3 1 1 6 3 3 3 4 4 6 -6 -5 -7 -8 -8 -11 -12 -9 0 -5 -7 -4 -5 -5 -4
9 7 2 2 3 -2 -8 -6 -3 -7 -8 -10 -14 -15 -11 -3 -8 -5 -4 4 7 2 7 5 5 -2 -1 -2 4 -8 -2 -3 -4 -7 -10 -13 -14 -16 -16 -18 -15 -12 -11 -10
7 6 5 2 3 2 -3 -5 -8 -6 -8 -9 -8 -6 -2 5 6 3 3 8 8 3 5 4 -1 -4 -6 -11 -10 -11 -12 -11 -10 -11 -13 -18 -15 -11 -16 -15 -16 -18 -18 -16
5 6 2 1 3 6 5 2 4 6 -2 1 2 -1 5 2 5 12 10 5 1 -0 -4 -5 -6 -2 -5 -13 -14 -14 -14 -15 -15 -12 -2 -13 -19 -19 -18 -17 -13 -13 -18 -14
8 7 6 6 9 9 11 12 11 12 13 13 13 14 12 11 8 8 5 6 4 3 1 -2 -3 -2 -4 -5 -11 -10 -8 -10 -10 -17 -13 -14 -14 -16 -18 -19 -15 -4 -9 -15
12 11 12 13 13 14 15 16 12 12 12 8 8 4 3 5 12 12 11 8 7 6 6 6 3 2 -1 3 3 4 1 1 -2 -6 -9 -6 -9 -11 -15 -13 -14 -11 -8 -9
15 15 15 15 16 15 13 14 8 6 5 6 5 2 1 -4 -3 2 3 -2 -1 -4 -4 -4 1 4 5 -1 0 1 -1 0 1 3 1 1 -6 -9 -11 -11 -11 -11 -15 -14

GFSNGP_sfc_dewp_108.txt.gz
Dewpoint
24 23 24 28 26 26 30 30 25 23 20 21 22 20 21 23 21 21 22 22 22 23 25 26 26 26 26 28 30 33 35 35 37 39 41 45 52 56 56 55 56 56 56 55
22 25 29 23 25 23 23 26 24 22 19 23 23 23 21 20 20 20 21 21 21 22 24 26 25 26 26 27 28 30 32 34 35 36 35 37 38 39 41 41 42 44 45 45
22 26 24 18 23 23 21 22 23 20 21 23 20 19 19 19 20 20 21 21 21 23 25 26 26 26 25 25 28 28 29 31 33 34 33 33 33 33 34 34 35 35 37 38
24 25 14 23 30 24 20 21 22 22 22 22 20 21 22 23 21 20 20 21 21 23 24 26 27 26 25 24 24 26 26 28 30 32 32 32 31 31 31 32 32 32 33 34
25 20 21 26 22 22 23 19 22 21 23 23 23 25 19 22 23 22 21 22 22 24 24 25 25 27 24 23 22 23 24 26 28 28 29 30 30 30 31 30 30 30 31 31
27 18 15 20 21 24 26 14 23 21 20 20 25 17 16 21 22 21 22 22 21 22 22 23 25 26 25 23 22 21 24 25 27 28 28 27 28 30 31 31 30 29 29 30
23 19 19 21 23 27 18 16 22 20 18 19 15 17 20 22 21 21 21 20 20 20 20 21 24 24 23 23 22 23 23 24 25 26 28 29 28 29 29 30 30 30 29 29
20 19 16 22 23 21 23 24 22 20 19 17 16 18 19 20 18 18 16 17 17 17 19 20 22 23 22 22 25 23 22 22 23 25 25 26 27 28 28 29 28 28 28 28
19 17 23 24 24 27 25 23 22 20 20 16 13 16 17 17 17 15 14 14 16 14 16 18 20 21 21 23 24 24 22 21 21 21 22 24 24 25 25 26 26 26 26 26
19 22 22 22 23 25 24 23 23 22 20 19 16 15 13 12 13 13 13 14 15 16 15 15 16 18 21 23 23 23 22 22 21 20 20 22 23 24 24 24 23 23 24 24
20 22 22 23 23 23 24 23 22 22 21 19 17 14 12 10 11 11 12 13 15 14 14 14 15 16 17 20 21 21 21 19 18 18 17 18 21 23 22 25 25 23 23 23
12 20 20 21 21 24 22 21 22 21 21 21 18 16 15 13 12 10 10 12 12 12 12 12 14 15 16 19 19 19 18 18 16 15 16 16 15 15 20 22 22 23 24 23
23 24 22 25 24 23 23 23 22 20 19 16 15 14 13 12 11 11 10 8 9 9 10 11 12 13 14 17 17 17 17 17 14 13 13 13 13 12 10 13 16 19 20 21
25 24 22 22 21 23 23 23 20 16 14 11 10 9 8 8 9 9 9 8 8 8 8 10 11 11 13 17 16 15 15 12 12 11 10 9 8 9 10 9 8 8 13 16
26 25 23 24 23 22 20 18 16 15 13 12 11 10 9 8 8 7 8 8 7 6 6 7 9 8 11 15 15 13 14 12 9 7 6 5 6 7 7 7 7 7 7 8
24 23 23 21 21 20 18 17 15 14 12 12 12 12 12 10 9 8 8 6 4 1 3 0 6 5 10 10 11 10 8 10 7 6 6 5 5 5 5 5 5 4 4 4
22 21 21 20 19 18 17 17 15 13 12 12 12 12 12 11 10 7 5 6 2 -1 2 -1 -3 -1 3 4 7 8 6 8 7 9 8 8 6 5 5 3 2 3 -0 -4
23 23 22 20 19 17 16 15 14 12 10 10 5 1 -2 -2 -1 -3 -5 -4 -3 -4 -6 -6 -3 1 4 6 8 10 9 10 11 9 9 5 7 7 2 1 2 1 -2 -1
23 22 21 20 18 16 14 11 10 8 3 0 -1 -4 -8 -12 -11 -12 -16 -13 -10 -6 -2 -4 10 5 6 10 8 8 7 4 7 8 8 4 1 3 0 -5 -6 -9 -7 -3
21 20 19 17 15 12 8 3 2 -0 -7 -5 -9 -11 -7 -10 -15 -14 -13 -6 -6 -1 -1 2 4 4 7 8 5 6 4 -1 4 1 -3 -1 -9 -10 -7 1 0 -6 -14 -9
19 17 13 10 3 0 0 -2 -1 -3 -11 -12 -7 -9 -8 -10 -13 -15 -4 2 1 1 5 3 3 2 3 3 5 -8 -6 -9 -8 -9 -13 -15 -16 -11 -10 -13 -11 -10 -9 -8
13 10 6 2 1 -4 -10 -7 -2 -5 -10 -13 -17 -16 -11 -3 -8 -6 -5 3 6 1 5 5 4 -1 -1 -4 3 -9 -3 -4 -5 -9 -11 -15 -17 -14 -9 -15 -16 -15 -16 -18
8 7 4 2 3 1 -4 -7 -10 -6 -8 -10 -8 -7 -1 4 5 3 3 8 7 4 4 3 -1 -3 -5 -12 -12 -13 -13 -13 -12 -13 -13 -19 -20 -20 -18 -15 -13 -15 -15 -6
6 5 1 0 2 4 3 0 2 4 -5 0 -1 -4 5 1 -0 11 10 5 -1 -3 -5 -6 -6 -3 -7 -13 -13 -13 -14 -15 -12 -13 -11 -11 -16 -19 -19 -17 -15 -13 -19 -13
7 5 4 5 7 7 9 9 9 10 11 10 11 12 8 10 5 4 2 3 5 4 -0 -2 -1 1 1 1 -0 0 -2 -4 -0 -2 -8 -13 -9 -11 -12 -17 -14 -13 -13 -15
10 9 9 11 11 11 13 13 10 10 10 6 4 -2 -4 -0 5 5 5 5 7 6 2 1 0 -1 -5 -2 3 2 2 2 0 -1 0 -0 -0 -1 -5 -7 -9 -9 -9 -8
13 12 13 14 14 14 12 12 7 5 1 -2 1 -4 -1 -6 -8 -3 -5 -8 -7 -11 -13 -14 -13 -10 -9 -11 -4 1 3 4 2 1 -4 -2 1 -1 1 -1 -3 -3 -4 -4

GFSNGP_sfc_dewp_111.txt.gz
Dewpoint
24 21 22 27 25 25 22 25 24 22 19 21 22 21 21 21 21 20 21 21 23 24 25 25 25 25 25 27 29 32 32 34 36 38 38 40 41 43 45 44 44 45 49 47
21 22 27 22 25 25 23 26 23 21 18 21 21 20 19 20 20 19 20 21 22 23 23 24 26 26 25 25 27 28 30 32 33 35 35 35 36 37 38 38 37 37 37 37
21 25 24 21 23 23 23 24 25 21 20 21 19 18 19 19 20 20 20 21 21 22 24 25 26 26 25 26 27 26 28 29 31 32 34 33 33 33 33 33 34 33 34 34
23 25 17 24 28 23 21 21 22 21 21 21 20 21 22 22 21 19 20 20 20 21 22 25 25 26 24 23 24 26 25 27 29 30 30 32 32 31 32 32 31 30 31 31
24 21 22 24 23 24 23 19 22 22 23 23 23 25 20 21 22 21 21 21 21 23 23 23 25 26 25 24 23 23 24 26 27 29 29 30 30 31 31 31 30 30 30 29
24 19 15 21 21 24 26 19 22 21 21 23 24 19 18 21 21 20 21 21 20 22 21 22 24 26 25 24 23 23 24 25 26 27 28 29 30 30 31 31 30 30 29 29
25 19 19 20 22 26 21 21 22 19 20 22 18 19 20 21 19 19 19 19 19 19 20 21 23 25 23 24 24 24 24 25 25 26 27 28 29 30 32 31 30 30 29 29
23 19 16 21 25 23 24 24 21 20 20 18 19 19 19 19 18 17 17 17 18 17 18 19 21 23 22 23 25 25 24 23 24 25 26 27 27 28 28 29 29 29 29 29
19 18 23 25 25 27 24 22 21 20 19 18 17 17 17 17 17 17 17 17 18 17 16 18 19 21 20 23 23 22 21 21 22 23 24 25 25 26 26 27 26 26 26 26
20 21 22 23 25 24 24 23 22 21 20 19 16 15 14 15 16 16 16 16 17 17 16 16 17 18 20 21 22 20 19 19 21 21 22 23 25 25 25 24 25 24 24 24
20 22 21 22 24 24 23 23 22 21 20 18 16 14 13 13 14 15 15 15 15 15 15 16 17 18 20 21 21 21 19 18 19 19 20 19 21 22 23 24 24 23 24 24
20 22 21 21 24 24 22 22 21 20 19 17 16 14 12 10 10 10 10 10 10 12 13 14 14 16 17 18 18 18 17 15 15 16 16 16 16 16 17 18 19 20 21 22
23 25 24 24 24 23 22 23 21 19 18 16 14 12 9 9 9 9 6 6 8 10 11 12 12 13 15 16 16 16 15 14 12 13 13 13 14 13 12 15 14 15 17 18
25 24 23 23 22 24 22 22 19 15 14 12 10 8 6 6 7 7 7 5 4 7 9 11 12 13 15 18 17 17 18 14 14 14 14 14 14 14 13 12 12 12 12 14
26 24 22 23 23 21 19 16 14 12 10 8 8 7 6 7 8 8 9 6 3 4 8 10 10 12 14 15 16 15 15 16 17 16 16 14 15 14 12 12 11 10 10 10
23 23 22 21 20 19 17 16 14 12 10 10 10 9 9 8 8 8 8 7 2 2 6 7 9 10 12 13 15 15 16 14 14 16 16 15 14 13 11 11 10 9 8 8
22 20 21 20 19 18 17 16 14 12 11 11 12 11 10 10 9 8 7 8 5 4 6 8 8 7 10 11 14 14 15 15 13 14 14 14 13 12 11 10 9 9 9 8
22 22 21 20 19 18 17 16 14 12 12 12 12 9 7 6 7 6 4 2 5 5 5 4 8 10 11 12 12 11 11 11 11 11 11 12 11 11 11 10 9 8 9 8
23 22 21 20 19 18 16 15 14 12 9 7 6 6 5 3 5 4 0 3 5 7 7 6 8 10 11 12 9 10 10 10 8 7 8 8 10 9 10 10 10 10 9 9
23 22 21 19 17 16 13 10 8 6 4 4 1 2 5 2 0 2 3 9 9 10 8 7 7 7 9 10 8 7 10 10 8 8 9 8 8 9 9 7 8 9 10 9
22 20 18 14 10 9 8 5 3 2 -1 1 5 5 6 6 2 1 8 11 10 8 10 8 7 7 3 3 7 12 12 11 11 10 10 9 8 8 8 9 9 9 9 9
19 16 12 10 8 3 2 4 4 1 1 0 -2 1 3 7 4 5 6 11 12 7 8 10 9 7 7 3 8 11 11 10 10 10 10 10 9 9 9 9 8 9 9 9
14 13 10 7 7 5 3 4 3 4 3 3 4 7 8 12 13 13 12 12 12 11 10 12 7 4 4 10 11 11 10 10 10 10 10 10 10 9 9 9 9 9 8 8
11 10 7 6 6 6 7 5 5 7 5 7 7 6 8 12 14 13 15 11 6 9 13 13 11 8 4 12 12 12 10 11 10 9 10 6 9 9 8 8 8 9 9 6
11 8 6 7 7 7 8 7 7 8 8 9 10 11 9 12 16 16 16 15 12 13 16 8 6 7 13 12 11 11 11 11 11 11 10 9 9 8 9 8 7 8 9 8
9 8 7 8 8 8 9 8 10 12 12 15 15 16 15 14 15 14 15 11 13 10 12 11 8 8 9 9 9 8 9 9 9 9 8 8 9 8 9 8 8 8 8 8
11 10 9 11 11 12 14 14 15 17 16 17 16 13 12 13 12 11 8 12 10 9 8 7 7 5 4 5 6 6 7 7 6 6 6 6 6 7 7 7 7 8 7 7

GFSNGP_sfc_dewp_114.txt.gz
Dewpoint
25 20 20 25 26 25 26 25 24 27 23 23 24 23 22 25 23 23 24 23 24 25 26 27 27 27 26 27 29 31 31 32 35 37 36 38 39 40 42 42 43 43 40 39
25 24 26 28 26 27 27 23 26 25 20 25 21 23 22 23 23 22 23 23 24 25 25 26 27 28 26 27 28 29 30 31 31 34 34 34 34 36 35 37 36 36 35 35
23 22 26 24 24 25 25 25 26 25 23 24 21 20 22 22 23 22 22 23 23 25 25 27 28 29 28 29 29 28 28 29 30 31 32 33 33 32 32 32 33 33 33 33
24 26 19 26 29 25 23 24 25 24 22 21 21 22 23 23 23 21 21 21 22 23 24 26 26 26 26 25 26 27 27 29 30 30 30 31 31 31 31 31 31 31 31 31
24 21 23 25 26 25 25 22 23 23 23 23 23 23 22 22 23 23 23 23 23 24 24 24 26 26 25 25 25 25 26 27 29 30 30 30 30 31 31 30 30 30 29 29
24 18 16 23 22 25 25 23 23 23 23 24 24 24 22 23 23 23 22 22 22 22 22 23 25 26 26 26 26 26 27 27 28 29 30 30 31 32 32 32 31 30 29 29
23 24 21 21 23 26 23 24 24 24 26 27 24 24 23 23 22 22 22 21 21 21 20 21 24 24 24 24 23 25 27 28 28 29 29 30 31 31 31 31 31 31 31 31
24 23 18 23 25 25 26 26 25 26 26 24 23 23 22 21 20 20 20 20 20 19 20 21 23 23 22 21 23 24 25 26 26 27 28 29 29 30 29 30 30 32 32 31
23 22 24 26 27 28 26 26 26 25 24 24 22 22 23 21 20 20 20 20 20 19 19 21 22 23 21 22 23 22 23 24 25 26 26 28 27 27 27 28 27 27 28 29
24 23 23 25 25 26 26 27 25 24 23 23 21 21 21 20 19 18 18 18 19 18 19 19 21 22 22 22 24 23 21 22 23 23 25 25 25 25 23 23 24 23 24 24
22 23 23 24 26 26 26 25 24 24 23 22 20 19 19 19 19 18 17 17 17 17 16 17 18 19 21 21 21 21 20 21 22 20 21 21 21 19 19 21 21 21 22 23
27 26 26 26 26 26 25 24 23 22 20 19 17 15 14 12 10 7 8 8 8 9 10 10 11 14 14 16 17 18 18 17 17 18 18 18 18 19 17 16 16 17 18 20
27 28 28 27 26 25 24 24 22 21 19 16 12 8 6 5 5 6 3 4 6 8 9 10 10 12 14 14 15 15 15 15 15 15 16 16 17 16 16 18 15 14 14 15
26 25 24 25 23 24 23 23 22 18 17 13 8 6 5 4 4 3 3 2 3 6 8 10 11 14 17 17 17 17 18 16 18 18 18 19 18 18 17 17 17 17 14 13
25 25 24 24 23 22 21 19 17 15 13 9 7 6 6 8 9 10 10 5 3 8 10 11 11 13 14 14 14 17 16 17 19 20 19 18 19 18 17 16 16 15 14 12
24 22 22 22 21 20 18 17 15 12 9 7 7 7 8 9 8 8 8 6 5 8 11 12 11 13 13 14 15 17 18 14 16 18 18 17 17 16 15 15 14 14 13 11
22 21 21 21 20 19 19 17 14 9 9 9 9 9 9 9 10 10 11 9 8 9 11 12 13 13 14 14 16 16 17 16 13 16 14 14 14 14 13 13 12 12 13 13
23 23 22 21 20 19 18 17 14 11 13 13 15 14 12 13 12 10 10 10 9 9 10 10 13 13 13 13 13 13 13 12 11 11 11 13 11 11 12 11 10 10 11 11
23 23 23 21 21 19 18 17 15 16 16 14 13 12 12 12 12 11 10 10 10 12 11 11 10 12 12 12 10 11 12 12 10 9 10 9 12 10 12 12 11 12 11 10
23 22 21 21 21 21 20 19 16 14 13 13 11 11 12 11 10 11 11 14 14 14 13 12 10 10 9 8 10 8 12 13 10 11 13 11 13 13 12 8 9 11 12 12
25 25 23 21 20 19 17 15 12 10 10 11 13 12 13 13 11 10 13 15 15 13 12 11 10 10 8 8 8 16 15 15 14 13 14 13 13 12 12 12 11 11 11 11
25 23 20 17 16 14 13 13 12 9 9 10 10 11 12 14 12 12 13 15 15 12 12 13 12 10 10 11 12 16 14 13 14 14 14 14 13 13 12 12 11 11 11 11
24 21 19 16 14 12 11 10 9 10 10 10 11 14 16 17 16 16 16 15 14 14 13 16 13 11 12 17 17 16 15 14 14 14 14 14 14 13 13 13 12 11 11 12
21 19 17 15 11 10 9 10 11 12 13 14 14 15 14 17 20 17 18 16 14 16 19 19 16 13 11 17 16 15 14 14 13 14 12 12 14 14 13 12 12 12 12 12
19 16 14 12 10 10 11 10 10 10 10 10 11 11 12 15 21 20 21 19 14 17 20 13 11 11 15 14 13 12 12 12 12 11 12 11 11 12 12 12 12 12 11 10
16 14 12 10 10 10 10 8 13 14 14 19 19 21 21 21 19 19 19 16 16 15 16 17 14 13 13 12 11 10 9 9 9 8 8 8 9 8 9 9 9 9 10 11
14 13 10 9 10 11 12 12 19 19 21 22 20 21 19 20 19 17 16 18 17 16 15 14 12 9 8 8 8 7 7 6 5 4 5 5 5 5 4 4 5 6 7 8

GFSNGP_sfc_dewp_117.txt.gz
Dewpoint
22 18 17 21 24 23 28 26 26 29 25 25 26 25 26 27 26 25 25 25 26 27 28 29 30 32 32 30 30 31 31 31 33 34 35 35 36 36 37 38 38 40 42 41
24 23 24 28 28 26 30 29 26 27 24 27 26 26 25 25 25 24 24 24 25 26 25 27 29 32 32 31 31 31 30 31 31 32 32 32 32 33 34 34 33 34 35 36
25 21 23 26 29 28 29 25 28 25 25 26 25 23 24 24 24 23 23 23 22 25 26 26 28 29 30 31 32 30 30 31 31 31 31 31 31 31 30 31 32 32 32 32
25 25 19 27 29 28 28 27 26 25 27 26 23 25 25 25 24 22 21 21 21 23 23 25 25 25 26 25 26 28 28 29 31 31 30 31 31 31 30 30 30 30 30 30
25 22 25 25 27 26 26 24 28 25 23 23 23 23 24 24 23 23 22 22 23 23 23 23 24 24 24 24 25 26 26 28 29 30 30 30 31 31 31 32 30 30 30 29
26 19 17 24 25 26 26 25 25 25 24 24 24 27 24 23 23 22 22 22 21 21 21 22 25 22 24 23 24 26 27 27 28 29 29 30 30 31 31 32 32 31 30 31
24 24 24 23 23 26 25 26 26 26 27 28 26 26 25 24 22 22 22 21 21 21 21 23 24 25 23 23 23 26 27 28 27 28 28 28 29 30 31 31 30 31 30 29
25 25 23 24 25 25 29 29 28 29 31 27 26 24 23 22 22 21 21 21 21 21 22 23 24 24 22 23 24 25 26 26 27 26 28 27 26 27 28 27 28 28 28 28
25 25 26 27 30 30 29 28 28 28 27 26 25 24 24 22 20 20 21 21 22 22 21 23 24 24 22 24 25 24 25 25 26 27 25 26 25 23 23 25 24 25 25 26
25 25 24 26 27 27 28 28 27 27 26 26 24 24 22 21 19 18 17 18 17 18 20 21 23 23 24 23 25 25 24 25 26 25 27 25 23 23 20 20 21 21 23 21
25 25 24 26 27 28 27 27 26 26 26 25 23 22 21 21 20 18 17 17 16 15 14 15 18 21 23 24 23 25 25 25 26 24 26 25 22 20 19 20 18 19 20 22
30 27 27 28 28 27 26 26 25 23 22 22 21 19 17 13 8 6 6 7 6 7 7 7 10 13 13 15 17 19 19 19 21 21 21 21 20 21 19 18 17 16 16 17
29 29 30 28 27 26 25 25 24 22 19 16 12 9 7 5 4 5 2 3 5 6 7 8 10 13 14 15 16 16 16 16 17 17 18 19 19 18 18 21 18 17 15 15
28 27 27 27 26 25 25 24 23 19 16 12 9 8 6 5 4 3 1 1 4 6 8 9 11 13 16 17 17 18 18 19 20 20 20 20 20 20 19 19 19 19 17 15
27 25 26 25 24 23 23 22 20 17 14 10 9 7 6 8 10 11 10 6 7 9 11 10 11 13 13 15 15 18 17 17 21 21 21 20 20 19 19 18 18 17 17 14
25 24 24 24 23 22 22 20 18 16 12 9 7 7 8 9 9 8 6 8 9 11 12 13 12 14 14 16 17 18 20 16 17 19 19 18 18 17 16 16 16 15 15 15
24 23 23 23 22 22 20 20 18 15 10 8 9 9 9 11 12 12 11 10 11 13 13 14 14 14 15 16 18 17 18 17 14 16 15 15 14 14 14 14 13 12 14 15
25 25 25 24 22 21 21 19 15 12 12 12 16 18 16 16 14 13 13 12 13 12 13 13 14 16 15 15 16 14 15 14 13 13 13 14 13 12 13 12 11 11 12 13
25 24 25 23 23 22 20 18 16 18 20 18 16 15 16 15 14 13 14 12 13 16 15 14 12 14 14 13 12 13 15 15 14 11 13 12 15 12 14 14 12 12 12 12
25 25 24 23 23 24 24 23 21 19 17 16 16 15 14 14 14 13 14 16 16 16 14 14 13 11 10 8 11 11 15 16 14 14 16 14 16 15 15 12 13 14 15 15
29 29 28 26 26 25 22 20 19 16 16 15 15 15 15 15 14 15 16 18 18 14 13 10 11 11 9 11 10 17 17 17 16 15 16 17 18 16 15 16 15 15 15 14
29 26 24 23 21 20 19 18 17 15 14 16 16 16 16 16 15 15 16 18 16 14 12 14 13 15 13 15 13 18 16 14 14 15 15 15 15 15 14 14 14 14 15 16
27 25 22 21 19 19 17 16 14 14 14 14 14 16 18 18 17 18 19 16 15 17 14 18 18 16 15 18 19 18 16 15 15 14 16 15 14 14 14 14 14 13 13 13
26 24 22 21 17 15 13 14 14 14 16 16 17 19 18 20 21 17 18 19 16 17 18 21 17 15 13 18 17 16 14 14 15 15 12 11 14 12 12 12 11 12 12 12
25 23 20 16 14 12 12 11 11 12 13 12 13 14 15 17 23 22 21 21 18 16 23 15 12 12 16 16 15 13 13 12 12 11 12 10 9 10 10 10 10 10 10 10
21 19 17 15 13 12 11 10 12 13 13 19 20 22 23 22 19 18 19 16 16 14 18 17 15 13 13 12 11 10 9 8 8 7 6 6 7 6 7 6 5 6 7 7
19 18 15 13 12 13 13 13 19 20 22 24 23 24 22 21 20 18 17 20 19 16 17 16 14 11 10 8 8 7 7 6 4 3 4 3 3 3 3 2 2 2 4 4

GFSNGP_sfc_dewp_120.txt.gz
Dewpoint
21 16 13 18 20 18 26 23 24 28 28 25 25 26 27 26 26 25 26 25 26 27 28 28 29 31 32 31 31 32 31 31 32 33 32 32 33 34 33 34 34 35 35 38
23 19 20 22 24 21 27 29 29 28 25 26 27 28 26 26 25 24 25 24 24 24 23 25 26 29 30 31 30 31 30 30 32 32 32 31 31 31 32 32 32 33 33 33
19 22 23 23 29 30 30 27 25 24 25 27 26 24 25 25 25 23 21 21 20 22 22 24 24 25 26 26 28 28 29 30 30 31 31 31 32 30 30 30 31 31 31 32
23 25 18 27 28 26 27 27 30 25 26 27 25 25 26 26 23 20 19 19 19 20 20 22 21 21 23 23 24 26 26 27 28 30 29 31 31 31 31 31 29 29 29 30
24 20 25 24 25 26 26 26 28 26 27 25 24 23 23 22 21 21 21 21 22 22 21 22 23 22 21 22 23 23 24 25 26 26 27 27 28 30 31 31 29 28 29 28
24 24 20 25 25 27 28 24 28 25 24 23 24 24 22 23 21 21 22 22 21 22 21 22 23 23 22 22 23 23 25 23 24 25 23 25 26 27 29 29 30 29 28 28
23 23 26 24 25 26 23 26 29 27 27 27 26 26 25 23 21 21 22 21 22 21 21 22 22 22 21 21 22 24 24 26 23 23 24 22 23 25 25 26 25 26 26 26
24 24 22 24 24 24 30 31 31 31 30 26 25 25 23 23 22 22 22 22 22 20 20 22 22 21 20 21 23 24 25 23 25 23 23 22 19 21 22 22 23 21 21 22
26 26 27 29 31 31 30 31 30 29 26 25 24 22 23 22 20 21 22 23 23 19 19 21 22 21 19 21 23 22 23 23 23 25 23 22 19 18 17 19 18 20 19 18
26 26 25 27 28 29 30 30 29 27 26 25 24 23 23 22 19 17 16 18 18 19 19 18 21 21 22 22 22 23 22 23 24 23 23 22 21 19 17 16 16 16 17 16
26 26 25 27 30 30 29 29 28 27 26 25 23 22 23 22 20 19 19 19 18 17 14 17 19 19 20 21 22 22 23 22 23 23 23 23 21 20 19 18 17 15 16 16
29 28 27 29 31 28 27 27 25 25 23 23 21 20 19 15 10 7 8 7 6 7 8 9 12 14 15 17 18 19 20 20 20 21 21 21 21 22 22 21 19 17 17 17
30 30 31 30 29 27 26 26 25 23 22 21 18 14 7 4 4 8 3 4 5 7 8 9 10 12 16 17 18 17 17 19 20 19 19 20 20 19 18 21 20 19 17 15
30 28 27 27 27 27 26 25 24 20 18 14 10 7 8 6 5 2 2 5 7 8 8 10 11 14 16 19 20 20 18 19 21 21 20 20 20 19 19 18 17 17 19 16
28 26 26 26 25 25 24 22 19 17 14 13 13 11 9 10 12 13 12 9 10 11 11 11 11 14 14 17 17 20 18 17 20 21 20 18 19 19 18 17 17 16 16 14
26 25 25 25 24 24 23 21 19 16 14 12 10 10 11 11 10 7 9 12 12 13 13 13 12 14 16 16 18 19 20 15 16 19 18 17 17 16 16 15 15 14 14 14
25 25 25 25 24 24 23 22 19 16 13 11 11 11 10 12 13 12 13 13 14 14 15 14 14 12 13 15 17 19 19 19 14 17 16 15 16 15 14 14 14 13 13 14
25 27 26 26 25 25 24 23 20 16 14 14 18 16 14 14 14 14 13 14 12 12 14 13 13 15 13 15 16 17 17 17 16 16 16 16 15 14 14 15 13 13 13 13
26 26 29 27 26 24 23 21 19 19 18 17 15 15 16 14 14 14 14 11 12 16 14 14 16 15 16 14 13 16 17 17 16 14 16 14 16 16 15 16 14 14 14 14
27 29 31 29 26 26 24 22 21 19 18 17 16 15 15 14 13 12 14 17 17 17 17 16 15 15 14 13 12 12 18 18 16 16 16 16 16 16 16 14 15 15 15 14
30 30 28 27 25 23 23 22 19 17 17 16 15 15 14 15 14 14 15 19 17 16 15 12 13 13 12 11 10 19 18 17 16 16 16 15 15 14 14 14 13 13 14 14
30 27 26 24 23 21 21 20 19 17 16 16 16 16 14 15 14 15 16 19 18 13 14 17 17 13 13 12 15 19 17 16 15 15 14 15 13 11 12 12 12 12 12 12
27 26 24 23 21 21 20 18 16 16 17 16 16 17 17 17 17 19 19 15 18 15 15 20 14 12 10 17 19 18 15 14 14 14 13 12 12 12 10 10 10 10 10 11
27 25 23 23 20 18 16 15 16 16 16 16 17 17 21 21 22 20 21 17 15 17 20 18 14 10 8 18 17 15 14 13 12 11 10 9 8 8 8 7 7 7 6 6
26 24 22 19 18 16 14 12 13 13 14 13 15 17 18 20 26 23 23 21 16 16 18 13 12 8 15 15 13 12 12 11 10 9 8 6 6 6 5 5 3 3 3 3
25 22 19 18 17 15 13 12 14 16 15 19 20 21 24 23 21 21 20 17 18 15 19 19 16 14 13 11 9 9 8 8 7 5 3 4 3 2 1 1 -1 -1 -1 -1
25 23 19 17 16 15 15 15 19 18 21 23 22 25 23 23 21 20 20 20 20 18 18 17 16 12 11 8 8 7 6 5 3 0 2 1 -0 -2 -2 -4 -4 -4 -3 -2

GFSNGP_sfc_dewp_123.txt.gz
Dewpoint
21 21 18 20 18 18 21 22 20 20 24 25 26 25 26 25 25 24 23 23 25 25 25 25 25 25 27 28 29 30 29 29 30 32 33 33 32 31 31 32 32 32 32 32
15 21 22 21 22 21 21 23 23 24 24 26 27 27 26 25 24 23 23 21 21 21 20 22 22 22 23 24 27 27 28 27 29 30 31 32 32 31 30 30 30 31 31 31
16 22 25 19 20 23 23 26 27 25 25 26 25 25 24 24 23 21 20 20 19 19 20 22 22 22 22 23 24 23 24 25 25 27 28 29 31 31 29 28 29 28 30 30
19 22 17 20 29 28 28 28 27 26 26 25 24 25 25 25 21 19 19 19 19 20 20 22 22 22 21 22 22 23 20 23 23 23 24 26 27 28 30 28 27 27 27 28
19 20 22 25 26 27 25 26 27 26 26 24 24 22 23 21 21 21 21 21 21 22 22 22 22 22 21 22 22 22 21 20 21 20 21 22 23 25 25 26 25 24 24 25
24 22 19 26 26 28 29 22 30 28 25 23 23 23 21 22 21 20 21 21 20 21 22 21 21 22 20 20 21 22 24 21 21 19 18 19 21 22 24 22 22 22 21 22
22 22 24 26 27 29 22 21 29 27 26 25 24 25 23 23 21 21 19 17 19 18 17 18 19 19 18 17 19 20 22 24 22 21 19 19 18 19 20 21 20 19 19 20
24 23 20 28 26 25 27 30 30 28 27 25 23 22 21 21 20 21 20 18 16 14 14 17 17 17 16 17 17 18 19 19 21 21 21 19 18 17 17 17 17 17 17 17
26 23 27 29 28 31 31 30 28 27 26 23 20 20 20 20 21 20 18 18 17 13 11 15 17 17 17 18 16 17 19 18 17 19 19 19 17 17 16 16 15 15 16 16
24 25 28 28 29 31 31 29 27 26 24 22 20 21 20 20 20 19 18 17 20 16 13 14 14 16 17 19 20 17 18 18 19 15 17 16 18 17 17 16 15 16 15 15
24 26 26 28 30 29 29 28 26 25 24 22 22 21 20 19 19 18 17 17 17 16 16 16 17 16 17 19 20 20 20 19 20 21 18 16 19 18 18 19 17 15 16 17
20 26 25 26 29 29 27 27 26 25 23 23 22 21 19 18 18 17 16 11 9 10 11 12 13 15 17 18 17 18 20 19 18 19 19 19 18 18 23 22 21 18 16 17
27 28 28 29 28 28 27 27 26 24 23 22 21 20 18 10 9 11 8 9 9 10 11 12 12 13 15 19 18 16 16 19 18 17 17 18 17 16 14 15 19 19 16 14
29 29 28 27 27 27 26 26 26 23 22 20 19 9 7 8 7 8 9 10 11 11 11 12 13 13 16 18 19 16 16 15 17 17 15 14 14 14 14 13 11 10 15 14
28 28 27 28 28 29 26 24 22 21 20 16 11 10 10 10 11 12 13 12 12 12 12 11 12 12 15 16 17 18 16 14 13 12 11 11 11 11 11 10 9 8 7 11
28 26 27 28 28 29 26 21 18 17 14 12 12 14 13 13 12 13 14 15 13 11 11 4 12 9 14 14 14 15 11 12 10 10 10 10 11 11 11 10 8 7 8 6
26 25 26 26 28 29 26 21 17 14 13 12 13 13 13 12 11 11 11 13 10 10 11 8 4 3 5 4 7 13 10 13 11 13 11 10 10 9 11 9 8 8 5 1
26 27 27 27 28 30 28 23 18 16 14 15 16 15 13 11 10 8 8 8 4 0 1 2 2 4 5 5 10 15 14 15 16 14 15 10 11 14 10 10 10 8 5 7
28 27 27 28 30 31 29 22 19 18 17 15 14 10 9 8 6 1 -0 -1 -1 1 2 2 13 10 10 10 11 13 15 11 13 14 13 10 9 11 8 8 9 5 5 10
29 30 32 32 31 28 22 21 20 17 15 14 12 8 7 3 4 1 3 9 9 9 9 12 12 16 14 12 10 14 12 8 12 9 5 7 4 3 3 6 7 6 3 2
27 29 28 25 24 23 22 21 18 16 16 15 12 10 8 7 7 6 7 12 9 9 15 10 14 14 13 10 11 6 6 4 3 4 2 2 -2 0 1 -0 -1 -0 8 8
26 24 23 23 22 21 21 19 18 16 15 14 11 10 10 9 8 10 12 16 16 9 14 17 15 8 9 7 14 9 7 7 5 5 3 0 0 3 1 -4 -3 4 6 4
25 24 23 22 21 19 19 18 16 15 14 14 13 12 12 13 14 14 12 17 16 11 17 12 7 4 3 3 5 2 2 0 -0 -4 -5 -7 -5 -8 -8 -1 2 2 -2 -1
23 22 21 21 19 18 15 15 16 15 13 15 14 13 17 15 15 20 18 15 10 9 14 7 4 5 7 9 3 -1 -5 -6 -6 -4 -4 -7 -12 -12 -7 -5 -2 -5 -10 -6
22 21 19 17 17 16 16 15 15 16 15 14 15 16 19 24 19 19 17 14 14 13 12 6 4 3 2 -4 -5 -5 -8 -4 -2 -9 -13 -14 -9 -11 -15 -7 -13 -13 -13 -11
22 21 19 19 18 16 14 14 13 15 15 14 16 13 14 19 17 18 17 14 14 14 14 9 -2 0 -2 -6 -5 -6 -5 -2 -8 -11 -14 -9 -12 -15 -13 -15 -19 -18 -18 -15
25 22 20 19 17 15 14 15 16 15 17 17 16 16 18 17 17 17 15 16 14 12 9 6 3 1 -4 -4 -6 -6 -7 -9 -13 -13 -16 -15 -20 -20 -20 -22 -20 -17 -10 -11

GFSNGP_sfc_dewp_126.txt.gz
Dewpoint
21 21 21 20 19 19 18 19 22 17 21 23 26 25 25 25 25 24 23 22 21 22 22 22 23 23 24 25 26 26 26 25 25 27 30 32 30 29 30 30 31 31 31 32
11 21 22 20 20 20 22 22 21 21 25 26 26 26 25 25 24 23 20 19 18 18 19 20 22 22 23 23 24 23 23 23 24 25 26 28 29 28 27 27 28 27 30 31
13 21 23 21 22 21 21 22 21 20 24 26 25 24 24 23 23 21 18 18 17 19 19 21 22 22 22 23 24 21 21 21 20 21 22 24 24 25 25 24 24 25 26 28
20 20 15 20 28 28 26 27 27 26 26 26 27 25 25 25 21 18 16 17 18 19 20 21 21 22 21 22 22 21 20 20 19 19 19 20 22 21 22 22 22 22 24 25
17 20 20 25 26 27 25 24 27 26 26 24 24 23 22 21 20 20 20 20 21 21 22 21 21 22 21 21 21 22 20 20 19 18 17 17 18 20 20 20 19 20 22 24
22 19 16 23 30 29 28 18 28 27 24 23 23 21 20 20 19 19 21 21 20 20 21 19 19 20 19 19 20 20 22 20 20 19 18 17 17 17 18 19 19 19 19 21
21 20 22 27 27 29 16 18 29 26 25 24 22 25 23 22 19 20 19 17 18 16 14 14 16 18 16 17 17 16 18 20 20 20 19 19 18 18 18 18 18 18 18 20
25 22 17 28 26 24 26 30 29 27 27 24 21 21 19 19 19 19 18 16 13 13 11 13 15 14 15 16 14 14 13 13 15 17 19 18 17 18 17 17 17 17 17 18
23 22 26 28 28 30 31 29 28 27 27 22 20 18 19 20 21 20 18 16 15 9 11 12 13 15 15 15 15 15 16 14 8 13 15 15 16 16 16 15 16 16 17 16
25 27 27 28 29 31 30 28 27 27 25 23 20 19 19 20 20 19 19 17 17 15 12 12 12 15 15 18 18 17 18 18 18 16 16 14 17 18 17 15 14 15 16 16
24 23 26 26 27 28 27 26 25 25 24 22 20 20 19 19 19 17 17 19 18 16 15 15 16 16 16 18 19 20 18 18 18 19 17 17 20 20 19 17 15 14 17 16
22 25 25 22 27 28 26 24 24 23 21 21 20 19 18 17 16 16 16 13 12 12 12 13 14 15 17 18 17 18 19 17 16 17 17 17 15 14 19 18 16 15 17 16
26 28 27 27 27 27 26 25 24 23 22 21 20 18 16 16 16 16 10 10 11 11 11 13 14 15 17 19 16 15 17 15 15 15 15 15 14 13 9 11 16 15 15 15
29 29 28 27 27 27 27 26 26 23 22 21 19 17 14 11 11 10 10 11 11 12 11 12 14 14 16 18 16 14 15 12 13 12 10 10 5 9 7 7 6 5 12 14
28 27 28 28 27 26 26 25 23 22 21 20 15 10 9 9 11 13 13 12 11 11 11 12 12 11 15 16 18 16 16 11 7 5 4 5 5 7 7 5 2 1 4 9
27 28 27 26 27 28 29 28 24 21 20 12 11 9 10 12 13 14 14 13 10 9 11 4 10 8 12 12 14 13 9 10 6 6 6 6 6 7 8 7 5 4 4 1
25 26 27 27 27 28 29 28 25 19 13 13 13 12 12 13 13 13 13 12 10 8 10 8 4 -1 0 1 8 9 6 11 9 11 10 10 9 10 10 8 7 7 4 -2
27 27 27 27 28 29 29 29 20 15 14 16 16 15 13 11 11 11 10 9 4 -0 -0 1 -0 2 2 4 9 13 12 13 14 12 13 9 10 11 8 7 9 8 5 6
27 27 27 28 30 31 30 26 19 18 19 17 15 13 12 10 10 8 5 4 -0 1 3 1 12 8 8 9 11 13 11 8 11 12 11 7 4 6 3 2 1 1 6 8
28 27 29 31 32 31 26 24 22 20 19 17 14 12 10 8 7 5 5 5 6 8 7 11 12 15 13 11 10 13 10 5 10 5 2 2 -3 -7 -5 1 1 -0 -1 2
29 30 29 27 25 24 23 23 21 18 17 16 14 11 10 7 7 6 7 12 10 10 15 11 14 13 12 10 14 4 2 -0 -1 -3 -6 -9 -10 -8 -8 -9 -7 -7 -5 -2
27 24 23 23 23 21 22 22 21 18 17 15 13 11 9 8 7 8 7 12 13 11 15 15 13 6 8 9 9 2 4 3 0 -1 -5 -9 -12 -13 -14 -13 -8 -3 -7 -10
23 22 23 22 21 20 20 20 19 18 16 14 13 12 11 11 12 14 15 16 16 13 16 14 7 2 6 4 0 -4 -4 -4 -7 -11 -14 -17 -18 -19 -16 -13 -14 -15 -16 -14
22 22 21 20 20 19 16 17 18 18 16 15 15 13 13 13 14 18 18 16 15 13 11 6 7 7 1 -1 -4 -5 -6 -11 -14 -17 -14 -15 -20 -20 -18 -21 -20 -22 -21 -18
19 19 19 19 19 19 18 18 18 16 15 14 14 13 18 17 16 16 16 14 15 12 9 7 7 2 -1 -5 -7 -9 -13 -17 -19 -20 -20 -21 -23 -25 -25 -25 -27 -26 -23 -20
21 20 20 20 18 17 17 18 15 16 15 15 16 16 15 20 18 16 15 13 12 11 9 7 3 -1 -5 -7 -10 -11 -15 -14 -18 -19 -21 -23 -25 -25 -27 -26 -28 -27 -23 -20
23 21 20 20 17 16 15 15 15 15 15 15 16 15 16 17 17 16 15 14 13 11 9 6 2 -3 -7 -9 -10 -14 -18 -20 -20 -18 -26 -27 -28 -30 -30 -30 -31 -29 -26 -21

GFSNGP_sfc_dewp_129.txt.gz
Dewpoint
20 19 20 20 20 19 19 19 17 16 19 21 26 25 24 25 25 23 22 20 20 20 21 22 23 23 23 23 23 22 22 21 22 24 26 25 26 25 25 26 27 28 30 30
10 19 20 20 21 19 20 19 19 19 19 25 27 25 24 25 24 22 19 18 18 18 18 20 21 22 22 23 23 22 21 19 20 20 21 23 23 23 23 23 24 25 27 29
12 21 21 17 22 22 22 23 21 19 20 26 25 25 25 24 23 21 17 17 17 18 19 21 21 21 21 22 23 21 20 19 18 18 17 19 20 20 20 21 22 23 25 27
16 19 9 17 27 26 24 24 24 25 25 26 25 25 26 24 22 18 16 16 17 19 20 21 21 21 21 21 20 20 19 19 18 17 16 16 17 17 18 19 20 21 23 24
18 16 17 19 27 26 26 24 27 26 26 24 23 22 21 24 21 20 19 20 18 20 21 21 21 21 20 21 19 19 18 18 19 18 17 16 16 17 18 18 19 20 21 22
22 16 14 21 29 29 27 17 27 27 24 22 21 18 17 21 19 19 20 20 18 19 20 19 18 20 17 18 19 18 19 19 19 18 18 17 16 17 17 18 18 19 19 22
21 20 21 25 27 28 15 17 28 26 24 22 21 21 21 21 19 19 19 18 19 16 15 13 13 18 15 13 13 13 17 18 18 18 18 18 17 17 18 18 18 17 17 19
24 21 17 28 28 23 24 28 28 26 25 22 22 21 19 19 18 18 18 17 13 14 11 10 13 15 14 14 10 11 11 13 14 14 17 16 16 16 16 17 17 17 16 15
25 22 26 28 27 29 29 29 27 26 25 22 20 17 17 17 18 18 17 17 15 12 11 10 13 11 14 10 12 14 12 11 7 11 14 13 14 14 14 15 16 16 15 14
27 27 28 27 29 29 29 28 28 27 23 22 20 17 17 18 17 16 17 15 14 14 11 10 7 13 11 13 14 13 12 13 13 12 14 16 15 16 14 14 16 14 15 13
27 24 26 27 28 29 26 27 27 25 24 22 20 18 19 19 19 18 17 17 17 16 16 15 16 15 12 16 18 17 17 16 16 17 12 12 15 16 14 14 16 14 12 15
24 26 27 23 25 28 25 25 26 24 23 21 19 18 19 18 18 18 17 16 14 14 14 14 16 17 18 17 18 17 16 15 15 15 14 14 11 10 16 15 15 15 15 13
27 28 26 25 26 27 25 24 24 23 22 20 19 18 17 17 16 17 14 12 11 12 13 14 16 16 17 17 16 14 14 13 14 14 14 13 11 11 5 8 14 14 13 13
29 28 27 26 24 26 26 25 25 22 21 19 18 17 16 15 15 11 10 11 11 12 13 15 14 14 16 18 15 14 13 10 11 9 6 5 1 3 1 1 -2 2 11 13
28 27 27 27 27 26 25 24 22 21 21 19 18 16 15 14 12 13 13 11 10 11 13 13 12 10 15 17 16 16 14 7 4 2 0 1 3 4 4 3 -1 -1 2 8
27 27 27 26 26 25 25 23 21 22 23 18 15 13 12 13 13 13 14 12 9 9 11 8 10 8 11 14 14 11 5 5 4 5 5 5 5 5 6 5 4 3 5 5
26 26 26 26 26 27 27 26 25 25 22 18 13 12 13 14 14 13 12 12 9 9 10 9 5 -1 0 3 11 8 5 8 8 10 9 8 7 7 8 6 5 6 3 -2
26 27 27 27 27 29 28 28 28 25 24 19 18 16 15 14 13 12 11 10 8 6 3 2 1 3 2 4 10 12 11 12 13 10 9 5 7 8 4 3 4 4 3 4
27 27 27 28 28 29 28 27 25 25 22 20 17 15 15 14 13 11 9 8 8 9 7 3 12 9 8 10 13 13 10 8 10 9 8 3 1 3 -1 -3 -3 -4 -2 2
27 27 28 29 30 28 26 25 23 21 21 19 16 13 12 11 11 8 7 7 8 10 10 10 11 14 12 12 13 11 10 5 9 1 -1 -2 -10 -14 -11 -4 -4 -7 -10 -7
28 26 28 28 26 27 23 23 22 20 19 18 16 13 12 10 10 8 7 8 10 10 13 11 14 12 12 12 10 5 1 -4 -4 -4 -9 -14 -16 -14 -17 -19 -14 -16 -15 -15
27 28 26 23 22 22 24 24 23 20 18 18 17 13 10 9 9 10 10 14 15 11 14 15 12 9 12 10 8 3 3 2 -2 -4 -10 -14 -18 -20 -20 -20 -20 -20 -22 -20
24 21 21 21 21 21 21 21 20 19 18 17 14 13 12 10 10 13 13 16 15 13 15 13 8 7 6 4 1 -1 -0 -6 -11 -14 -19 -22 -23 -24 -23 -23 -24 -26 -26 -21
17 20 18 19 20 20 17 18 19 19 18 17 15 14 12 12 14 18 17 16 14 15 12 8 9 6 1 1 1 -3 -8 -16 -19 -21 -19 -23 -28 -27 -27 -29 -27 -29 -28 -24
16 16 19 19 19 19 19 19 18 18 18 15 14 14 14 14 14 17 17 15 14 12 10 8 5 4 3 -0 -4 -9 -16 -21 -23 -23 -24 -26 -28 -29 -31 -31 -32 -32 -32 -28
20 20 20 21 20 20 19 19 17 18 17 16 16 16 17 18 17 16 15 14 12 10 9 6 4 1 -2 -4 -11 -15 -18 -16 -21 -24 -26 -27 -29 -28 -31 -30 -33 -33 -33 -31
22 21 21 20 19 19 19 19 18 17 17 16 15 16 18 17 15 14 13 12 11 10 8 3 1 -2 -5 -9 -11 -16 -21 -23 -24 -22 -29 -31 -31 -33 -34 -34 -36 -36 -35 -35